Wetterdaten: Montag, 16.05.2022
Datum Zeit Temp. 2m Temp +5 cm Feuchte A. Luftdruck Regen Wind Richtung Richtung Sonnenschein UV Solar Taupunkt Windchill Windben
16.05.2022 00:00 14,4 C 11,1 C 68 % 1017,3 hPa 0,0 l/m 4,8 km/h (1 Bft) O-NO 67 0 min 0,0 UV-I 0 W/m 8,6 C 14,4 C 4,8 km/h (1 Bft)
16.05.2022 00:01 14,3 C 11,1 C 68 % 1017,4 hPa 0,0 l/m 3,2 km/h (1 Bft) O-NO 67 0 min 0,0 UV-I 0 W/m 8,5 C 14,3 C 3,2 km/h (1 Bft)
16.05.2022 00:02 13,9 C 10,6 C 68 % 1017,5 hPa 0,0 l/m 3,2 km/h (1 Bft) O-NO 67 0 min 0,0 UV-I 0 W/m 8,1 C 13,9 C 4,8 km/h (1 Bft)
16.05.2022 00:03 13,6 C 10,6 C 69 % 1017,4 hPa 0,0 l/m 1,6 km/h (1 Bft) O-NO 67 0 min 0,0 UV-I 0 W/m 8,0 C 13,6 C 1,6 km/h (1 Bft)
16.05.2022 00:04 13,3 C 10,0 C 70 % 1017,4 hPa 0,0 l/m 1,6 km/h (1 Bft) O-NO 67 0 min 0,0 UV-I 0 W/m 7,9 C 13,3 C 3,2 km/h (1 Bft)
16.05.2022 00:05 13,2 C 10,0 C 71 % 1017,3 hPa 0,0 l/m 3,2 km/h (1 Bft) O-NO 67 0 min 0,0 UV-I 0 W/m 8,1 C 13,2 C 4,8 km/h (1 Bft)
16.05.2022 00:06 13,1 C 9,4 C 72 % 1017,3 hPa 0,0 l/m 3,2 km/h (1 Bft) O-NO 67 0 min 0,0 UV-I 0 W/m 8,2 C 13,1 C 3,2 km/h (1 Bft)
16.05.2022 00:07 12,9 C 9,4 C 72 % 1017,3 hPa 0,0 l/m 1,6 km/h (1 Bft) O-NO 67 0 min 0,0 UV-I 0 W/m 8,0 C 12,9 C 3,2 km/h (1 Bft)
16.05.2022 00:08 12,8 C 9,4 C 73 % 1017,3 hPa 0,0 l/m 0,0 km/h (0 Bft) N 0 0 min 0,0 UV-I 0 W/m 8,1 C 12,8 C 0,0 km/h (0 Bft)
16.05.2022 00:09 12,8 C 9,4 C 73 % 1017,3 hPa 0,0 l/m 1,6 km/h (1 Bft) O-NO 67 0 min 0,0 UV-I 0 W/m 8,1 C 12,8 C 3,2 km/h (1 Bft)
16.05.2022 00:10 12,7 C 9,4 C 73 % 1017,3 hPa 0,0 l/m 1,6 km/h (1 Bft) O-NO 67 0 min 0,0 UV-I 0 W/m 8,0 C 12,7 C 3,2 km/h (1 Bft)
16.05.2022 00:11 12,7 C 8,9 C 73 % 1017,3 hPa 0,0 l/m 1,6 km/h (1 Bft) O-NO 67 0 min 0,0 UV-I 0 W/m 8,0 C 12,7 C 3,2 km/h (1 Bft)
16.05.2022 00:12 12,6 C 8,9 C 74 % 1017,2 hPa 0,0 l/m 3,2 km/h (1 Bft) O-NO 67 0 min 0,0 UV-I 0 W/m 8,1 C 12,6 C 4,8 km/h (1 Bft)
16.05.2022 00:13 12,4 C 9,4 C 74 % 1017,3 hPa 0,0 l/m 4,8 km/h (1 Bft) O-NO 67 0 min 0,0 UV-I 0 W/m 7,9 C 12,4 C 4,8 km/h (1 Bft)
16.05.2022 00:14 12,4 C 9,4 C 74 % 1017,3 hPa 0,0 l/m 4,8 km/h (1 Bft) O-NO 67 0 min 0,0 UV-I 0 W/m 7,9 C 12,4 C 6,4 km/h (2 Bft)
16.05.2022 00:15 12,4 C 9,4 C 74 % 1017,3 hPa 0,0 l/m 3,2 km/h (1 Bft) O-NO 67 0 min 0,0 UV-I 0 W/m 7,9 C 12,4 C 4,8 km/h (1 Bft)
16.05.2022 00:16 12,3 C 9,4 C 74 % 1017,4 hPa 0,0 l/m 0,0 km/h (0 Bft) O-NO 67 0 min 0,0 UV-I 0 W/m 7,8 C 12,3 C 1,6 km/h (1 Bft)
16.05.2022 00:17 12,3 C 9,4 C 74 % 1017,3 hPa 0,0 l/m 1,6 km/h (1 Bft) O-NO 67 0 min 0,0 UV-I 0 W/m 7,8 C 12,3 C 4,8 km/h (1 Bft)
16.05.2022 00:18 12,3 C 9,4 C 75 % 1017,4 hPa 0,0 l/m 3,2 km/h (1 Bft) O-NO 67 0 min 0,0 UV-I 0 W/m 8,0 C 12,3 C 3,2 km/h (1 Bft)
16.05.2022 00:19 12,4 C 9,4 C 75 % 1017,4 hPa 0,0 l/m 3,2 km/h (1 Bft) O-NO 67 0 min 0,0 UV-I 0 W/m 8,1 C 12,4 C 3,2 km/h (1 Bft)
16.05.2022 00:20 12,6 C 9,4 C 75 % 1017,3 hPa 0,0 l/m 3,2 km/h (1 Bft) O-NO 67 0 min 0,0 UV-I 0 W/m 8,3 C 12,6 C 4,8 km/h (1 Bft)
16.05.2022 00:21 12,7 C 9,4 C 74 % 1017,3 hPa 0,0 l/m 3,2 km/h (1 Bft) O-NO 67 0 min 0,0 UV-I 0 W/m 8,2 C 12,7 C 4,8 km/h (1 Bft)
16.05.2022 00:22 12,9 C 10,0 C 74 % 1017,3 hPa 0,0 l/m 3,2 km/h (1 Bft) O-NO 67 0 min 0,0 UV-I 0 W/m 8,4 C 12,9 C 4,8 km/h (1 Bft)
16.05.2022 00:23 13,0 C 10,0 C 73 % 1017,3 hPa 0,0 l/m 4,8 km/h (1 Bft) O-NO 67 0 min 0,0 UV-I 0 W/m 8,3 C 13,0 C 6,4 km/h (2 Bft)
16.05.2022 00:24 13,1 C 10,0 C 73 % 1017,3 hPa 0,0 l/m 4,8 km/h (1 Bft) O-NO 67 0 min 0,0 UV-I 0 W/m 8,4 C 13,1 C 6,4 km/h (2 Bft)
16.05.2022 00:25 13,2 C 10,0 C 73 % 1017,3 hPa 0,0 l/m 4,8 km/h (1 Bft) O-NO 67 0 min 0,0 UV-I 0 W/m 8,5 C 13,2 C 6,4 km/h (2 Bft)
16.05.2022 00:26 13,3 C 10,0 C 73 % 1017,4 hPa 0,0 l/m 4,8 km/h (1 Bft) O-NO 67 0 min 0,0 UV-I 0 W/m 8,6 C 13,3 C 6,4 km/h (2 Bft)
16.05.2022 00:27 13,3 C 10,0 C 72 % 1017,3 hPa 0,0 l/m 3,2 km/h (1 Bft) O-NO 67 0 min 0,0 UV-I 0 W/m 8,4 C 13,3 C 4,8 km/h (1 Bft)
16.05.2022 00:28 13,3 C 10,0 C 72 % 1017,3 hPa 0,0 l/m 1,6 km/h (1 Bft) O-NO 67 0 min 0,0 UV-I 0 W/m 8,4 C 13,3 C 3,2 km/h (1 Bft)
16.05.2022 00:29 13,1 C 10,0 C 72 % 1017,3 hPa 0,0 l/m 1,6 km/h (1 Bft) O-NO 67 0 min 0,0 UV-I 0 W/m 8,2 C 13,1 C 4,8 km/h (1 Bft)
16.05.2022 00:30 13,0 C 9,4 C 72 % 1017,4 hPa 0,0 l/m 3,2 km/h (1 Bft) O-NO 67 0 min 0,0 UV-I 0 W/m 8,1 C 13,0 C 4,8 km/h (1 Bft)
16.05.2022 00:31 12,9 C 9,4 C 73 % 1017,3 hPa 0,0 l/m 1,6 km/h (1 Bft) O-NO 67 0 min 0,0 UV-I 0 W/m 8,2 C 12,9 C 3,2 km/h (1 Bft)
16.05.2022 00:32 12,7 C 9,4 C 73 % 1017,3 hPa 0,0 l/m 1,6 km/h (1 Bft) O-NO 67 0 min 0,0 UV-I 0 W/m 8,0 C 12,7 C 3,2 km/h (1 Bft)
16.05.2022 00:33 12,6 C 9,4 C 74 % 1017,3 hPa 0,0 l/m 1,6 km/h (1 Bft) O-NO 67 0 min 0,0 UV-I 0 W/m 8,1 C 12,6 C 3,2 km/h (1 Bft)
16.05.2022 00:34 12,4 C 8,9 C 74 % 1017,3 hPa 0,0 l/m 1,6 km/h (1 Bft) O-NO 67 0 min 0,0 UV-I 0 W/m 7,9 C 12,4 C 3,2 km/h (1 Bft)
16.05.2022 00:35 12,3 C 8,9 C 74 % 1017,3 hPa 0,0 l/m 4,8 km/h (1 Bft) O-NO 67 0 min 0,0 UV-I 0 W/m 7,8 C 12,3 C 6,4 km/h (2 Bft)
16.05.2022 00:36 12,3 C 8,9 C 75 % 1017,4 hPa 0,0 l/m 1,6 km/h (1 Bft) O-NO 67 0 min 0,0 UV-I 0 W/m 8,0 C 12,3 C 4,8 km/h (1 Bft)
16.05.2022 00:37 12,3 C 8,9 C 75 % 1017,3 hPa 0,0 l/m 3,2 km/h (1 Bft) O-NO 67 0 min 0,0 UV-I 0 W/m 8,0 C 12,3 C 4,8 km/h (1 Bft)
16.05.2022 00:38 12,2 C 8,9 C 75 % 1017,3 hPa 0,0 l/m 3,2 km/h (1 Bft) O-NO 67 0 min 0,0 UV-I 0 W/m 7,9 C 12,2 C 6,4 km/h (2 Bft)
16.05.2022 00:39 12,2 C 8,9 C 75 % 1017,3 hPa 0,0 l/m 3,2 km/h (1 Bft) O-NO 67 0 min 0,0 UV-I 0 W/m 7,9 C 12,2 C 4,8 km/h (1 Bft)
16.05.2022 00:40 12,3 C 8,9 C 75 % 1017,2 hPa 0,0 l/m 4,8 km/h (1 Bft) O-NO 67 0 min 0,0 UV-I 0 W/m 8,0 C 12,3 C 4,8 km/h (1 Bft)
16.05.2022 00:41 12,3 C 8,9 C 75 % 1017,2 hPa 0,0 l/m 4,8 km/h (1 Bft) O-NO 67 0 min 0,0 UV-I 0 W/m 8,0 C 12,3 C 8,0 km/h (2 Bft)
16.05.2022 00:42 12,2 C 8,9 C 74 % 1017,3 hPa 0,0 l/m 3,2 km/h (1 Bft) O-NO 67 0 min 0,0 UV-I 0 W/m 7,7 C 12,2 C 8,0 km/h (2 Bft)
16.05.2022 00:43 12,0 C 8,9 C 74 % 1017,3 hPa 0,0 l/m 0,0 km/h (0 Bft) O-NO 67 0 min 0,0 UV-I 0 W/m 7,5 C 12,0 C 1,6 km/h (1 Bft)
16.05.2022 00:44 11,9 C 8,9 C 75 % 1017,2 hPa 0,0 l/m 3,2 km/h (1 Bft) O-NO 67 0 min 0,0 UV-I 0 W/m 7,6 C 11,9 C 4,8 km/h (1 Bft)
16.05.2022 00:45 11,8 C 8,9 C 75 % 1017,3 hPa 0,0 l/m 3,2 km/h (1 Bft) O-NO 67 0 min 0,0 UV-I 0 W/m 7,5 C 11,8 C 4,8 km/h (1 Bft)
16.05.2022 00:46 11,7 C 8,3 C 76 % 1017,3 hPa 0,0 l/m 1,6 km/h (1 Bft) O-NO 67 0 min 0,0 UV-I 0 W/m 7,6 C 11,7 C 3,2 km/h (1 Bft)
16.05.2022 00:47 11,6 C 8,3 C 76 % 1017,3 hPa 0,0 l/m 1,6 km/h (1 Bft) O-NO 67 0 min 0,0 UV-I 0 W/m 7,5 C 11,6 C 3,2 km/h (1 Bft)
16.05.2022 00:48 11,4 C 8,3 C 76 % 1017,2 hPa 0,0 l/m 3,2 km/h (1 Bft) O-NO 67 0 min 0,0 UV-I 0 W/m 7,3 C 11,4 C 4,8 km/h (1 Bft)
16.05.2022 00:49 11,3 C 8,3 C 76 % 1017,2 hPa 0,0 l/m 1,6 km/h (1 Bft) O-NO 67 0 min 0,0 UV-I 0 W/m 7,2 C 11,3 C 3,2 km/h (1 Bft)
16.05.2022 00:50 11,3 C 8,3 C 77 % 1017,1 hPa 0,0 l/m 1,6 km/h (1 Bft) O-NO 67 0 min 0,0 UV-I 0 W/m 7,4 C 11,3 C 3,2 km/h (1 Bft)
16.05.2022 00:51 11,3 C 8,3 C 77 % 1017,3 hPa 0,0 l/m 1,6 km/h (1 Bft) O-NO 67 0 min 0,0 UV-I 0 W/m 7,4 C 11,3 C 3,2 km/h (1 Bft)
16.05.2022 00:52 11,3 C 8,3 C 77 % 1017,1 hPa 0,0 l/m 0,0 km/h (0 Bft) N 0 0 min 0,0 UV-I 0 W/m 7,4 C 11,3 C 0,0 km/h (0 Bft)
16.05.2022 00:53 11,3 C 8,3 C 77 % 1017,2 hPa 0,0 l/m 1,6 km/h (1 Bft) O-NO 67 0 min 0,0 UV-I 0 W/m 7,4 C 11,3 C 3,2 km/h (1 Bft)
16.05.2022 00:54 11,3 C 8,3 C 77 % 1017,1 hPa 0,0 l/m 1,6 km/h (1 Bft) O-NO 67 0 min 0,0 UV-I 0 W/m 7,4 C 11,3 C 3,2 km/h (1 Bft)
16.05.2022 00:55 11,3 C 8,3 C 77 % 1017,2 hPa 0,0 l/m 1,6 km/h (1 Bft) O-NO 67 0 min 0,0 UV-I 0 W/m 7,4 C 11,3 C 3,2 km/h (1 Bft)
16.05.2022 00:56 11,4 C 8,3 C 77 % 1017,2 hPa 0,0 l/m 0,0 km/h (0 Bft) O-NO 67 0 min 0,0 UV-I 0 W/m 7,5 C 11,4 C 1,6 km/h (1 Bft)
16.05.2022 00:57 11,4 C 8,3 C 77 % 1017,1 hPa 0,0 l/m 0,0 km/h (0 Bft) N 0 0 min 0,0 UV-I 0 W/m 7,5 C 11,4 C 0,0 km/h (0 Bft)
16.05.2022 00:58 11,3 C 8,3 C 77 % 1017,1 hPa 0,0 l/m 0,0 km/h (0 Bft) O-NO 67 0 min 0,0 UV-I 0 W/m 7,4 C 11,3 C 1,6 km/h (1 Bft)
16.05.2022 00:59 11,3 C 8,3 C 77 % 1017,0 hPa 0,0 l/m 0,0 km/h (0 Bft) N 0 0 min 0,0 UV-I 0 W/m 7,4 C 11,3 C 0,0 km/h (0 Bft)
16.05.2022 01:00 11,3 C 7,8 C 77 % 1017,1 hPa 0,0 l/m 1,6 km/h (1 Bft) O-NO 67 0 min 0,0 UV-I 0 W/m 7,4 C 11,3 C 3,2 km/h (1 Bft)
16.05.2022 01:01 11,2 C 7,8 C 77 % 1017,1 hPa 0,0 l/m 3,2 km/h (1 Bft) O-NO 67 0 min 0,0 UV-I 0 W/m 7,3 C 11,2 C 4,8 km/h (1 Bft)
16.05.2022 01:02 11,2 C 7,8 C 77 % 1017,0 hPa 0,0 l/m 3,2 km/h (1 Bft) O-NO 67 0 min 0,0 UV-I 0 W/m 7,3 C 11,2 C 4,8 km/h (1 Bft)
16.05.2022 01:03 11,1 C 7,8 C 77 % 1017,0 hPa 0,0 l/m 4,8 km/h (1 Bft) O-NO 67 0 min 0,0 UV-I 0 W/m 7,2 C 11,1 C 6,4 km/h (2 Bft)
16.05.2022 01:04 11,1 C 7,8 C 78 % 1017,0 hPa 0,0 l/m 3,2 km/h (1 Bft) O-NO 67 0 min 0,0 UV-I 0 W/m 7,4 C 11,1 C 6,4 km/h (2 Bft)
16.05.2022 01:05 11,1 C 7,8 C 78 % 1016,9 hPa 0,0 l/m 1,6 km/h (1 Bft) O-NO 67 0 min 0,0 UV-I 0 W/m 7,4 C 11,1 C 3,2 km/h (1 Bft)
16.05.2022 01:06 11,0 C 7,8 C 78 % 1016,9 hPa 0,0 l/m 3,2 km/h (1 Bft) O-NO 67 0 min 0,0 UV-I 0 W/m 7,3 C 11,0 C 4,8 km/h (1 Bft)
16.05.2022 01:07 10,9 C 7,8 C 78 % 1016,9 hPa 0,0 l/m 3,2 km/h (1 Bft) O-NO 67 0 min 0,0 UV-I 0 W/m 7,2 C 10,9 C 4,8 km/h (1 Bft)
16.05.2022 01:08 10,9 C 7,8 C 78 % 1016,8 hPa 0,0 l/m 4,8 km/h (1 Bft) O-NO 67 0 min 0,0 UV-I 0 W/m 7,2 C 10,9 C 4,8 km/h (1 Bft)
16.05.2022 01:09 10,9 C 7,8 C 78 % 1016,9 hPa 0,0 l/m 4,8 km/h (1 Bft) O-NO 67 0 min 0,0 UV-I 0 W/m 7,2 C 10,9 C 4,8 km/h (1 Bft)
16.05.2022 01:10 10,9 C 7,8 C 79 % 1016,8 hPa 0,0 l/m 4,8 km/h (1 Bft) O-NO 67 0 min 0,0 UV-I 0 W/m 7,4 C 10,9 C 4,8 km/h (1 Bft)
16.05.2022 01:11 10,9 C 7,8 C 79 % 1016,9 hPa 0,0 l/m 4,8 km/h (1 Bft) O-NO 67 0 min 0,0 UV-I 0 W/m 7,4 C 10,9 C 6,4 km/h (2 Bft)
16.05.2022 01:12 10,9 C 7,8 C 78 % 1017,0 hPa 0,0 l/m 3,2 km/h (1 Bft) O-NO 67 0 min 0,0 UV-I 0 W/m 7,2 C 10,9 C 4,8 km/h (1 Bft)
16.05.2022 01:13 10,9 C 7,8 C 78 % 1017,0 hPa 0,0 l/m 3,2 km/h (1 Bft) O-NO 67 0 min 0,0 UV-I 0 W/m 7,2 C 10,9 C 3,2 km/h (1 Bft)
16.05.2022 01:14 10,8 C 7,8 C 78 % 1016,8 hPa 0,0 l/m 3,2 km/h (1 Bft) O-NO 67 0 min 0,0 UV-I 0 W/m 7,1 C 10,8 C 4,8 km/h (1 Bft)
16.05.2022 01:15 10,8 C 7,8 C 78 % 1017,0 hPa 0,0 l/m 4,8 km/h (1 Bft) O-NO 67 0 min 0,0 UV-I 0 W/m 7,1 C 10,8 C 4,8 km/h (1 Bft)
16.05.2022 01:16 10,9 C 7,8 C 79 % 1016,9 hPa 0,0 l/m 3,2 km/h (1 Bft) O-NO 67 0 min 0,0 UV-I 0 W/m 7,4 C 10,9 C 4,8 km/h (1 Bft)
16.05.2022 01:17 10,9 C 7,8 C 79 % 1017,0 hPa 0,0 l/m 3,2 km/h (1 Bft) O-NO 67 0 min 0,0 UV-I 0 W/m 7,4 C 10,9 C 4,8 km/h (1 Bft)
16.05.2022 01:18 10,8 C 7,8 C 78 % 1017,0 hPa 0,0 l/m 3,2 km/h (1 Bft) O-NO 67 0 min 0,0 UV-I 0 W/m 7,1 C 10,8 C 4,8 km/h (1 Bft)
16.05.2022 01:19 10,8 C 7,8 C 79 % 1016,9 hPa 0,0 l/m 3,2 km/h (1 Bft) O-NO 67 0 min 0,0 UV-I 0 W/m 7,3 C 10,8 C 4,8 km/h (1 Bft)
16.05.2022 01:20 10,7 C 7,8 C 79 % 1016,9 hPa 0,0 l/m 0,0 km/h (0 Bft) O-NO 67 0 min 0,0 UV-I 0 W/m 7,2 C 10,7 C 1,6 km/h (1 Bft)
16.05.2022 01:21 10,6 C 7,8 C 79 % 1016,9 hPa 0,0 l/m 0,0 km/h (0 Bft) O-NO 67 0 min 0,0 UV-I 0 W/m 7,1 C 10,6 C 1,6 km/h (1 Bft)
16.05.2022 01:22 10,5 C 7,8 C 79 % 1017,0 hPa 0,0 l/m 0,0 km/h (0 Bft) N 0 0 min 0,0 UV-I 0 W/m 7,0 C 10,5 C 0,0 km/h (0 Bft)
16.05.2022 01:23 10,5 C 7,8 C 79 % 1016,9 hPa 0,0 l/m 0,0 km/h (0 Bft) N 0 0 min 0,0 UV-I 0 W/m 7,0 C 10,5 C 0,0 km/h (0 Bft)
16.05.2022 01:24 10,5 C 7,8 C 79 % 1016,9 hPa 0,0 l/m 0,0 km/h (0 Bft) O-NO 67 0 min 0,0 UV-I 0 W/m 7,0 C 10,5 C 1,6 km/h (1 Bft)
16.05.2022 01:25 10,4 C 7,8 C 79 % 1016,9 hPa 0,0 l/m 0,0 km/h (0 Bft) O-NO 67 0 min 0,0 UV-I 0 W/m 6,9 C 10,4 C 1,6 km/h (1 Bft)
16.05.2022 01:26 10,4 C 7,8 C 80 % 1016,9 hPa 0,0 l/m 0,0 km/h (0 Bft) N 0 0 min 0,0 UV-I 0 W/m 7,1 C 10,4 C 0,0 km/h (0 Bft)
16.05.2022 01:27 10,5 C 7,8 C 80 % 1016,9 hPa 0,0 l/m 0,0 km/h (0 Bft) O-NO 67 0 min 0,0 UV-I 0 W/m 7,2 C 10,5 C 1,6 km/h (1 Bft)
16.05.2022 01:28 10,4 C 7,8 C 80 % 1016,9 hPa 0,0 l/m 0,0 km/h (0 Bft) O-NO 67 0 min 0,0 UV-I 0 W/m 7,1 C 10,4 C 1,6 km/h (1 Bft)
16.05.2022 01:29 10,5 C 7,8 C 80 % 1016,9 hPa 0,0 l/m 0,0 km/h (0 Bft) O-NO 67 0 min 0,0 UV-I 0 W/m 7,2 C 10,5 C 1,6 km/h (1 Bft)
16.05.2022 01:30 10,4 C 7,8 C 80 % 1016,9 hPa 0,0 l/m 0,0 km/h (0 Bft) O-NO 67 0 min 0,0 UV-I 0 W/m 7,1 C 10,4 C 1,6 km/h (1 Bft)
16.05.2022 01:31 10,4 C 7,8 C 80 % 1016,9 hPa 0,0 l/m 0,0 km/h (0 Bft) N 0 0 min 0,0 UV-I 0 W/m 7,1 C 10,4 C 0,0 km/h (0 Bft)
16.05.2022 01:32 10,4 C 7,2 C 80 % 1016,8 hPa 0,0 l/m 0,0 km/h (0 Bft) N 0 0 min 0,0 UV-I 0 W/m 7,1 C 10,4 C 0,0 km/h (0 Bft)
16.05.2022 01:33 10,5 C 7,8 C 80 % 1016,9 hPa 0,0 l/m 0,0 km/h (0 Bft) O-NO 67 0 min 0,0 UV-I 0 W/m 7,2 C 10,5 C 1,6 km/h (1 Bft)
16.05.2022 01:34 10,4 C 7,8 C 80 % 1016,8 hPa 0,0 l/m 0,0 km/h (0 Bft) N 0 0 min 0,0 UV-I 0 W/m 7,1 C 10,4 C 0,0 km/h (0 Bft)
16.05.2022 01:35 10,4 C 7,8 C 80 % 1016,8 hPa 0,0 l/m 0,0 km/h (0 Bft) N 0 0 min 0,0 UV-I 0 W/m 7,1 C 10,4 C 0,0 km/h (0 Bft)
16.05.2022 01:36 10,5 C 7,8 C 80 % 1016,8 hPa 0,0 l/m 0,0 km/h (0 Bft) N 0 0 min 0,0 UV-I 0 W/m 7,2 C 10,5 C 0,0 km/h (0 Bft)
16.05.2022 01:37 10,5 C 7,8 C 80 % 1016,9 hPa 0,0 l/m 0,0 km/h (0 Bft) O-NO 67 0 min 0,0 UV-I 0 W/m 7,2 C 10,5 C 1,6 km/h (1 Bft)
16.05.2022 01:38 10,5 C 7,8 C 80 % 1016,8 hPa 0,0 l/m 0,0 km/h (0 Bft) N 0 0 min 0,0 UV-I 0 W/m 7,2 C 10,5 C 0,0 km/h (0 Bft)
16.05.2022 01:39 10,5 C 7,2 C 80 % 1016,8 hPa 0,0 l/m 0,0 km/h (0 Bft) O-NO 67 0 min 0,0 UV-I 0 W/m 7,2 C 10,5 C 1,6 km/h (1 Bft)
16.05.2022 01:40 10,5 C 7,8 C 80 % 1016,8 hPa 0,0 l/m 0,0 km/h (0 Bft) O-NO 67 0 min 0,0 UV-I 0 W/m 7,2 C 10,5 C 1,6 km/h (1 Bft)
16.05.2022 01:41 10,5 C 7,8 C 80 % 1016,8 hPa 0,0 l/m 0,0 km/h (0 Bft) N 0 0 min 0,0 UV-I 0 W/m 7,2 C 10,5 C 0,0 km/h (0 Bft)
16.05.2022 01:42 10,5 C 7,2 C 80 % 1016,8 hPa 0,0 l/m 0,0 km/h (0 Bft) N 0 0 min 0,0 UV-I 0 W/m 7,2 C 10,5 C 0,0 km/h (0 Bft)
16.05.2022 01:43 10,5 C 7,8 C 80 % 1016,8 hPa 0,0 l/m 0,0 km/h (0 Bft) N 0 0 min 0,0 UV-I 0 W/m 7,2 C 10,5 C 0,0 km/h (0 Bft)
16.05.2022 01:44 10,5 C 7,8 C 80 % 1016,8 hPa 0,0 l/m 0,0 km/h (0 Bft) N 0 0 min 0,0 UV-I 0 W/m 7,2 C 10,5 C 0,0 km/h (0 Bft)
16.05.2022 01:45 10,6 C 7,8 C 80 % 1016,7 hPa 0,0 l/m 0,0 km/h (0 Bft) O-NO 67 0 min 0,0 UV-I 0 W/m 7,3 C 10,6 C 1,6 km/h (1 Bft)
16.05.2022 01:46 10,5 C 7,2 C 80 % 1016,7 hPa 0,0 l/m 0,0 km/h (0 Bft) N 0 0 min 0,0 UV-I 0 W/m 7,2 C 10,5 C 0,0 km/h (0 Bft)
16.05.2022 01:47 10,5 C 7,2 C 80 % 1016,6 hPa 0,0 l/m 0,0 km/h (0 Bft) N 0 0 min 0,0 UV-I 0 W/m 7,2 C 10,5 C 0,0 km/h (0 Bft)
16.05.2022 01:48 10,5 C 7,2 C 80 % 1016,7 hPa 0,0 l/m 0,0 km/h (0 Bft) O-NO 67 0 min 0,0 UV-I 0 W/m 7,2 C 10,5 C 1,6 km/h (1 Bft)
16.05.2022 01:49 10,4 C 7,2 C 80 % 1016,6 hPa 0,0 l/m 0,0 km/h (0 Bft) O-NO 67 0 min 0,0 UV-I 0 W/m 7,1 C 10,4 C 1,6 km/h (1 Bft)
16.05.2022 01:50 10,3 C 7,8 C 80 % 1016,7 hPa 0,0 l/m 0,0 km/h (0 Bft) N 0 0 min 0,0 UV-I 0 W/m 7,0 C 10,3 C 0,0 km/h (0 Bft)
16.05.2022 01:51 10,4 C 7,2 C 81 % 1016,8 hPa 0,0 l/m 0,0 km/h (0 Bft) O-NO 67 0 min 0,0 UV-I 0 W/m 7,3 C 10,4 C 1,6 km/h (1 Bft)
16.05.2022 01:52 10,4 C 7,2 C 81 % 1016,7 hPa 0,0 l/m 0,0 km/h (0 Bft) O-NO 67 0 min 0,0 UV-I 0 W/m 7,3 C 10,4 C 1,6 km/h (1 Bft)
16.05.2022 01:53 10,3 C 7,2 C 80 % 1016,6 hPa 0,0 l/m 0,0 km/h (0 Bft) O-NO 67 0 min 0,0 UV-I 0 W/m 7,0 C 10,3 C 1,6 km/h (1 Bft)
16.05.2022 01:54 10,2 C 7,8 C 81 % 1016,6 hPa 0,0 l/m 0,0 km/h (0 Bft) O-NO 67 0 min 0,0 UV-I 0 W/m 7,1 C 10,2 C 1,6 km/h (1 Bft)
16.05.2022 01:55 10,2 C 7,8 C 81 % 1016,7 hPa 0,0 l/m 0,0 km/h (0 Bft) O-NO 67 0 min 0,0 UV-I 0 W/m 7,1 C 10,2 C 1,6 km/h (1 Bft)
16.05.2022 01:56 10,2 C 7,8 C 80 % 1016,6 hPa 0,0 l/m 0,0 km/h (0 Bft) N 0 0 min 0,0 UV-I 0 W/m 6,9 C 10,2 C 0,0 km/h (0 Bft)
16.05.2022 01:57 10,1 C 7,2 C 80 % 1016,6 hPa 0,0 l/m 0,0 km/h (0 Bft) O-NO 67 0 min 0,0 UV-I 0 W/m 6,8 C 10,1 C 1,6 km/h (1 Bft)
16.05.2022 01:58 10,1 C 7,8 C 81 % 1016,6 hPa 0,0 l/m 0,0 km/h (0 Bft) O-NO 67 0 min 0,0 UV-I 0 W/m 7,0 C 10,1 C 1,6 km/h (1 Bft)
16.05.2022 01:59 10,2 C 7,8 C 81 % 1016,5 hPa 0,0 l/m 0,0 km/h (0 Bft) N 0 0 min 0,0 UV-I 0 W/m 7,1 C 10,2 C 0,0 km/h (0 Bft)
16.05.2022 02:00 10,2 C 7,2 C 81 % 1016,6 hPa 0,0 l/m 0,0 km/h (0 Bft) N 0 0 min 0,0 UV-I 0 W/m 7,1 C 10,2 C 0,0 km/h (0 Bft)
16.05.2022 02:01 10,2 C 7,8 C 81 % 1016,7 hPa 0,0 l/m 0,0 km/h (0 Bft) N 0 0 min 0,0 UV-I 0 W/m 7,1 C 10,2 C 0,0 km/h (0 Bft)
16.05.2022 02:02 10,2 C 7,2 C 81 % 1016,6 hPa 0,0 l/m 0,0 km/h (0 Bft) N 0 0 min 0,0 UV-I 0 W/m 7,1 C 10,2 C 0,0 km/h (0 Bft)
16.05.2022 02:03 10,2 C 7,2 C 81 % 1016,6 hPa 0,0 l/m 0,0 km/h (0 Bft) N 0 0 min 0,0 UV-I 0 W/m 7,1 C 10,2 C 0,0 km/h (0 Bft)
16.05.2022 02:04 10,2 C 7,2 C 81 % 1016,6 hPa 0,0 l/m 0,0 km/h (0 Bft) N 0 0 min 0,0 UV-I 0 W/m 7,1 C 10,2 C 0,0 km/h (0 Bft)
16.05.2022 02:05 10,2 C 7,8 C 81 % 1016,5 hPa 0,0 l/m 0,0 km/h (0 Bft) N 0 0 min 0,0 UV-I 0 W/m 7,1 C 10,2 C 0,0 km/h (0 Bft)
16.05.2022 02:06 10,2 C 7,2 C 81 % 1016,6 hPa 0,0 l/m 0,0 km/h (0 Bft) N 0 0 min 0,0 UV-I 0 W/m 7,1 C 10,2 C 0,0 km/h (0 Bft)
16.05.2022 02:07 10,1 C 7,2 C 81 % 1016,5 hPa 0,0 l/m 0,0 km/h (0 Bft) N 0 0 min 0,0 UV-I 0 W/m 7,0 C 10,1 C 0,0 km/h (0 Bft)
16.05.2022 02:08 10,2 C 7,8 C 81 % 1016,5 hPa 0,0 l/m 0,0 km/h (0 Bft) N 0 0 min 0,0 UV-I 0 W/m 7,1 C 10,2 C 0,0 km/h (0 Bft)
16.05.2022 02:09 10,2 C 7,2 C 81 % 1016,6 hPa 0,0 l/m 0,0 km/h (0 Bft) N 0 0 min 0,0 UV-I 0 W/m 7,1 C 10,2 C 0,0 km/h (0 Bft)
16.05.2022 02:10 10,2 C 7,8 C 81 % 1016,5 hPa 0,0 l/m 0,0 km/h (0 Bft) N 0 0 min 0,0 UV-I 0 W/m 7,1 C 10,2 C 0,0 km/h (0 Bft)
16.05.2022 02:11 10,2 C 7,8 C 81 % 1016,6 hPa 0,0 l/m 0,0 km/h (0 Bft) N 0 0 min 0,0 UV-I 0 W/m 7,1 C 10,2 C 0,0 km/h (0 Bft)
16.05.2022 02:12 10,2 C 7,8 C 81 % 1016,5 hPa 0,0 l/m 0,0 km/h (0 Bft) O-NO 67 0 min 0,0 UV-I 0 W/m 7,1 C 10,2 C 1,6 km/h (1 Bft)
16.05.2022 02:13 10,2 C 7,8 C 81 % 1016,5 hPa 0,0 l/m 0,0 km/h (0 Bft) N 0 0 min 0,0 UV-I 0 W/m 7,1 C 10,2 C 0,0 km/h (0 Bft)
16.05.2022 02:14 10,2 C 7,8 C 81 % 1016,5 hPa 0,0 l/m 0,0 km/h (0 Bft) N 0 0 min 0,0 UV-I 0 W/m 7,1 C 10,2 C 0,0 km/h (0 Bft)
16.05.2022 02:15 10,2 C 7,8 C 81 % 1016,5 hPa 0,0 l/m 0,0 km/h (0 Bft) N 0 0 min 0,0 UV-I 0 W/m 7,1 C 10,2 C 0,0 km/h (0 Bft)
16.05.2022 02:16 10,2 C 7,8 C 81 % 1016,5 hPa 0,0 l/m 0,0 km/h (0 Bft) N 0 0 min 0,0 UV-I 0 W/m 7,1 C 10,2 C 0,0 km/h (0 Bft)
16.05.2022 02:17 10,1 C 7,8 C 81 % 1016,5 hPa 0,0 l/m 0,0 km/h (0 Bft) N 0 0 min 0,0 UV-I 0 W/m 7,0 C 10,1 C 0,0 km/h (0 Bft)
16.05.2022 02:18 10,1 C 7,8 C 81 % 1016,4 hPa 0,0 l/m 0,0 km/h (0 Bft) N 0 0 min 0,0 UV-I 0 W/m 7,0 C 10,1 C 0,0 km/h (0 Bft)
16.05.2022 02:19 10,1 C 7,8 C 82 % 1016,5 hPa 0,0 l/m 0,0 km/h (0 Bft) N 0 0 min 0,0 UV-I 0 W/m 7,2 C 10,1 C 0,0 km/h (0 Bft)
16.05.2022 02:20 10,0 C 7,2 C 81 % 1016,5 hPa 0,0 l/m 0,0 km/h (0 Bft) N 0 0 min 0,0 UV-I 0 W/m 6,9 C 10,0 C 0,0 km/h (0 Bft)
16.05.2022 02:21 9,9 C 7,2 C 81 % 1016,4 hPa 0,0 l/m 0,0 km/h (0 Bft) N 0 0 min 0,0 UV-I 0 W/m 6,8 C 9,9 C 0,0 km/h (0 Bft)
16.05.2022 02:22 9,9 C 7,8 C 82 % 1016,5 hPa 0,0 l/m 0,0 km/h (0 Bft) N 0 0 min 0,0 UV-I 0 W/m 7,0 C 9,9 C 0,0 km/h (0 Bft)
16.05.2022 02:23 10,0 C 7,8 C 82 % 1016,5 hPa 0,0 l/m 0,0 km/h (0 Bft) N 0 0 min 0,0 UV-I 0 W/m 7,1 C 10,0 C 0,0 km/h (0 Bft)
16.05.2022 02:24 9,9 C 7,2 C 82 % 1016,4 hPa 0,0 l/m 0,0 km/h (0 Bft) N 0 0 min 0,0 UV-I 0 W/m 7,0 C 9,9 C 0,0 km/h (0 Bft)
16.05.2022 02:25 9,8 C 7,2 C 81 % 1016,4 hPa 0,0 l/m 0,0 km/h (0 Bft) N 0 0 min 0,0 UV-I 0 W/m 6,7 C 9,8 C 0,0 km/h (0 Bft)
16.05.2022 02:26 9,8 C 7,2 C 81 % 1016,4 hPa 0,0 l/m 0,0 km/h (0 Bft) N 0 0 min 0,0 UV-I 0 W/m 6,7 C 9,8 C 0,0 km/h (0 Bft)
16.05.2022 02:27 9,8 C 7,2 C 81 % 1016,4 hPa 0,0 l/m 0,0 km/h (0 Bft) N 0 0 min 0,0 UV-I 0 W/m 6,7 C 9,8 C 0,0 km/h (0 Bft)
16.05.2022 02:28 9,8 C 7,2 C 82 % 1016,4 hPa 0,0 l/m 0,0 km/h (0 Bft) N 0 0 min 0,0 UV-I 0 W/m 6,9 C 9,8 C 0,0 km/h (0 Bft)
16.05.2022 02:29 9,7 C 7,2 C 82 % 1016,5 hPa 0,0 l/m 0,0 km/h (0 Bft) N 0 0 min 0,0 UV-I 0 W/m 6,8 C 9,7 C 0,0 km/h (0 Bft)
16.05.2022 02:30 9,7 C 7,2 C 82 % 1016,4 hPa 0,0 l/m 0,0 km/h (0 Bft) N 0 0 min 0,0 UV-I 0 W/m 6,8 C 9,7 C 0,0 km/h (0 Bft)
16.05.2022 02:31 9,7 C 7,2 C 82 % 1016,4 hPa 0,0 l/m 0,0 km/h (0 Bft) N 0 0 min 0,0 UV-I 0 W/m 6,8 C 9,7 C 0,0 km/h (0 Bft)
16.05.2022 02:32 9,6 C 7,2 C 82 % 1016,4 hPa 0,0 l/m 0,0 km/h (0 Bft) N 0 0 min 0,0 UV-I 0 W/m 6,7 C 9,6 C 0,0 km/h (0 Bft)
16.05.2022 02:33 9,6 C 7,2 C 82 % 1016,4 hPa 0,0 l/m 0,0 km/h (0 Bft) N 0 0 min 0,0 UV-I 0 W/m 6,7 C 9,6 C 0,0 km/h (0 Bft)
16.05.2022 02:34 9,6 C 7,2 C 82 % 1016,3 hPa 0,0 l/m 0,0 km/h (0 Bft) N 0 0 min 0,0 UV-I 0 W/m 6,7 C 9,6 C 0,0 km/h (0 Bft)
16.05.2022 02:35 9,6 C 7,2 C 83 % 1016,4 hPa 0,0 l/m 0,0 km/h (0 Bft) N 0 0 min 0,0 UV-I 0 W/m 6,9 C 9,6 C 0,0 km/h (0 Bft)
16.05.2022 02:36 9,6 C 7,2 C 82 % 1016,4 hPa 0,0 l/m 0,0 km/h (0 Bft) N 0 0 min 0,0 UV-I 0 W/m 6,7 C 9,6 C 0,0 km/h (0 Bft)
16.05.2022 02:37 9,4 C 7,2 C 82 % 1016,4 hPa 0,0 l/m 0,0 km/h (0 Bft) N 0 0 min 0,0 UV-I 0 W/m 6,5 C 9,4 C 0,0 km/h (0 Bft)
16.05.2022 02:38 9,4 C 7,2 C 82 % 1016,3 hPa 0,0 l/m 0,0 km/h (0 Bft) N 0 0 min 0,0 UV-I 0 W/m 6,5 C 9,4 C 0,0 km/h (0 Bft)
16.05.2022 02:39 9,4 C 7,2 C 83 % 1016,4 hPa 0,0 l/m 0,0 km/h (0 Bft) N 0 0 min 0,0 UV-I 0 W/m 6,7 C 9,4 C 0,0 km/h (0 Bft)
16.05.2022 02:40 9,4 C 7,2 C 83 % 1016,4 hPa 0,0 l/m 0,0 km/h (0 Bft) N 0 0 min 0,0 UV-I 0 W/m 6,7 C 9,4 C 0,0 km/h (0 Bft)
16.05.2022 02:41 9,4 C 7,2 C 83 % 1016,4 hPa 0,0 l/m 0,0 km/h (0 Bft) N 0 0 min 0,0 UV-I 0 W/m 6,7 C 9,4 C 0,0 km/h (0 Bft)
16.05.2022 02:42 9,4 C 7,2 C 83 % 1016,3 hPa 0,0 l/m 0,0 km/h (0 Bft) N 0 0 min 0,0 UV-I 0 W/m 6,7 C 9,4 C 0,0 km/h (0 Bft)
16.05.2022 02:43 9,5 C 7,2 C 83 % 1016,4 hPa 0,0 l/m 0,0 km/h (0 Bft) N 0 0 min 0,0 UV-I 0 W/m 6,8 C 9,5 C 0,0 km/h (0 Bft)
16.05.2022 02:44 9,6 C 7,2 C 83 % 1016,3 hPa 0,0 l/m 0,0 km/h (0 Bft) N 0 0 min 0,0 UV-I 0 W/m 6,9 C 9,6 C 0,0 km/h (0 Bft)
16.05.2022 02:45 9,5 C 7,2 C 83 % 1016,3 hPa 0,0 l/m 0,0 km/h (0 Bft) N 0 0 min 0,0 UV-I 0 W/m 6,8 C 9,5 C 0,0 km/h (0 Bft)
16.05.2022 02:46 9,6 C 7,2 C 83 % 1016,3 hPa 0,0 l/m 0,0 km/h (0 Bft) N 0 0 min 0,0 UV-I 0 W/m 6,9 C 9,6 C 0,0 km/h (0 Bft)
16.05.2022 02:47 9,6 C 7,2 C 83 % 1016,3 hPa 0,0 l/m 0,0 km/h (0 Bft) N 0 0 min 0,0 UV-I 0 W/m 6,9 C 9,6 C 0,0 km/h (0 Bft)
16.05.2022 02:48 9,6 C 7,2 C 83 % 1016,3 hPa 0,0 l/m 0,0 km/h (0 Bft) N 0 0 min 0,0 UV-I 0 W/m 6,9 C 9,6 C 0,0 km/h (0 Bft)
16.05.2022 02:49 9,6 C 7,2 C 83 % 1016,3 hPa 0,0 l/m 0,0 km/h (0 Bft) N 0 0 min 0,0 UV-I 0 W/m 6,9 C 9,6 C 0,0 km/h (0 Bft)
16.05.2022 02:50 9,6 C 7,2 C 83 % 1016,3 hPa 0,0 l/m 0,0 km/h (0 Bft) N 0 0 min 0,0 UV-I 0 W/m 6,9 C 9,6 C 0,0 km/h (0 Bft)
16.05.2022 02:51 9,7 C 7,2 C 83 % 1016,2 hPa 0,0 l/m 0,0 km/h (0 Bft) N 0 0 min 0,0 UV-I 0 W/m 7,0 C 9,7 C 0,0 km/h (0 Bft)
16.05.2022 02:52 9,7 C 7,2 C 83 % 1016,3 hPa 0,0 l/m 0,0 km/h (0 Bft) N 0 0 min 0,0 UV-I 0 W/m 7,0 C 9,7 C 0,0 km/h (0 Bft)
16.05.2022 02:53 9,7 C 7,2 C 83 % 1016,3 hPa 0,0 l/m 0,0 km/h (0 Bft) N 0 0 min 0,0 UV-I 0 W/m 7,0 C 9,7 C 0,0 km/h (0 Bft)
16.05.2022 02:54 9,7 C 7,2 C 83 % 1016,2 hPa 0,0 l/m 0,0 km/h (0 Bft) N 0 0 min 0,0 UV-I 0 W/m 7,0 C 9,7 C 0,0 km/h (0 Bft)
16.05.2022 02:55 9,7 C 7,2 C 83 % 1016,2 hPa 0,0 l/m 0,0 km/h (0 Bft) N 0 0 min 0,0 UV-I 0 W/m 7,0 C 9,7 C 0,0 km/h (0 Bft)
16.05.2022 02:56 9,8 C 7,2 C 83 % 1016,3 hPa 0,0 l/m 0,0 km/h (0 Bft) N 0 0 min 0,0 UV-I 0 W/m 7,1 C 9,8 C 0,0 km/h (0 Bft)
16.05.2022 02:57 9,8 C 7,2 C 83 % 1016,2 hPa 0,0 l/m 0,0 km/h (0 Bft) N 0 0 min 0,0 UV-I 0 W/m 7,1 C 9,8 C 0,0 km/h (0 Bft)
16.05.2022 02:58 9,8 C 7,2 C 83 % 1016,2 hPa 0,0 l/m 0,0 km/h (0 Bft) N 0 0 min 0,0 UV-I 0 W/m 7,1 C 9,8 C 0,0 km/h (0 Bft)
16.05.2022 02:59 9,8 C 7,2 C 82 % 1016,1 hPa 0,0 l/m 0,0 km/h (0 Bft) N 0 0 min 0,0 UV-I 0 W/m 6,9 C 9,8 C 0,0 km/h (0 Bft)
16.05.2022 03:00 9,8 C 7,2 C 83 % 1016,2 hPa 0,0 l/m 0,0 km/h (0 Bft) N 0 0 min 0,0 UV-I 0 W/m 7,1 C 9,8 C 0,0 km/h (0 Bft)
16.05.2022 03:01 9,8 C 7,2 C 83 % 1016,3 hPa 0,0 l/m 0,0 km/h (0 Bft) N 0 0 min 0,0 UV-I 0 W/m 7,1 C 9,8 C 0,0 km/h (0 Bft)
16.05.2022 03:02 9,8 C 7,2 C 82 % 1016,2 hPa 0,0 l/m 0,0 km/h (0 Bft) N 0 0 min 0,0 UV-I 0 W/m 6,9 C 9,8 C 0,0 km/h (0 Bft)
16.05.2022 03:03 9,8 C 7,2 C 82 % 1016,2 hPa 0,0 l/m 0,0 km/h (0 Bft) N 0 0 min 0,0 UV-I 0 W/m 6,9 C 9,8 C 0,0 km/h (0 Bft)
16.05.2022 03:04 9,7 C 7,2 C 82 % 1016,3 hPa 0,0 l/m 0,0 km/h (0 Bft) N 0 0 min 0,0 UV-I 0 W/m 6,8 C 9,7 C 0,0 km/h (0 Bft)
16.05.2022 03:05 9,7 C 7,2 C 82 % 1016,3 hPa 0,0 l/m 0,0 km/h (0 Bft) N 0 0 min 0,0 UV-I 0 W/m 6,8 C 9,7 C 0,0 km/h (0 Bft)
16.05.2022 03:06 9,6 C 7,2 C 82 % 1016,2 hPa 0,0 l/m 0,0 km/h (0 Bft) N 0 0 min 0,0 UV-I 0 W/m 6,7 C 9,6 C 0,0 km/h (0 Bft)
16.05.2022 03:07 9,6 C 7,2 C 83 % 1016,1 hPa 0,0 l/m 0,0 km/h (0 Bft) N 0 0 min 0,0 UV-I 0 W/m 6,9 C 9,6 C 0,0 km/h (0 Bft)
16.05.2022 03:08 9,6 C 7,2 C 83 % 1016,2 hPa 0,0 l/m 0,0 km/h (0 Bft) N 0 0 min 0,0 UV-I 0 W/m 6,9 C 9,6 C 0,0 km/h (0 Bft)
16.05.2022 03:09 9,6 C 7,2 C 83 % 1016,1 hPa 0,0 l/m 0,0 km/h (0 Bft) N 0 0 min 0,0 UV-I 0 W/m 6,9 C 9,6 C 0,0 km/h (0 Bft)
16.05.2022 03:10 9,6 C 7,2 C 83 % 1016,1 hPa 0,0 l/m 0,0 km/h (0 Bft) N 0 0 min 0,0 UV-I 0 W/m 6,9 C 9,6 C 0,0 km/h (0 Bft)
16.05.2022 03:11 9,6 C 7,2 C 83 % 1016,2 hPa 0,0 l/m 0,0 km/h (0 Bft) N 0 0 min 0,0 UV-I 0 W/m 6,9 C 9,6 C 0,0 km/h (0 Bft)
16.05.2022 03:12 9,5 C 7,2 C 83 % 1016,1 hPa 0,0 l/m 0,0 km/h (0 Bft) N 0 0 min 0,0 UV-I 0 W/m 6,8 C 9,5 C 0,0 km/h (0 Bft)
16.05.2022 03:13 9,4 C 7,2 C 83 % 1016,2 hPa 0,0 l/m 0,0 km/h (0 Bft) N 0 0 min 0,0 UV-I 0 W/m 6,7 C 9,4 C 0,0 km/h (0 Bft)
16.05.2022 03:14 9,4 C 6,7 C 83 % 1016,2 hPa 0,0 l/m 0,0 km/h (0 Bft) N 0 0 min 0,0 UV-I 0 W/m 6,7 C 9,4 C 0,0 km/h (0 Bft)
16.05.2022 03:15 9,4 C 6,7 C 83 % 1016,2 hPa 0,0 l/m 0,0 km/h (0 Bft) N 0 0 min 0,0 UV-I 0 W/m 6,7 C 9,4 C 0,0 km/h (0 Bft)
16.05.2022 03:16 9,3 C 6,7 C 83 % 1016,2 hPa 0,0 l/m 0,0 km/h (0 Bft) N 0 0 min 0,0 UV-I 0 W/m 6,6 C 9,3 C 0,0 km/h (0 Bft)
16.05.2022 03:17 9,3 C 6,7 C 83 % 1016,2 hPa 0,0 l/m 0,0 km/h (0 Bft) N 0 0 min 0,0 UV-I 0 W/m 6,6 C 9,3 C 0,0 km/h (0 Bft)
16.05.2022 03:18 9,2 C 6,7 C 83 % 1016,2 hPa 0,0 l/m 0,0 km/h (0 Bft) N 0 0 min 0,0 UV-I 0 W/m 6,5 C 9,2 C 0,0 km/h (0 Bft)
16.05.2022 03:19 9,2 C 6,7 C 83 % 1016,2 hPa 0,0 l/m 0,0 km/h (0 Bft) N 0 0 min 0,0 UV-I 0 W/m 6,5 C 9,2 C 0,0 km/h (0 Bft)
16.05.2022 03:20 9,2 C 6,7 C 83 % 1016,2 hPa 0,0 l/m 0,0 km/h (0 Bft) N 0 0 min 0,0 UV-I 0 W/m 6,5 C 9,2 C 0,0 km/h (0 Bft)
16.05.2022 03:21 9,2 C 7,2 C 84 % 1016,2 hPa 0,0 l/m 0,0 km/h (0 Bft) N 0 0 min 0,0 UV-I 0 W/m 6,6 C 9,2 C 0,0 km/h (0 Bft)
16.05.2022 03:22 9,1 C 7,2 C 84 % 1016,2 hPa 0,0 l/m 0,0 km/h (0 Bft) N 0 0 min 0,0 UV-I 0 W/m 6,5 C 9,1 C 0,0 km/h (0 Bft)
16.05.2022 03:23 9,1 C 6,7 C 84 % 1016,3 hPa 0,0 l/m 0,0 km/h (0 Bft) N 0 0 min 0,0 UV-I 0 W/m 6,5 C 9,1 C 0,0 km/h (0 Bft)
16.05.2022 03:24 9,2 C 7,2 C 84 % 1016,3 hPa 0,0 l/m 0,0 km/h (0 Bft) N 0 0 min 0,0 UV-I 0 W/m 6,6 C 9,2 C 0,0 km/h (0 Bft)
16.05.2022 03:25 9,3 C 7,2 C 84 % 1016,3 hPa 0,0 l/m 0,0 km/h (0 Bft) N 0 0 min 0,0 UV-I 0 W/m 6,7 C 9,3 C 0,0 km/h (0 Bft)
16.05.2022 03:26 9,3 C 7,2 C 84 % 1016,4 hPa 0,0 l/m 0,0 km/h (0 Bft) N 0 0 min 0,0 UV-I 0 W/m 6,7 C 9,3 C 0,0 km/h (0 Bft)
16.05.2022 03:27 9,4 C 7,2 C 84 % 1016,4 hPa 0,0 l/m 0,0 km/h (0 Bft) N 0 0 min 0,0 UV-I 0 W/m 6,8 C 9,4 C 0,0 km/h (0 Bft)
16.05.2022 03:28 9,4 C 7,2 C 84 % 1016,4 hPa 0,0 l/m 0,0 km/h (0 Bft) N 0 0 min 0,0 UV-I 0 W/m 6,8 C 9,4 C 0,0 km/h (0 Bft)
16.05.2022 03:29 9,6 C 7,8 C 84 % 1016,4 hPa 0,0 l/m 0,0 km/h (0 Bft) N 0 0 min 0,0 UV-I 0 W/m 7,0 C 9,6 C 0,0 km/h (0 Bft)
16.05.2022 03:30 9,6 C 7,8 C 84 % 1016,4 hPa 0,0 l/m 0,0 km/h (0 Bft) N 0 0 min 0,0 UV-I 0 W/m 7,0 C 9,6 C 0,0 km/h (0 Bft)
16.05.2022 03:31 9,7 C 7,8 C 84 % 1016,3 hPa 0,0 l/m 0,0 km/h (0 Bft) N 0 0 min 0,0 UV-I 0 W/m 7,1 C 9,7 C 0,0 km/h (0 Bft)
16.05.2022 03:32 9,8 C 8,3 C 84 % 1016,4 hPa 0,0 l/m 0,0 km/h (0 Bft) N 0 0 min 0,0 UV-I 0 W/m 7,2 C 9,8 C 0,0 km/h (0 Bft)
16.05.2022 03:33 9,7 C 8,3 C 83 % 1016,4 hPa 0,0 l/m 0,0 km/h (0 Bft) N 0 0 min 0,0 UV-I 0 W/m 7,0 C 9,7 C 0,0 km/h (0 Bft)
16.05.2022 03:34 9,6 C 8,3 C 83 % 1016,3 hPa 0,0 l/m 0,0 km/h (0 Bft) N 0 0 min 0,0 UV-I 0 W/m 6,9 C 9,6 C 0,0 km/h (0 Bft)
16.05.2022 03:35 9,5 C 8,3 C 83 % 1016,4 hPa 0,0 l/m 0,0 km/h (0 Bft) N 0 0 min 0,0 UV-I 0 W/m 6,8 C 9,5 C 0,0 km/h (0 Bft)
16.05.2022 03:36 9,4 C 7,8 C 83 % 1016,3 hPa 0,0 l/m 0,0 km/h (0 Bft) N 0 0 min 0,0 UV-I 0 W/m 6,7 C 9,4 C 0,0 km/h (0 Bft)
16.05.2022 03:37 9,3 C 7,8 C 83 % 1016,3 hPa 0,0 l/m 0,0 km/h (0 Bft) N 0 0 min 0,0 UV-I 0 W/m 6,6 C 9,3 C 0,0 km/h (0 Bft)
16.05.2022 03:38 9,2 C 7,8 C 83 % 1016,3 hPa 0,0 l/m 0,0 km/h (0 Bft) N 0 0 min 0,0 UV-I 0 W/m 6,5 C 9,2 C 0,0 km/h (0 Bft)
16.05.2022 03:39 9,2 C 7,8 C 83 % 1016,3 hPa 0,0 l/m 0,0 km/h (0 Bft) N 0 0 min 0,0 UV-I 0 W/m 6,5 C 9,2 C 0,0 km/h (0 Bft)
16.05.2022 03:40 9,1 C 7,8 C 84 % 1016,3 hPa 0,0 l/m 0,0 km/h (0 Bft) N 0 0 min 0,0 UV-I 0 W/m 6,5 C 9,1 C 0,0 km/h (0 Bft)
16.05.2022 03:41 9,1 C 7,8 C 84 % 1016,3 hPa 0,0 l/m 0,0 km/h (0 Bft) N 0 0 min 0,0 UV-I 0 W/m 6,5 C 9,1 C 0,0 km/h (0 Bft)
16.05.2022 03:42 9,1 C 7,8 C 84 % 1016,4 hPa 0,0 l/m 0,0 km/h (0 Bft) N 0 0 min 0,0 UV-I 0 W/m 6,5 C 9,1 C 0,0 km/h (0 Bft)
16.05.2022 03:43 9,1 C 7,8 C 84 % 1016,3 hPa 0,0 l/m 0,0 km/h (0 Bft) N 0 0 min 0,0 UV-I 0 W/m 6,5 C 9,1 C 0,0 km/h (0 Bft)
16.05.2022 03:44 9,1 C 7,8 C 84 % 1016,3 hPa 0,0 l/m 0,0 km/h (0 Bft) N 0 0 min 0,0 UV-I 0 W/m 6,5 C 9,1 C 0,0 km/h (0 Bft)
16.05.2022 03:45 9,2 C 7,8 C 85 % 1016,3 hPa 0,0 l/m 0,0 km/h (0 Bft) N 0 0 min 0,0 UV-I 0 W/m 6,8 C 9,2 C 0,0 km/h (0 Bft)
16.05.2022 03:46 9,2 C 7,8 C 85 % 1016,3 hPa 0,0 l/m 0,0 km/h (0 Bft) N 0 0 min 0,0 UV-I 0 W/m 6,8 C 9,2 C 0,0 km/h (0 Bft)
16.05.2022 03:47 9,2 C 7,8 C 85 % 1016,3 hPa 0,0 l/m 0,0 km/h (0 Bft) N 0 0 min 0,0 UV-I 0 W/m 6,8 C 9,2 C 0,0 km/h (0 Bft)
16.05.2022 03:48 9,3 C 7,8 C 85 % 1016,3 hPa 0,0 l/m 0,0 km/h (0 Bft) N 0 0 min 0,0 UV-I 0 W/m 6,9 C 9,3 C 0,0 km/h (0 Bft)
16.05.2022 03:49 9,3 C 7,8 C 85 % 1016,3 hPa 0,0 l/m 0,0 km/h (0 Bft) N 0 0 min 0,0 UV-I 0 W/m 6,9 C 9,3 C 0,0 km/h (0 Bft)
16.05.2022 03:50 9,4 C 7,8 C 85 % 1016,2 hPa 0,0 l/m 0,0 km/h (0 Bft) N 0 0 min 0,0 UV-I 0 W/m 7,0 C 9,4 C 0,0 km/h (0 Bft)
16.05.2022 03:51 9,4 C 7,8 C 85 % 1016,3 hPa 0,0 l/m 0,0 km/h (0 Bft) N 0 0 min 0,0 UV-I 0 W/m 7,0 C 9,4 C 0,0 km/h (0 Bft)
16.05.2022 03:52 9,5 C 7,8 C 85 % 1016,2 hPa 0,0 l/m 0,0 km/h (0 Bft) N 0 0 min 0,0 UV-I 0 W/m 7,1 C 9,5 C 0,0 km/h (0 Bft)
16.05.2022 03:53 9,5 C 7,8 C 84 % 1016,2 hPa 0,0 l/m 0,0 km/h (0 Bft) N 0 0 min 0,0 UV-I 0 W/m 6,9 C 9,5 C 0,0 km/h (0 Bft)
16.05.2022 03:54 9,4 C 7,8 C 84 % 1016,2 hPa 0,0 l/m 0,0 km/h (0 Bft) N 0 0 min 0,0 UV-I 0 W/m 6,8 C 9,4 C 0,0 km/h (0 Bft)
16.05.2022 03:55 9,4 C 8,3 C 83 % 1016,2 hPa 0,0 l/m 0,0 km/h (0 Bft) N 0 0 min 0,0 UV-I 0 W/m 6,7 C 9,4 C 0,0 km/h (0 Bft)
16.05.2022 03:56 9,4 C 8,3 C 83 % 1016,2 hPa 0,0 l/m 0,0 km/h (0 Bft) N 0 0 min 0,0 UV-I 0 W/m 6,7 C 9,4 C 0,0 km/h (0 Bft)
16.05.2022 03:57 9,3 C 8,3 C 83 % 1016,2 hPa 0,0 l/m 0,0 km/h (0 Bft) N 0 0 min 0,0 UV-I 0 W/m 6,6 C 9,3 C 0,0 km/h (0 Bft)
16.05.2022 03:58 9,3 C 8,3 C 84 % 1016,2 hPa 0,0 l/m 0,0 km/h (0 Bft) N 0 0 min 0,0 UV-I 0 W/m 6,7 C 9,3 C 0,0 km/h (0 Bft)
16.05.2022 03:59 9,2 C 7,8 C 84 % 1016,2 hPa 0,0 l/m 0,0 km/h (0 Bft) N 0 0 min 0,0 UV-I 0 W/m 6,6 C 9,2 C 0,0 km/h (0 Bft)
16.05.2022 04:00 9,2 C 7,8 C 84 % 1016,2 hPa 0,0 l/m 0,0 km/h (0 Bft) N 0 0 min 0,0 UV-I 0 W/m 6,6 C 9,2 C 0,0 km/h (0 Bft)
16.05.2022 04:01 9,3 C 8,3 C 84 % 1016,2 hPa 0,0 l/m 0,0 km/h (0 Bft) N 0 0 min 0,0 UV-I 0 W/m 6,7 C 9,3 C 0,0 km/h (0 Bft)
16.05.2022 04:02 9,2 C 8,3 C 84 % 1016,2 hPa 0,0 l/m 0,0 km/h (0 Bft) N 0 0 min 0,0 UV-I 0 W/m 6,6 C 9,2 C 0,0 km/h (0 Bft)
16.05.2022 04:03 9,3 C 7,8 C 84 % 1016,2 hPa 0,0 l/m 0,0 km/h (0 Bft) N 0 0 min 0,0 UV-I 0 W/m 6,7 C 9,3 C 0,0 km/h (0 Bft)
16.05.2022 04:04 9,3 C 8,3 C 84 % 1016,2 hPa 0,0 l/m 0,0 km/h (0 Bft) N 0 0 min 0,0 UV-I 0 W/m 6,7 C 9,3 C 0,0 km/h (0 Bft)
16.05.2022 04:05 9,3 C 8,3 C 84 % 1016,2 hPa 0,0 l/m 0,0 km/h (0 Bft) N 0 0 min 0,0 UV-I 0 W/m 6,7 C 9,3 C 0,0 km/h (0 Bft)
16.05.2022 04:06 9,3 C 8,3 C 84 % 1016,2 hPa 0,0 l/m 0,0 km/h (0 Bft) N 0 0 min 0,0 UV-I 0 W/m 6,7 C 9,3 C 0,0 km/h (0 Bft)
16.05.2022 04:07 9,3 C 8,3 C 84 % 1016,2 hPa 0,0 l/m 0,0 km/h (0 Bft) N 0 0 min 0,0 UV-I 0 W/m 6,7 C 9,3 C 0,0 km/h (0 Bft)
16.05.2022 04:08 9,4 C 8,3 C 84 % 1016,2 hPa 0,0 l/m 0,0 km/h (0 Bft) N 0 0 min 0,0 UV-I 0 W/m 6,8 C 9,4 C 0,0 km/h (0 Bft)
16.05.2022 04:09 9,4 C 8,3 C 85 % 1016,1 hPa 0,0 l/m 0,0 km/h (0 Bft) N 0 0 min 0,0 UV-I 0 W/m 7,0 C 9,4 C 0,0 km/h (0 Bft)
16.05.2022 04:10 9,6 C 8,3 C 84 % 1016,1 hPa 0,0 l/m 0,0 km/h (0 Bft) N 0 0 min 0,0 UV-I 0 W/m 7,0 C 9,6 C 0,0 km/h (0 Bft)
16.05.2022 04:11 9,6 C 8,3 C 84 % 1016,1 hPa 0,0 l/m 0,0 km/h (0 Bft) N 0 0 min 0,0 UV-I 0 W/m 7,0 C 9,6 C 0,0 km/h (0 Bft)
16.05.2022 04:12 9,7 C 8,3 C 84 % 1016,1 hPa 0,0 l/m 0,0 km/h (0 Bft) N 0 0 min 0,0 UV-I 0 W/m 7,1 C 9,7 C 0,0 km/h (0 Bft)
16.05.2022 04:13 9,7 C 8,3 C 84 % 1016,1 hPa 0,0 l/m 0,0 km/h (0 Bft) N 0 0 min 0,0 UV-I 0 W/m 7,1 C 9,7 C 0,0 km/h (0 Bft)
16.05.2022 04:14 9,7 C 8,3 C 84 % 1016,2 hPa 0,0 l/m 0,0 km/h (0 Bft) N 0 0 min 0,0 UV-I 0 W/m 7,1 C 9,7 C 0,0 km/h (0 Bft)
16.05.2022 04:15 9,8 C 8,3 C 84 % 1016,2 hPa 0,0 l/m 0,0 km/h (0 Bft) N 0 0 min 0,0 UV-I 0 W/m 7,2 C 9,8 C 0,0 km/h (0 Bft)
16.05.2022 04:16 9,7 C 8,3 C 84 % 1016,2 hPa 0,0 l/m 0,0 km/h (0 Bft) N 0 0 min 0,0 UV-I 0 W/m 7,1 C 9,7 C 0,0 km/h (0 Bft)
16.05.2022 04:17 9,7 C 8,3 C 83 % 1016,2 hPa 0,0 l/m 0,0 km/h (0 Bft) N 0 0 min 0,0 UV-I 0 W/m 7,0 C 9,7 C 0,0 km/h (0 Bft)
16.05.2022 04:18 9,7 C 8,3 C 84 % 1016,1 hPa 0,0 l/m 0,0 km/h (0 Bft) N 0 0 min 0,0 UV-I 0 W/m 7,1 C 9,7 C 0,0 km/h (0 Bft)
16.05.2022 04:19 9,7 C 8,3 C 84 % 1016,1 hPa 0,0 l/m 0,0 km/h (0 Bft) N 0 0 min 0,0 UV-I 0 W/m 7,1 C 9,7 C 0,0 km/h (0 Bft)
16.05.2022 04:20 9,7 C 8,3 C 84 % 1016,2 hPa 0,0 l/m 0,0 km/h (0 Bft) N 0 0 min 0,0 UV-I 0 W/m 7,1 C 9,7 C 0,0 km/h (0 Bft)
16.05.2022 04:21 9,7 C 8,3 C 84 % 1016,2 hPa 0,0 l/m 0,0 km/h (0 Bft) N 0 0 min 0,0 UV-I 0 W/m 7,1 C 9,7 C 0,0 km/h (0 Bft)
16.05.2022 04:22 9,8 C 8,3 C 84 % 1016,2 hPa 0,0 l/m 0,0 km/h (0 Bft) N 0 0 min 0,0 UV-I 0 W/m 7,2 C 9,8 C 0,0 km/h (0 Bft)
16.05.2022 04:23 9,8 C 8,3 C 83 % 1016,1 hPa 0,0 l/m 0,0 km/h (0 Bft) N 0 0 min 0,0 UV-I 0 W/m 7,1 C 9,8 C 0,0 km/h (0 Bft)
16.05.2022 04:24 9,7 C 8,3 C 83 % 1016,1 hPa 0,0 l/m 0,0 km/h (0 Bft) N 0 0 min 0,0 UV-I 0 W/m 7,0 C 9,7 C 0,0 km/h (0 Bft)
16.05.2022 04:25 9,6 C 8,3 C 83 % 1016,1 hPa 0,0 l/m 0,0 km/h (0 Bft) N 0 0 min 0,0 UV-I 0 W/m 6,9 C 9,6 C 0,0 km/h (0 Bft)
16.05.2022 04:26 9,4 C 8,3 C 83 % 1016,0 hPa 0,0 l/m 0,0 km/h (0 Bft) N 0 0 min 0,0 UV-I 0 W/m 6,7 C 9,4 C 0,0 km/h (0 Bft)
16.05.2022 04:27 9,3 C 7,8 C 83 % 1016,1 hPa 0,0 l/m 0,0 km/h (0 Bft) N 0 0 min 0,0 UV-I 0 W/m 6,6 C 9,3 C 0,0 km/h (0 Bft)
16.05.2022 04:28 9,3 C 7,8 C 84 % 1016,1 hPa 0,0 l/m 0,0 km/h (0 Bft) N 0 0 min 0,0 UV-I 0 W/m 6,7 C 9,3 C 0,0 km/h (0 Bft)
16.05.2022 04:29 9,3 C 7,8 C 84 % 1016,0 hPa 0,0 l/m 0,0 km/h (0 Bft) N 0 0 min 0,0 UV-I 0 W/m 6,7 C 9,3 C 0,0 km/h (0 Bft)
16.05.2022 04:30 9,2 C 7,8 C 84 % 1016,0 hPa 0,0 l/m 0,0 km/h (0 Bft) N 0 0 min 0,0 UV-I 0 W/m 6,6 C 9,2 C 0,0 km/h (0 Bft)
16.05.2022 04:31 9,2 C 7,8 C 84 % 1015,9 hPa 0,0 l/m 0,0 km/h (0 Bft) N 0 0 min 0,0 UV-I 0 W/m 6,6 C 9,2 C 0,0 km/h (0 Bft)
16.05.2022 04:32 9,2 C 7,8 C 84 % 1015,9 hPa 0,0 l/m 0,0 km/h (0 Bft) N 0 0 min 0,0 UV-I 0 W/m 6,6 C 9,2 C 0,0 km/h (0 Bft)
16.05.2022 04:33 9,1 C 7,8 C 84 % 1015,8 hPa 0,0 l/m 0,0 km/h (0 Bft) N 0 0 min 0,0 UV-I 0 W/m 6,5 C 9,1 C 0,0 km/h (0 Bft)
16.05.2022 04:34 9,1 C 7,8 C 84 % 1015,9 hPa 0,0 l/m 0,0 km/h (0 Bft) N 0 0 min 0,0 UV-I 0 W/m 6,5 C 9,1 C 0,0 km/h (0 Bft)
16.05.2022 04:35 9,1 C 7,8 C 85 % 1016,0 hPa 0,0 l/m 0,0 km/h (0 Bft) N 0 0 min 0,0 UV-I 0 W/m 6,7 C 9,1 C 0,0 km/h (0 Bft)
16.05.2022 04:36 9,1 C 7,8 C 85 % 1015,9 hPa 0,0 l/m 0,0 km/h (0 Bft) N 0 0 min 0,0 UV-I 0 W/m 6,7 C 9,1 C 0,0 km/h (0 Bft)
16.05.2022 04:37 9,1 C 7,2 C 85 % 1016,0 hPa 0,0 l/m 0,0 km/h (0 Bft) N 0 0 min 0,0 UV-I 0 W/m 6,7 C 9,1 C 0,0 km/h (0 Bft)
16.05.2022 04:38 9,2 C 7,2 C 85 % 1015,9 hPa 0,0 l/m 0,0 km/h (0 Bft) N 0 0 min 0,0 UV-I 0 W/m 6,8 C 9,2 C 0,0 km/h (0 Bft)
16.05.2022 04:39 9,2 C 7,2 C 85 % 1015,8 hPa 0,0 l/m 0,0 km/h (0 Bft) N 0 0 min 0,0 UV-I 0 W/m 6,8 C 9,2 C 0,0 km/h (0 Bft)
16.05.2022 04:40 9,3 C 7,2 C 85 % 1015,8 hPa 0,0 l/m 0,0 km/h (0 Bft) N 0 0 min 0,0 UV-I 0 W/m 6,9 C 9,3 C 0,0 km/h (0 Bft)
16.05.2022 04:41 9,3 C 7,2 C 84 % 1015,9 hPa 0,0 l/m 0,0 km/h (0 Bft) N 0 0 min 0,0 UV-I 0 W/m 6,7 C 9,3 C 0,0 km/h (0 Bft)
16.05.2022 04:42 9,3 C 7,2 C 84 % 1015,8 hPa 0,0 l/m 0,0 km/h (0 Bft) N 0 0 min 0,0 UV-I 0 W/m 6,7 C 9,3 C 0,0 km/h (0 Bft)
16.05.2022 04:43 9,3 C 7,2 C 84 % 1015,8 hPa 0,0 l/m 0,0 km/h (0 Bft) N 0 0 min 0,0 UV-I 0 W/m 6,7 C 9,3 C 0,0 km/h (0 Bft)
16.05.2022 04:44 9,2 C 7,8 C 84 % 1015,8 hPa 0,0 l/m 0,0 km/h (0 Bft) N 0 0 min 0,0 UV-I 0 W/m 6,6 C 9,2 C 0,0 km/h (0 Bft)
16.05.2022 04:45 9,2 C 7,8 C 84 % 1015,8 hPa 0,0 l/m 0,0 km/h (0 Bft) N 0 0 min 0,0 UV-I 0 W/m 6,6 C 9,2 C 0,0 km/h (0 Bft)
16.05.2022 04:46 9,2 C 7,8 C 84 % 1015,7 hPa 0,0 l/m 0,0 km/h (0 Bft) N 0 0 min 0,0 UV-I 0 W/m 6,6 C 9,2 C 0,0 km/h (0 Bft)
16.05.2022 04:47 9,2 C 7,8 C 84 % 1015,8 hPa 0,0 l/m 0,0 km/h (0 Bft) N 0 0 min 0,0 UV-I 0 W/m 6,6 C 9,2 C 0,0 km/h (0 Bft)
16.05.2022 04:48 9,2 C 7,8 C 84 % 1015,8 hPa 0,0 l/m 0,0 km/h (0 Bft) N 0 0 min 0,0 UV-I 0 W/m 6,6 C 9,2 C 0,0 km/h (0 Bft)
16.05.2022 04:49 9,2 C 7,8 C 84 % 1015,9 hPa 0,0 l/m 0,0 km/h (0 Bft) N 0 0 min 0,0 UV-I 0 W/m 6,6 C 9,2 C 0,0 km/h (0 Bft)
16.05.2022 04:50 9,2 C 7,8 C 84 % 1015,7 hPa 0,0 l/m 0,0 km/h (0 Bft) N 0 0 min 0,0 UV-I 0 W/m 6,6 C 9,2 C 0,0 km/h (0 Bft)
16.05.2022 04:51 9,1 C 7,8 C 84 % 1015,8 hPa 0,0 l/m 0,0 km/h (0 Bft) N 0 0 min 0,0 UV-I 0 W/m 6,5 C 9,1 C 0,0 km/h (0 Bft)
16.05.2022 04:52 9,1 C 7,8 C 84 % 1015,8 hPa 0,0 l/m 0,0 km/h (0 Bft) N 0 0 min 0,0 UV-I 0 W/m 6,5 C 9,1 C 0,0 km/h (0 Bft)
16.05.2022 04:53 9,2 C 7,8 C 84 % 1015,8 hPa 0,0 l/m 0,0 km/h (0 Bft) N 0 0 min 0,0 UV-I 0 W/m 6,6 C 9,2 C 0,0 km/h (0 Bft)
16.05.2022 04:54 9,2 C 7,8 C 84 % 1015,8 hPa 0,0 l/m 0,0 km/h (0 Bft) N 0 0 min 0,0 UV-I 0 W/m 6,6 C 9,2 C 0,0 km/h (0 Bft)
16.05.2022 04:55 9,2 C 7,8 C 84 % 1015,7 hPa 0,0 l/m 0,0 km/h (0 Bft) N 0 0 min 0,0 UV-I 0 W/m 6,6 C 9,2 C 0,0 km/h (0 Bft)
16.05.2022 04:56 9,3 C 7,8 C 84 % 1015,7 hPa 0,0 l/m 0,0 km/h (0 Bft) N 0 0 min 0,0 UV-I 0 W/m 6,7 C 9,3 C 0,0 km/h (0 Bft)
16.05.2022 04:57 9,3 C 7,8 C 84 % 1015,7 hPa 0,0 l/m 0,0 km/h (0 Bft) N 0 0 min 0,0 UV-I 0 W/m 6,7 C 9,3 C 0,0 km/h (0 Bft)
16.05.2022 04:58 9,3 C 8,3 C 84 % 1015,7 hPa 0,0 l/m 0,0 km/h (0 Bft) N 0 0 min 0,0 UV-I 0 W/m 6,7 C 9,3 C 0,0 km/h (0 Bft)
16.05.2022 04:59 9,4 C 8,3 C 84 % 1015,7 hPa 0,0 l/m 0,0 km/h (0 Bft) N 0 0 min 0,0 UV-I 0 W/m 6,8 C 9,4 C 0,0 km/h (0 Bft)
16.05.2022 05:00 9,4 C 8,3 C 84 % 1015,7 hPa 0,0 l/m 0,0 km/h (0 Bft) N 0 0 min 0,0 UV-I 0 W/m 6,8 C 9,4 C 0,0 km/h (0 Bft)
16.05.2022 05:01 9,4 C 8,3 C 84 % 1015,7 hPa 0,0 l/m 0,0 km/h (0 Bft) N 0 0 min 0,0 UV-I 0 W/m 6,8 C 9,4 C 0,0 km/h (0 Bft)
16.05.2022 05:02 9,4 C 8,3 C 84 % 1015,7 hPa 0,0 l/m 0,0 km/h (0 Bft) N 0 0 min 0,0 UV-I 0 W/m 6,8 C 9,4 C 0,0 km/h (0 Bft)
16.05.2022 05:03 9,5 C 8,3 C 84 % 1015,7 hPa 0,0 l/m 0,0 km/h (0 Bft) N 0 0 min 0,0 UV-I 0 W/m 6,9 C 9,5 C 0,0 km/h (0 Bft)
16.05.2022 05:04 9,6 C 8,3 C 84 % 1015,6 hPa 0,0 l/m 0,0 km/h (0 Bft) N 0 0 min 0,0 UV-I 0 W/m 7,0 C 9,6 C 0,0 km/h (0 Bft)
16.05.2022 05:05 9,6 C 8,3 C 84 % 1015,6 hPa 0,0 l/m 0,0 km/h (0 Bft) N 0 0 min 0,0 UV-I 0 W/m 7,0 C 9,6 C 0,0 km/h (0 Bft)
16.05.2022 05:06 9,6 C 8,3 C 84 % 1015,6 hPa 0,0 l/m 0,0 km/h (0 Bft) N 0 0 min 0,0 UV-I 0 W/m 7,0 C 9,6 C 0,0 km/h (0 Bft)
16.05.2022 05:07 9,7 C 8,3 C 84 % 1015,7 hPa 0,0 l/m 0,0 km/h (0 Bft) N 0 0 min 0,0 UV-I 0 W/m 7,1 C 9,7 C 0,0 km/h (0 Bft)
16.05.2022 05:08 9,7 C 8,3 C 84 % 1015,6 hPa 0,0 l/m 0,0 km/h (0 Bft) N 0 0 min 0,0 UV-I 0 W/m 7,1 C 9,7 C 0,0 km/h (0 Bft)
16.05.2022 05:09 9,6 C 8,9 C 84 % 1015,6 hPa 0,0 l/m 0,0 km/h (0 Bft) N 0 0 min 0,0 UV-I 0 W/m 7,0 C 9,6 C 0,0 km/h (0 Bft)
16.05.2022 05:10 9,6 C 8,9 C 84 % 1015,6 hPa 0,0 l/m 0,0 km/h (0 Bft) N 0 0 min 0,0 UV-I 0 W/m 7,0 C 9,6 C 0,0 km/h (0 Bft)
16.05.2022 05:11 9,6 C 8,9 C 84 % 1015,5 hPa 0,0 l/m 0,0 km/h (0 Bft) N 0 0 min 0,0 UV-I 0 W/m 7,0 C 9,6 C 0,0 km/h (0 Bft)
16.05.2022 05:12 9,7 C 8,9 C 84 % 1015,5 hPa 0,0 l/m 0,0 km/h (0 Bft) N 0 0 min 0,0 UV-I 0 W/m 7,1 C 9,7 C 0,0 km/h (0 Bft)
16.05.2022 05:13 9,7 C 8,9 C 84 % 1015,5 hPa 0,0 l/m 0,0 km/h (0 Bft) N 0 0 min 0,0 UV-I 0 W/m 7,1 C 9,7 C 0,0 km/h (0 Bft)
16.05.2022 05:14 9,7 C 8,9 C 84 % 1015,5 hPa 0,0 l/m 0,0 km/h (0 Bft) N 0 0 min 0,0 UV-I 0 W/m 7,1 C 9,7 C 0,0 km/h (0 Bft)
16.05.2022 05:15 9,7 C 8,9 C 84 % 1015,4 hPa 0,0 l/m 0,0 km/h (0 Bft) N 0 0 min 0,0 UV-I 0 W/m 7,1 C 9,7 C 0,0 km/h (0 Bft)
16.05.2022 05:16 9,6 C 8,9 C 84 % 1015,5 hPa 0,0 l/m 0,0 km/h (0 Bft) N 0 0 min 0,0 UV-I 0 W/m 7,0 C 9,6 C 0,0 km/h (0 Bft)
16.05.2022 05:17 9,6 C 8,9 C 84 % 1015,5 hPa 0,0 l/m 0,0 km/h (0 Bft) N 0 0 min 0,0 UV-I 0 W/m 7,0 C 9,6 C 0,0 km/h (0 Bft)
16.05.2022 05:18 9,5 C 8,9 C 84 % 1015,5 hPa 0,0 l/m 0,0 km/h (0 Bft) N 0 0 min 0,0 UV-I 0 W/m 6,9 C 9,5 C 0,0 km/h (0 Bft)
16.05.2022 05:19 9,5 C 8,9 C 84 % 1015,4 hPa 0,0 l/m 0,0 km/h (0 Bft) N 0 0 min 0,0 UV-I 0 W/m 6,9 C 9,5 C 0,0 km/h (0 Bft)
16.05.2022 05:20 9,6 C 8,9 C 84 % 1015,4 hPa 0,0 l/m 0,0 km/h (0 Bft) N 0 0 min 0,0 UV-I 0 W/m 7,0 C 9,6 C 0,0 km/h (0 Bft)
16.05.2022 05:21 9,6 C 8,9 C 84 % 1015,5 hPa 0,0 l/m 0,0 km/h (0 Bft) N 0 0 min 0,0 UV-I 0 W/m 7,0 C 9,6 C 0,0 km/h (0 Bft)
16.05.2022 05:22 9,6 C 8,9 C 84 % 1015,5 hPa 0,0 l/m 0,0 km/h (0 Bft) N 0 0 min 0,0 UV-I 0 W/m 7,0 C 9,6 C 0,0 km/h (0 Bft)
16.05.2022 05:23 9,7 C 8,9 C 84 % 1015,4 hPa 0,0 l/m 0,0 km/h (0 Bft) N 0 0 min 0,0 UV-I 0 W/m 7,1 C 9,7 C 0,0 km/h (0 Bft)
16.05.2022 05:24 9,7 C 8,9 C 84 % 1015,4 hPa 0,0 l/m 0,0 km/h (0 Bft) N 0 0 min 0,0 UV-I 0 W/m 7,1 C 9,7 C 0,0 km/h (0 Bft)
16.05.2022 05:25 9,8 C 8,9 C 85 % 1015,4 hPa 0,0 l/m 0,0 km/h (0 Bft) N 0 0 min 0,0 UV-I 0 W/m 7,4 C 9,8 C 0,0 km/h (0 Bft)
16.05.2022 05:26 9,9 C 8,9 C 84 % 1015,4 hPa 0,0 l/m 0,0 km/h (0 Bft) N 0 0 min 0,0 UV-I 0 W/m 7,3 C 9,9 C 0,0 km/h (0 Bft)
16.05.2022 05:27 9,9 C 9,4 C 84 % 1015,4 hPa 0,0 l/m 0,0 km/h (0 Bft) N 0 0 min 0,0 UV-I 0 W/m 7,3 C 9,9 C 0,0 km/h (0 Bft)
16.05.2022 05:28 10,1 C 9,4 C 84 % 1015,3 hPa 0,0 l/m 0,0 km/h (0 Bft) N 0 0 min 0,0 UV-I 0 W/m 7,5 C 10,1 C 0,0 km/h (0 Bft)
16.05.2022 05:29 10,1 C 9,4 C 84 % 1015,4 hPa 0,0 l/m 0,0 km/h (0 Bft) N 0 0 min 0,0 UV-I 0 W/m 7,5 C 10,1 C 0,0 km/h (0 Bft)
16.05.2022 05:30 10,1 C 9,4 C 84 % 1015,4 hPa 0,0 l/m 0,0 km/h (0 Bft) N 0 0 min 0,0 UV-I 0 W/m 7,5 C 10,1 C 0,0 km/h (0 Bft)
16.05.2022 05:31 10,1 C 9,4 C 84 % 1015,4 hPa 0,0 l/m 0,0 km/h (0 Bft) N 0 0 min 0,0 UV-I 0 W/m 7,5 C 10,1 C 0,0 km/h (0 Bft)
16.05.2022 05:32 10,1 C 9,4 C 84 % 1015,4 hPa 0,0 l/m 0,0 km/h (0 Bft) N 0 0 min 0,0 UV-I 0 W/m 7,5 C 10,1 C 0,0 km/h (0 Bft)
16.05.2022 05:33 10,1 C 9,4 C 84 % 1015,4 hPa 0,0 l/m 0,0 km/h (0 Bft) N 0 0 min 0,0 UV-I 0 W/m 7,5 C 10,1 C 0,0 km/h (0 Bft)
16.05.2022 05:34 10,1 C 9,4 C 84 % 1015,3 hPa 0,0 l/m 0,0 km/h (0 Bft) N 0 0 min 0,0 UV-I 0 W/m 7,5 C 10,1 C 0,0 km/h (0 Bft)
16.05.2022 05:35 10,1 C 9,4 C 84 % 1015,4 hPa 0,0 l/m 0,0 km/h (0 Bft) N 0 0 min 0,0 UV-I 0 W/m 7,5 C 10,1 C 0,0 km/h (0 Bft)
16.05.2022 05:36 10,1 C 9,4 C 84 % 1015,4 hPa 0,0 l/m 0,0 km/h (0 Bft) N 0 0 min 0,0 UV-I 0 W/m 7,5 C 10,1 C 0,0 km/h (0 Bft)
16.05.2022 05:37 10,2 C 9,4 C 84 % 1015,3 hPa 0,0 l/m 0,0 km/h (0 Bft) N 0 0 min 0,0 UV-I 0 W/m 7,6 C 10,2 C 0,0 km/h (0 Bft)
16.05.2022 05:38 10,2 C 9,4 C 84 % 1015,3 hPa 0,0 l/m 0,0 km/h (0 Bft) N 0 0 min 0,0 UV-I 0 W/m 7,6 C 10,2 C 0,0 km/h (0 Bft)
16.05.2022 05:39 10,2 C 9,4 C 84 % 1015,4 hPa 0,0 l/m 0,0 km/h (0 Bft) N 0 0 min 0,0 UV-I 0 W/m 7,6 C 10,2 C 0,0 km/h (0 Bft)
16.05.2022 05:40 10,2 C 9,4 C 84 % 1015,4 hPa 0,0 l/m 0,0 km/h (0 Bft) N 0 0 min 0,0 UV-I 0 W/m 7,6 C 10,2 C 0,0 km/h (0 Bft)
16.05.2022 05:41 10,2 C 9,4 C 84 % 1015,3 hPa 0,0 l/m 0,0 km/h (0 Bft) N 0 0 min 0,0 UV-I 0 W/m 7,6 C 10,2 C 0,0 km/h (0 Bft)
16.05.2022 05:42 10,1 C 9,4 C 84 % 1015,3 hPa 0,0 l/m 0,0 km/h (0 Bft) N 0 0 min 0,0 UV-I 0 W/m 7,5 C 10,1 C 0,0 km/h (0 Bft)
16.05.2022 05:43 10,2 C 9,4 C 84 % 1015,3 hPa 0,0 l/m 0,0 km/h (0 Bft) N 0 0 min 0,0 UV-I 0 W/m 7,6 C 10,2 C 0,0 km/h (0 Bft)
16.05.2022 05:44 10,2 C 9,4 C 84 % 1015,3 hPa 0,0 l/m 0,0 km/h (0 Bft) N 0 0 min 0,0 UV-I 0 W/m 7,6 C 10,2 C 0,0 km/h (0 Bft)
16.05.2022 05:45 10,2 C 9,4 C 84 % 1015,3 hPa 0,0 l/m 0,0 km/h (0 Bft) N 0 0 min 0,0 UV-I 0 W/m 7,6 C 10,2 C 0,0 km/h (0 Bft)
16.05.2022 05:46 10,2 C 9,4 C 84 % 1015,3 hPa 0,0 l/m 0,0 km/h (0 Bft) N 0 0 min 0,0 UV-I 0 W/m 7,6 C 10,2 C 0,0 km/h (0 Bft)
16.05.2022 05:47 10,2 C 9,4 C 84 % 1015,3 hPa 0,0 l/m 0,0 km/h (0 Bft) N 0 0 min 0,0 UV-I 0 W/m 7,6 C 10,2 C 0,0 km/h (0 Bft)
16.05.2022 05:48 10,3 C 9,4 C 85 % 1015,3 hPa 0,0 l/m 0,0 km/h (0 Bft) N 0 0 min 0,0 UV-I 0 W/m 7,9 C 10,3 C 0,0 km/h (0 Bft)
16.05.2022 05:49 10,3 C 10,0 C 84 % 1015,3 hPa 0,0 l/m 0,0 km/h (0 Bft) N 0 0 min 0,0 UV-I 0 W/m 7,7 C 10,3 C 0,0 km/h (0 Bft)
16.05.2022 05:50 10,3 C 10,0 C 84 % 1015,3 hPa 0,0 l/m 0,0 km/h (0 Bft) N 0 0 min 0,0 UV-I 0 W/m 7,7 C 10,3 C 0,0 km/h (0 Bft)
16.05.2022 05:51 10,3 C 10,0 C 84 % 1015,2 hPa 0,0 l/m 0,0 km/h (0 Bft) N 0 0 min 0,0 UV-I 0 W/m 7,7 C 10,3 C 0,0 km/h (0 Bft)
16.05.2022 05:52 10,3 C 10,0 C 84 % 1015,2 hPa 0,0 l/m 0,0 km/h (0 Bft) N 0 0 min 0,0 UV-I 0 W/m 7,7 C 10,3 C 0,0 km/h (0 Bft)
16.05.2022 05:53 10,3 C 10,0 C 84 % 1015,1 hPa 0,0 l/m 0,0 km/h (0 Bft) N 0 0 min 0,0 UV-I 0 W/m 7,7 C 10,3 C 0,0 km/h (0 Bft)
16.05.2022 05:54 10,3 C 10,0 C 84 % 1015,1 hPa 0,0 l/m 0,0 km/h (0 Bft) N 0 0 min 0,0 UV-I 0 W/m 7,7 C 10,3 C 0,0 km/h (0 Bft)
16.05.2022 05:55 10,3 C 10,0 C 84 % 1015,0 hPa 0,0 l/m 0,0 km/h (0 Bft) N 0 0 min 0,0 UV-I 0 W/m 7,7 C 10,3 C 0,0 km/h (0 Bft)
16.05.2022 05:56 10,3 C 10,0 C 84 % 1015,1 hPa 0,0 l/m 0,0 km/h (0 Bft) N 0 0 min 0,0 UV-I 0 W/m 7,7 C 10,3 C 0,0 km/h (0 Bft)
16.05.2022 05:57 10,3 C 10,0 C 84 % 1015,0 hPa 0,0 l/m 0,0 km/h (0 Bft) N 0 0 min 0,0 UV-I 5 W/m 7,7 C 10,3 C 0,0 km/h (0 Bft)
16.05.2022 05:58 10,4 C 10,0 C 85 % 1014,9 hPa 0,0 l/m 0,0 km/h (0 Bft) N 0 0 min 0,0 UV-I 5 W/m 8,0 C 10,4 C 0,0 km/h (0 Bft)
16.05.2022 05:59 10,4 C 10,0 C 85 % 1015,0 hPa 0,0 l/m 0,0 km/h (0 Bft) N 0 0 min 0,0 UV-I 5 W/m 8,0 C 10,4 C 0,0 km/h (0 Bft)
16.05.2022 06:00 10,6 C 10,0 C 85 % 1015,0 hPa 0,0 l/m 0,0 km/h (0 Bft) N 0 0 min 0,0 UV-I 5 W/m 8,2 C 10,6 C 0,0 km/h (0 Bft)
16.05.2022 06:01 10,5 C 10,0 C 84 % 1015,2 hPa 0,0 l/m 0,0 km/h (0 Bft) N 0 0 min 0,0 UV-I 5 W/m 7,9 C 10,5 C 0,0 km/h (0 Bft)
16.05.2022 06:02 10,5 C 10,0 C 84 % 1015,3 hPa 0,0 l/m 0,0 km/h (0 Bft) N 0 0 min 0,0 UV-I 5 W/m 7,9 C 10,5 C 0,0 km/h (0 Bft)
16.05.2022 06:03 10,4 C 10,0 C 84 % 1015,4 hPa 0,0 l/m 0,0 km/h (0 Bft) N 0 0 min 0,0 UV-I 5 W/m 7,8 C 10,4 C 0,0 km/h (0 Bft)
16.05.2022 06:04 10,4 C 10,0 C 84 % 1015,3 hPa 0,0 l/m 0,0 km/h (0 Bft) N 0 0 min 0,0 UV-I 5 W/m 7,8 C 10,4 C 0,0 km/h (0 Bft)
16.05.2022 06:05 10,4 C 10,0 C 84 % 1015,3 hPa 0,0 l/m 0,0 km/h (0 Bft) N 0 0 min 0,0 UV-I 5 W/m 7,8 C 10,4 C 0,0 km/h (0 Bft)
16.05.2022 06:06 10,4 C 10,0 C 85 % 1015,1 hPa 0,0 l/m 0,0 km/h (0 Bft) N 0 0 min 0,0 UV-I 5 W/m 8,0 C 10,4 C 0,0 km/h (0 Bft)
16.05.2022 06:07 10,5 C 10,0 C 85 % 1015,1 hPa 0,0 l/m 0,0 km/h (0 Bft) N 0 0 min 0,0 UV-I 7 W/m 8,1 C 10,5 C 0,0 km/h (0 Bft)
16.05.2022 06:08 10,6 C 10,0 C 85 % 1015,0 hPa 0,0 l/m 0,0 km/h (0 Bft) N 0 0 min 0,0 UV-I 7 W/m 8,2 C 10,6 C 0,0 km/h (0 Bft)
16.05.2022 06:09 10,6 C 10,0 C 85 % 1014,9 hPa 0,0 l/m 0,0 km/h (0 Bft) N 0 0 min 0,0 UV-I 7 W/m 8,2 C 10,6 C 0,0 km/h (0 Bft)
16.05.2022 06:10 10,7 C 10,6 C 85 % 1015,0 hPa 0,0 l/m 0,0 km/h (0 Bft) N 0 0 min 0,0 UV-I 7 W/m 8,3 C 10,7 C 0,0 km/h (0 Bft)
16.05.2022 06:11 10,7 C 10,6 C 84 % 1015,2 hPa 0,0 l/m 0,0 km/h (0 Bft) N 0 0 min 0,0 UV-I 7 W/m 8,1 C 10,7 C 0,0 km/h (0 Bft)
16.05.2022 06:12 10,8 C 10,6 C 84 % 1015,2 hPa 0,0 l/m 0,0 km/h (0 Bft) N 0 0 min 0,0 UV-I 7 W/m 8,2 C 10,8 C 0,0 km/h (0 Bft)
16.05.2022 06:13 10,7 C 10,6 C 83 % 1015,2 hPa 0,0 l/m 0,0 km/h (0 Bft) N 0 0 min 0,0 UV-I 7 W/m 7,9 C 10,7 C 0,0 km/h (0 Bft)
16.05.2022 06:14 10,7 C 10,0 C 83 % 1015,2 hPa 0,0 l/m 0,0 km/h (0 Bft) N 0 0 min 0,0 UV-I 5 W/m 7,9 C 10,7 C 0,0 km/h (0 Bft)
16.05.2022 06:15 10,7 C 10,0 C 84 % 1015,1 hPa 0,0 l/m 0,0 km/h (0 Bft) N 0 0 min 0,0 UV-I 5 W/m 8,1 C 10,7 C 0,0 km/h (0 Bft)
16.05.2022 06:16 10,7 C 10,6 C 84 % 1015,2 hPa 0,0 l/m 0,0 km/h (0 Bft) N 0 0 min 0,0 UV-I 5 W/m 8,1 C 10,7 C 0,0 km/h (0 Bft)
16.05.2022 06:17 10,8 C 10,6 C 84 % 1015,1 hPa 0,0 l/m 0,0 km/h (0 Bft) N 0 0 min 0,0 UV-I 0 W/m 8,2 C 10,8 C 0,0 km/h (0 Bft)
16.05.2022 06:18 10,8 C 10,6 C 84 % 1015,2 hPa 0,0 l/m 0,0 km/h (0 Bft) N 0 0 min 0,0 UV-I 0 W/m 8,2 C 10,8 C 0,0 km/h (0 Bft)
16.05.2022 06:19 10,8 C 10,6 C 84 % 1015,2 hPa 0,0 l/m 0,0 km/h (0 Bft) N 0 0 min 0,0 UV-I 0 W/m 8,2 C 10,8 C 0,0 km/h (0 Bft)
16.05.2022 06:20 10,8 C 10,6 C 84 % 1015,2 hPa 0,0 l/m 0,0 km/h (0 Bft) N 0 0 min 0,0 UV-I 0 W/m 8,2 C 10,8 C 0,0 km/h (0 Bft)
16.05.2022 06:21 10,9 C 10,6 C 84 % 1015,3 hPa 0,0 l/m 0,0 km/h (0 Bft) N 0 0 min 0,0 UV-I 0 W/m 8,3 C 10,9 C 0,0 km/h (0 Bft)
16.05.2022 06:22 11,0 C 10,6 C 83 % 1015,3 hPa 0,0 l/m 0,0 km/h (0 Bft) N 0 0 min 0,0 UV-I 0 W/m 8,2 C 11,0 C 0,0 km/h (0 Bft)
16.05.2022 06:23 11,0 C 10,6 C 83 % 1015,2 hPa 0,0 l/m 0,0 km/h (0 Bft) N 0 0 min 0,0 UV-I 0 W/m 8,2 C 11,0 C 0,0 km/h (0 Bft)
16.05.2022 06:24 11,1 C 10,6 C 83 % 1015,2 hPa 0,0 l/m 0,0 km/h (0 Bft) N 0 0 min 0,0 UV-I 0 W/m 8,3 C 11,1 C 0,0 km/h (0 Bft)
16.05.2022 06:25 11,1 C 10,6 C 83 % 1015,2 hPa 0,0 l/m 0,0 km/h (0 Bft) N 0 0 min 0,0 UV-I 0 W/m 8,3 C 11,1 C 0,0 km/h (0 Bft)
16.05.2022 06:26 11,1 C 10,6 C 83 % 1015,5 hPa 0,0 l/m 0,0 km/h (0 Bft) N 0 0 min 0,0 UV-I 0 W/m 8,3 C 11,1 C 0,0 km/h (0 Bft)
16.05.2022 06:27 11,1 C 10,6 C 83 % 1015,6 hPa 0,0 l/m 0,0 km/h (0 Bft) N 0 0 min 0,0 UV-I 0 W/m 8,3 C 11,1 C 0,0 km/h (0 Bft)
16.05.2022 06:28 11,0 C 10,6 C 83 % 1015,7 hPa 0,0 l/m 0,0 km/h (0 Bft) N 0 0 min 0,0 UV-I 0 W/m 8,2 C 11,0 C 0,0 km/h (0 Bft)
16.05.2022 06:29 11,0 C 10,6 C 83 % 1015,6 hPa 0,0 l/m 0,0 km/h (0 Bft) N 0 0 min 0,0 UV-I 0 W/m 8,2 C 11,0 C 0,0 km/h (0 Bft)
16.05.2022 06:30 10,9 C 10,6 C 83 % 1015,5 hPa 0,0 l/m 0,0 km/h (0 Bft) N 0 0 min 0,0 UV-I 0 W/m 8,1 C 10,9 C 0,0 km/h (0 Bft)
16.05.2022 06:31 10,9 C 10,6 C 83 % 1015,5 hPa 0,0 l/m 0,0 km/h (0 Bft) N 0 0 min 0,0 UV-I 0 W/m 8,1 C 10,9 C 0,0 km/h (0 Bft)
16.05.2022 06:32 11,1 C 10,6 C 83 % 1015,7 hPa 0,0 l/m 0,0 km/h (0 Bft) N 0 0 min 0,0 UV-I 0 W/m 8,3 C 11,1 C 0,0 km/h (0 Bft)
16.05.2022 06:33 11,2 C 10,6 C 84 % 1015,7 hPa 0,0 l/m 0,0 km/h (0 Bft) N 0 0 min 0,0 UV-I 0 W/m 8,6 C 11,2 C 0,0 km/h (0 Bft)
16.05.2022 06:34 11,3 C 10,6 C 84 % 1015,5 hPa 0,0 l/m 0,0 km/h (0 Bft) N 0 0 min 0,0 UV-I 0 W/m 8,7 C 11,3 C 0,0 km/h (0 Bft)
16.05.2022 06:35 11,3 C 11,1 C 84 % 1015,3 hPa 0,0 l/m 0,0 km/h (0 Bft) N 0 0 min 0,0 UV-I 0 W/m 8,7 C 11,3 C 0,0 km/h (0 Bft)
16.05.2022 06:36 11,4 C 11,1 C 83 % 1015,4 hPa 0,0 l/m 0,0 km/h (0 Bft) N 0 0 min 0,0 UV-I 0 W/m 8,6 C 11,4 C 0,0 km/h (0 Bft)
16.05.2022 06:37 11,6 C 11,1 C 83 % 1015,6 hPa 0,0 l/m 0,0 km/h (0 Bft) N 0 0 min 0,0 UV-I 0 W/m 8,8 C 11,6 C 0,0 km/h (0 Bft)
16.05.2022 06:38 11,7 C 11,1 C 83 % 1015,4 hPa 0,0 l/m 0,0 km/h (0 Bft) N 0 0 min 0,0 UV-I 0 W/m 8,9 C 11,7 C 0,0 km/h (0 Bft)
16.05.2022 06:39 11,7 C 11,1 C 82 % 1015,6 hPa 0,0 l/m 0,0 km/h (0 Bft) N 0 0 min 0,0 UV-I 0 W/m 8,7 C 11,7 C 0,0 km/h (0 Bft)
16.05.2022 06:40 11,6 C 11,1 C 82 % 1015,4 hPa 0,0 l/m 0,0 km/h (0 Bft) N 0 0 min 0,0 UV-I 0 W/m 8,6 C 11,6 C 0,0 km/h (0 Bft)
16.05.2022 06:41 11,6 C 11,1 C 82 % 1015,5 hPa 0,0 l/m 0,0 km/h (0 Bft) N 0 0 min 0,0 UV-I 5 W/m 8,6 C 11,6 C 0,0 km/h (0 Bft)
16.05.2022 06:42 11,4 C 11,1 C 82 % 1015,5 hPa 0,0 l/m 0,0 km/h (0 Bft) N 0 0 min 0,0 UV-I 5 W/m 8,4 C 11,4 C 0,0 km/h (0 Bft)
16.05.2022 06:43 11,3 C 11,1 C 82 % 1015,6 hPa 0,0 l/m 0,0 km/h (0 Bft) N 0 0 min 0,0 UV-I 5 W/m 8,3 C 11,3 C 0,0 km/h (0 Bft)
16.05.2022 06:44 11,3 C 11,1 C 82 % 1015,4 hPa 0,0 l/m 0,0 km/h (0 Bft) N 0 0 min 0,0 UV-I 6 W/m 8,3 C 11,3 C 0,0 km/h (0 Bft)
16.05.2022 06:45 11,3 C 11,1 C 82 % 1015,5 hPa 0,0 l/m 0,0 km/h (0 Bft) N 0 0 min 0,0 UV-I 7 W/m 8,3 C 11,3 C 0,0 km/h (0 Bft)
16.05.2022 06:46 11,3 C 11,1 C 82 % 1015,4 hPa 0,0 l/m 0,0 km/h (0 Bft) N 0 0 min 0,0 UV-I 9 W/m 8,3 C 11,3 C 0,0 km/h (0 Bft)
16.05.2022 06:47 11,3 C 11,1 C 83 % 1015,4 hPa 0,0 l/m 0,0 km/h (0 Bft) N 0 0 min 0,0 UV-I 9 W/m 8,5 C 11,3 C 0,0 km/h (0 Bft)
16.05.2022 06:48 11,4 C 11,1 C 83 % 1015,4 hPa 0,0 l/m 0,0 km/h (0 Bft) N 0 0 min 0,0 UV-I 9 W/m 8,6 C 11,4 C 0,0 km/h (0 Bft)
16.05.2022 06:49 11,5 C 11,1 C 83 % 1015,4 hPa 0,0 l/m 0,0 km/h (0 Bft) N 0 0 min 0,0 UV-I 9 W/m 8,7 C 11,5 C 0,0 km/h (0 Bft)
16.05.2022 06:50 11,6 C 11,1 C 83 % 1015,6 hPa 0,0 l/m 0,0 km/h (0 Bft) N 0 0 min 0,0 UV-I 11 W/m 8,8 C 11,6 C 0,0 km/h (0 Bft)
16.05.2022 06:51 11,7 C 11,1 C 83 % 1015,6 hPa 0,0 l/m 0,0 km/h (0 Bft) N 0 0 min 0,0 UV-I 11 W/m 8,9 C 11,7 C 0,0 km/h (0 Bft)
16.05.2022 06:52 11,7 C 11,1 C 83 % 1015,5 hPa 0,0 l/m 0,0 km/h (0 Bft) N 0 0 min 0,0 UV-I 11 W/m 8,9 C 11,7 C 0,0 km/h (0 Bft)
16.05.2022 06:53 11,7 C 11,1 C 83 % 1015,5 hPa 0,0 l/m 0,0 km/h (0 Bft) N 0 0 min 0,0 UV-I 11 W/m 8,9 C 11,7 C 0,0 km/h (0 Bft)
16.05.2022 06:54 11,8 C 11,1 C 83 % 1015,4 hPa 0,0 l/m 0,0 km/h (0 Bft) N 0 0 min 0,0 UV-I 11 W/m 9,0 C 11,8 C 0,0 km/h (0 Bft)
16.05.2022 06:55 11,8 C 11,1 C 83 % 1015,5 hPa 0,0 l/m 0,0 km/h (0 Bft) N 0 0 min 0,0 UV-I 12 W/m 9,0 C 11,8 C 0,0 km/h (0 Bft)
16.05.2022 06:56 11,9 C 11,1 C 83 % 1015,7 hPa 0,0 l/m 0,0 km/h (0 Bft) N 0 0 min 0,0 UV-I 12 W/m 9,1 C 11,9 C 0,0 km/h (0 Bft)
16.05.2022 06:57 12,2 C 11,7 C 83 % 1015,7 hPa 0,0 l/m 0,0 km/h (0 Bft) N 0 0 min 0,0 UV-I 14 W/m 9,4 C 12,2 C 0,0 km/h (0 Bft)
16.05.2022 06:58 12,3 C 11,7 C 83 % 1015,6 hPa 0,0 l/m 0,0 km/h (0 Bft) N 0 0 min 0,0 UV-I 16 W/m 9,5 C 12,3 C 0,0 km/h (0 Bft)
16.05.2022 06:59 12,4 C 11,7 C 82 % 1015,5 hPa 0,0 l/m 0,0 km/h (0 Bft) N 0 0 min 0,0 UV-I 18 W/m 9,4 C 12,4 C 0,0 km/h (0 Bft)
16.05.2022 07:00 12,4 C 11,7 C 81 % 1015,5 hPa 0,0 l/m 0,0 km/h (0 Bft) N 0 0 min 0,0 UV-I 19 W/m 9,2 C 12,4 C 0,0 km/h (0 Bft)
16.05.2022 07:01 12,4 C 11,7 C 81 % 1015,6 hPa 0,0 l/m 0,0 km/h (0 Bft) N 0 0 min 0,0 UV-I 22 W/m 9,2 C 12,4 C 0,0 km/h (0 Bft)
16.05.2022 07:02 12,3 C 11,7 C 81 % 1015,6 hPa 0,0 l/m 0,0 km/h (0 Bft) N 0 0 min 0,0 UV-I 26 W/m 9,1 C 12,3 C 0,0 km/h (0 Bft)
16.05.2022 07:03 12,3 C 11,7 C 81 % 1015,6 hPa 0,0 l/m 0,0 km/h (0 Bft) N 0 0 min 0,0 UV-I 28 W/m 9,1 C 12,3 C 0,0 km/h (0 Bft)
16.05.2022 07:04 12,2 C 12,2 C 81 % 1015,5 hPa 0,0 l/m 0,0 km/h (0 Bft) N 0 0 min 0,0 UV-I 30 W/m 9,0 C 12,2 C 0,0 km/h (0 Bft)
16.05.2022 07:05 12,2 C 12,2 C 82 % 1015,6 hPa 0,0 l/m 0,0 km/h (0 Bft) N 0 0 min 0,0 UV-I 32 W/m 9,2 C 12,2 C 0,0 km/h (0 Bft)
16.05.2022 07:06 12,3 C 12,2 C 82 % 1015,6 hPa 0,0 l/m 0,0 km/h (0 Bft) N 0 0 min 0,0 UV-I 33 W/m 9,3 C 12,3 C 0,0 km/h (0 Bft)
16.05.2022 07:07 12,2 C 12,2 C 82 % 1015,7 hPa 0,0 l/m 0,0 km/h (0 Bft) N 0 0 min 0,0 UV-I 38 W/m 9,2 C 12,2 C 0,0 km/h (0 Bft)
16.05.2022 07:08 12,2 C 12,2 C 83 % 1015,7 hPa 0,0 l/m 0,0 km/h (0 Bft) N 0 0 min 0,0 UV-I 40 W/m 9,4 C 12,2 C 0,0 km/h (0 Bft)
16.05.2022 07:09 12,2 C 12,2 C 83 % 1015,7 hPa 0,0 l/m 0,0 km/h (0 Bft) N 0 0 min 0,0 UV-I 42 W/m 9,4 C 12,2 C 0,0 km/h (0 Bft)
16.05.2022 07:10 12,2 C 12,2 C 82 % 1015,7 hPa 0,0 l/m 0,0 km/h (0 Bft) N 0 0 min 0,0 UV-I 47 W/m 9,2 C 12,2 C 0,0 km/h (0 Bft)
16.05.2022 07:11 12,2 C 12,2 C 82 % 1015,6 hPa 0,0 l/m 0,0 km/h (0 Bft) N 0 0 min 0,0 UV-I 53 W/m 9,2 C 12,2 C 0,0 km/h (0 Bft)
16.05.2022 07:12 12,3 C 12,2 C 83 % 1015,7 hPa 0,0 l/m 0,0 km/h (0 Bft) N 0 0 min 0,0 UV-I 62 W/m 9,5 C 12,3 C 0,0 km/h (0 Bft)
16.05.2022 07:13 12,4 C 12,8 C 83 % 1015,6 hPa 0,0 l/m 0,0 km/h (0 Bft) N 0 0 min 0,0 UV-I 77 W/m 9,6 C 12,4 C 0,0 km/h (0 Bft)
16.05.2022 07:14 12,6 C 12,8 C 82 % 1015,6 hPa 0,0 l/m 0,0 km/h (0 Bft) N 0 0 min 0,0 UV-I 90 W/m 9,6 C 12,6 C 0,0 km/h (0 Bft)
16.05.2022 07:15 12,7 C 12,8 C 82 % 1015,7 hPa 0,0 l/m 0,0 km/h (0 Bft) N 0 0 min 0,0 UV-I 97 W/m 9,7 C 12,7 C 0,0 km/h (0 Bft)
16.05.2022 07:16 12,7 C 12,8 C 82 % 1015,6 hPa 0,0 l/m 0,0 km/h (0 Bft) N 0 0 min 0,0 UV-I 97 W/m 9,7 C 12,7 C 0,0 km/h (0 Bft)
16.05.2022 07:17 12,7 C 13,3 C 81 % 1015,7 hPa 0,0 l/m 0,0 km/h (0 Bft) N 0 0 min 0,0 UV-I 107 W/m 9,5 C 12,7 C 0,0 km/h (0 Bft)
16.05.2022 07:18 12,6 C 13,3 C 81 % 1015,7 hPa 0,0 l/m 0,0 km/h (0 Bft) N 0 0 min 0,0 UV-I 107 W/m 9,4 C 12,6 C 0,0 km/h (0 Bft)
16.05.2022 07:19 12,6 C 13,3 C 81 % 1015,6 hPa 0,0 l/m 0,0 km/h (0 Bft) N 0 0 min 0,0 UV-I 103 W/m 9,4 C 12,6 C 0,0 km/h (0 Bft)
16.05.2022 07:20 12,6 C 13,3 C 81 % 1015,6 hPa 0,0 l/m 0,0 km/h (0 Bft) N 0 0 min 0,0 UV-I 95 W/m 9,4 C 12,6 C 0,0 km/h (0 Bft)
16.05.2022 07:21 12,6 C 13,3 C 81 % 1015,7 hPa 0,0 l/m 0,0 km/h (0 Bft) N 0 0 min 0,0 UV-I 90 W/m 9,4 C 12,6 C 0,0 km/h (0 Bft)
16.05.2022 07:22 12,7 C 13,3 C 82 % 1015,7 hPa 0,0 l/m 0,0 km/h (0 Bft) N 0 0 min 0,0 UV-I 86 W/m 9,7 C 12,7 C 0,0 km/h (0 Bft)
16.05.2022 07:23 12,8 C 13,3 C 82 % 1015,7 hPa 0,0 l/m 0,0 km/h (0 Bft) N 0 0 min 0,0 UV-I 83 W/m 9,8 C 12,8 C 0,0 km/h (0 Bft)
16.05.2022 07:24 12,8 C 13,3 C 81 % 1015,7 hPa 0,0 l/m 0,0 km/h (0 Bft) N 0 0 min 0,0 UV-I 77 W/m 9,6 C 12,8 C 0,0 km/h (0 Bft)
16.05.2022 07:25 12,8 C 13,3 C 81 % 1015,7 hPa 0,0 l/m 0,0 km/h (0 Bft) N 0 0 min 0,0 UV-I 72 W/m 9,6 C 12,8 C 0,0 km/h (0 Bft)
16.05.2022 07:26 12,8 C 13,3 C 81 % 1015,7 hPa 0,0 l/m 0,0 km/h (0 Bft) N 0 0 min 0,0 UV-I 67 W/m 9,6 C 12,8 C 0,0 km/h (0 Bft)
16.05.2022 07:27 12,8 C 13,3 C 81 % 1015,7 hPa 0,0 l/m 0,0 km/h (0 Bft) N 0 0 min 0,0 UV-I 63 W/m 9,6 C 12,8 C 0,0 km/h (0 Bft)
16.05.2022 07:28 12,9 C 13,3 C 80 % 1015,7 hPa 0,0 l/m 0,0 km/h (0 Bft) N 0 0 min 0,0 UV-I 62 W/m 9,5 C 12,9 C 0,0 km/h (0 Bft)
16.05.2022 07:32 13,1 C 13,3 C 79 % 1015,8 hPa 0,0 l/m 0,0 km/h (0 Bft) SW 221 0 min 0,0 UV-I 65 W/m 9,5 C 13,1 C 0,0 km/h (0 Bft)
16.05.2022 07:34 13,3 C 13,3 C 79 % 1015,8 hPa 0,0 l/m 0,0 km/h (0 Bft) SW 221 0 min 0,0 UV-I 69 W/m 9,7 C 13,3 C 0,0 km/h (0 Bft)
16.05.2022 07:36 13,4 C 13,3 C 79 % 1015,8 hPa 0,0 l/m 0,0 km/h (0 Bft) SW 221 0 min 0,0 UV-I 73 W/m 9,8 C 13,4 C 0,0 km/h (0 Bft)
16.05.2022 07:38 13,6 C 13,9 C 79 % 1015,8 hPa 0,0 l/m 0,0 km/h (0 Bft) SW 221 0 min 0,0 UV-I 77 W/m 10,0 C 13,6 C 0,0 km/h (0 Bft)
16.05.2022 07:40 13,8 C 13,9 C 80 % 1015,8 hPa 0,0 l/m 0,0 km/h (0 Bft) SW 221 0 min 0,0 UV-I 80 W/m 10,4 C 13,8 C 0,0 km/h (0 Bft)
16.05.2022 07:42 13,8 C 13,9 C 80 % 1015,8 hPa 0,0 l/m 0,0 km/h (0 Bft) SW 221 0 min 0,0 UV-I 88 W/m 10,4 C 13,8 C 0,0 km/h (0 Bft)
16.05.2022 07:44 13,9 C 14,4 C 80 % 1015,9 hPa 0,0 l/m 0,0 km/h (0 Bft) SW 221 0 min 0,1 UV-I 112 W/m 10,5 C 13,9 C 0,0 km/h (0 Bft)
16.05.2022 07:46 14,1 C 14,4 C 80 % 1015,9 hPa 0,0 l/m 0,0 km/h (0 Bft) SW 221 0 min 0,5 UV-I 111 W/m 10,7 C 14,1 C 0,0 km/h (0 Bft)
16.05.2022 07:48 14,1 C 15,0 C 80 % 1015,9 hPa 0,0 l/m 0,0 km/h (0 Bft) SW 221 0 min 0,5 UV-I 100 W/m 10,7 C 14,1 C 0,0 km/h (0 Bft)
16.05.2022 07:50 14,2 C 15,0 C 80 % 1015,9 hPa 0,0 l/m 0,0 km/h (0 Bft) SW 221 0 min 0,5 UV-I 104 W/m 10,8 C 14,2 C 0,0 km/h (0 Bft)
16.05.2022 07:52 14,2 C 15,0 C 80 % 1015,9 hPa 0,0 l/m 0,0 km/h (0 Bft) SW 221 0 min 0,5 UV-I 108 W/m 10,8 C 14,2 C 0,0 km/h (0 Bft)
16.05.2022 07:54 14,2 C 15,0 C 80 % 1015,9 hPa 0,0 l/m 0,0 km/h (0 Bft) SW 221 0 min 0,6 UV-I 114 W/m 10,8 C 14,2 C 0,0 km/h (0 Bft)
16.05.2022 07:56 14,2 C 15,0 C 79 % 1015,9 hPa 0,0 l/m 0,0 km/h (0 Bft) SW 221 0 min 0,6 UV-I 122 W/m 10,6 C 14,2 C 0,0 km/h (0 Bft)
16.05.2022 07:58 14,2 C 15,6 C 79 % 1015,9 hPa 0,0 l/m 0,0 km/h (0 Bft) SW 221 0 min 0,6 UV-I 124 W/m 10,6 C 14,2 C 0,0 km/h (0 Bft)
16.05.2022 08:00 14,3 C 15,6 C 79 % 1015,9 hPa 0,0 l/m 0,0 km/h (0 Bft) SW 221 0 min 0,5 UV-I 109 W/m 10,7 C 14,3 C 0,0 km/h (0 Bft)
16.05.2022 08:02 14,3 C 15,6 C 79 % 1016,0 hPa 0,0 l/m 0,0 km/h (0 Bft) SW 221 0 min 0,5 UV-I 98 W/m 10,7 C 14,3 C 0,0 km/h (0 Bft)
16.05.2022 08:04 14,3 C 15,0 C 78 % 1015,9 hPa 0,0 l/m 0,0 km/h (0 Bft) SW 221 0 min 0,6 UV-I 96 W/m 10,5 C 14,3 C 0,0 km/h (0 Bft)
16.05.2022 08:06 14,4 C 15,6 C 78 % 1016,0 hPa 0,0 l/m 0,0 km/h (0 Bft) SW 221 0 min 0,6 UV-I 92 W/m 10,6 C 14,4 C 0,0 km/h (0 Bft)
16.05.2022 08:08 14,5 C 15,0 C 78 % 1015,8 hPa 0,0 l/m 0,0 km/h (0 Bft) SW 221 0 min 0,6 UV-I 83 W/m 10,7 C 14,5 C 0,0 km/h (0 Bft)
16.05.2022 08:10 14,6 C 15,0 C 76 % 1015,9 hPa 0,0 l/m 0,0 km/h (0 Bft) SW 221 0 min 0,6 UV-I 75 W/m 10,4 C 14,6 C 0,0 km/h (0 Bft)
16.05.2022 08:12 14,7 C 15,0 C 76 % 1015,9 hPa 0,0 l/m 0,0 km/h (0 Bft) SW 221 0 min 0,7 UV-I 72 W/m 10,5 C 14,7 C 0,0 km/h (0 Bft)
16.05.2022 08:14 14,9 C 14,4 C 77 % 1015,9 hPa 0,0 l/m 0,0 km/h (0 Bft) SW 221 0 min 0,7 UV-I 72 W/m 10,9 C 14,9 C 0,0 km/h (0 Bft)
16.05.2022 08:16 15,0 C 14,4 C 78 % 1016,1 hPa 0,0 l/m 0,0 km/h (0 Bft) SW 221 0 min 0,8 UV-I 72 W/m 11,2 C 15,0 C 0,0 km/h (0 Bft)
16.05.2022 08:18 15,1 C 15,0 C 77 % 1015,9 hPa 0,0 l/m 0,0 km/h (0 Bft) SW 221 0 min 0,8 UV-I 72 W/m 11,1 C 15,1 C 0,0 km/h (0 Bft)
16.05.2022 08:20 15,2 C 15,0 C 76 % 1015,9 hPa 0,0 l/m 0,0 km/h (0 Bft) SW 219 0 min 1,0 UV-I 71 W/m 11,0 C 15,2 C 0,0 km/h (0 Bft)
16.05.2022 08:22 15,4 C 15,6 C 76 % 1015,9 hPa 0,0 l/m 0,0 km/h (0 Bft) SW 219 0 min 1,3 UV-I 284 W/m 11,2 C 15,4 C 0,0 km/h (0 Bft)
16.05.2022 08:24 15,7 C 16,1 C 75 % 1016,0 hPa 0,0 l/m 0,0 km/h (0 Bft) SW 235 0 min 1,2 UV-I 327 W/m 11,3 C 15,7 C 0,0 km/h (0 Bft)
16.05.2022 08:26 16,1 C 16,1 C 75 % 1015,9 hPa 0,0 l/m 0,0 km/h (0 Bft) W-SW 240 0 min 1,4 UV-I 323 W/m 11,7 C 16,1 C 0,0 km/h (0 Bft)
16.05.2022 08:28 16,3 C 16,7 C 73 % 1015,9 hPa 0,0 l/m 0,0 km/h (0 Bft) W-SW 240 0 min 1,4 UV-I 320 W/m 11,4 C 16,3 C 0,0 km/h (0 Bft)
16.05.2022 08:30 16,7 C 17,2 C 73 % 1015,9 hPa 0,0 l/m 0,0 km/h (0 Bft) W-SW 239 0 min 1,4 UV-I 323 W/m 11,8 C 16,7 C 0,0 km/h (0 Bft)
16.05.2022 08:32 17,0 C 17,8 C 72 % 1016,0 hPa 0,0 l/m 0,0 km/h (0 Bft) W-SW 244 0 min 1,5 UV-I 325 W/m 11,9 C 17,0 C 0,0 km/h (0 Bft)
16.05.2022 08:34 17,2 C 18,3 C 71 % 1015,9 hPa 0,0 l/m 0,0 km/h (0 Bft) SW 226 0 min 1,5 UV-I 331 W/m 11,9 C 17,2 C 0,0 km/h (0 Bft)
16.05.2022 08:36 17,4 C 18,3 C 70 % 1015,8 hPa 0,0 l/m 0,0 km/h (0 Bft) SW 235 0 min 1,5 UV-I 336 W/m 11,9 C 17,4 C 0,0 km/h (0 Bft)
16.05.2022 08:38 17,6 C 18,3 C 70 % 1015,9 hPa 0,0 l/m 0,0 km/h (0 Bft) W-SW 237 0 min 1,6 UV-I 343 W/m 12,1 C 17,6 C 0,0 km/h (0 Bft)
16.05.2022 08:40 17,6 C 18,3 C 70 % 1015,9 hPa 0,0 l/m 0,0 km/h (0 Bft) W-SW 238 2 min 1,6 UV-I 349 W/m 12,1 C 17,6 C 0,0 km/h (0 Bft)
16.05.2022 08:42 17,8 C 18,9 C 69 % 1015,9 hPa 0,0 l/m 0,0 km/h (0 Bft) W-SW 240 2 min 1,7 UV-I 356 W/m 12,0 C 17,8 C 0,0 km/h (0 Bft)
16.05.2022 08:44 17,9 C 18,9 C 69 % 1015,9 hPa 0,0 l/m 1,5 km/h (1 Bft) W-SW 240 2 min 1,7 UV-I 367 W/m 12,1 C 17,9 C 12,9 km/h (3 Bft)
16.05.2022 08:46 18,1 C 18,9 C 69 % 1016,0 hPa 0,0 l/m 9,9 km/h (2 Bft) SW 226 2 min 1,8 UV-I 380 W/m 12,3 C 16,6 C 14,5 km/h (3 Bft)
16.05.2022 08:48 18,2 C 19,4 C 68 % 1015,9 hPa 0,0 l/m 11,8 km/h (2 Bft) S-SW 194 2 min 1,8 UV-I 392 W/m 12,2 C 16,0 C 19,3 km/h (3 Bft)
16.05.2022 08:50 18,3 C 19,4 C 68 % 1016,0 hPa 0,0 l/m 12,6 km/h (3 Bft) S 185 2 min 1,9 UV-I 403 W/m 12,3 C 15,9 C 17,7 km/h (3 Bft)
16.05.2022 08:52 18,3 C 19,4 C 68 % 1016,1 hPa 0,0 l/m 13,8 km/h (3 Bft) S-SW 202 2 min 1,9 UV-I 404 W/m 12,3 C 15,5 C 20,9 km/h (4 Bft)
16.05.2022 08:54 18,4 C 19,4 C 68 % 1016,1 hPa 0,0 l/m 13,2 km/h (3 Bft) S-SW 196 2 min 1,9 UV-I 402 W/m 12,4 C 15,8 C 19,3 km/h (3 Bft)
16.05.2022 08:56 18,4 C 19,4 C 67 % 1016,1 hPa 0,0 l/m 13,0 km/h (3 Bft) S-SW 200 0 min 1,7 UV-I 313 W/m 12,2 C 15,9 C 19,3 km/h (3 Bft)
16.05.2022 08:58 18,4 C 19,4 C 68 % 1016,1 hPa 0,0 l/m 14,1 km/h (3 Bft) SW 219 0 min 1,9 UV-I 307 W/m 12,4 C 15,6 C 20,9 km/h (4 Bft)
16.05.2022 09:00 18,6 C 19,4 C 67 % 1016,0 hPa 0,0 l/m 14,3 km/h (3 Bft) W-SW 239 2 min 2,0 UV-I 418 W/m 12,3 C 15,7 C 19,3 km/h (3 Bft)
16.05.2022 09:02 18,7 C 19,4 C 67 % 1016,0 hPa 0,0 l/m 11,6 km/h (2 Bft) S 173 2 min 2,0 UV-I 417 W/m 12,4 C 16,7 C 17,7 km/h (3 Bft)
16.05.2022 09:04 18,8 C 20,0 C 67 % 1016,1 hPa 0,0 l/m 15,3 km/h (3 Bft) S-SW 208 2 min 2,0 UV-I 416 W/m 12,5 C 15,7 C 25,7 km/h (4 Bft)
16.05.2022 09:06 18,8 C 19,4 C 67 % 1016,1 hPa 0,0 l/m 11,7 km/h (2 Bft) S 189 2 min 2,1 UV-I 418 W/m 12,5 C 16,7 C 16,1 km/h (3 Bft)
16.05.2022 09:08 19,0 C 20,0 C 66 % 1016,2 hPa 0,0 l/m 12,6 km/h (3 Bft) S 185 2 min 2,1 UV-I 422 W/m 12,5 C 16,7 C 17,7 km/h (3 Bft)
16.05.2022 09:10 19,1 C 20,0 C 67 % 1016,2 hPa 0,0 l/m 12,8 km/h (3 Bft) S-SW 211 2 min 2,1 UV-I 426 W/m 12,8 C 16,8 C 16,1 km/h (3 Bft)
16.05.2022 09:12 19,2 C 20,0 C 66 % 1016,2 hPa 0,0 l/m 14,0 km/h (3 Bft) S-SW 213 2 min 2,2 UV-I 431 W/m 12,7 C 16,5 C 17,7 km/h (3 Bft)
16.05.2022 09:14 19,2 C 20,0 C 66 % 1016,1 hPa 0,0 l/m 13,2 km/h (3 Bft) S-SW 198 2 min 2,2 UV-I 433 W/m 12,7 C 16,8 C 19,3 km/h (3 Bft)
16.05.2022 09:16 19,4 C 20,6 C 67 % 1016,2 hPa 0,0 l/m 10,4 km/h (2 Bft) S-SW 192 2 min 2,2 UV-I 437 W/m 13,1 C 17,8 C 19,3 km/h (3 Bft)
16.05.2022 09:18 19,5 C 20,6 C 66 % 1016,2 hPa 0,0 l/m 15,0 km/h (3 Bft) S-SW 200 2 min 2,3 UV-I 441 W/m 13,0 C 16,6 C 20,9 km/h (4 Bft)
16.05.2022 09:20 19,6 C 20,6 C 66 % 1016,2 hPa 0,0 l/m 14,6 km/h (3 Bft) S-SO 159 2 min 2,3 UV-I 445 W/m 13,1 C 16,9 C 22,5 km/h (4 Bft)
16.05.2022 09:22 19,7 C 20,6 C 65 % 1016,2 hPa 0,0 l/m 12,0 km/h (2 Bft) SW 225 2 min 2,3 UV-I 446 W/m 12,9 C 17,7 C 16,1 km/h (3 Bft)
16.05.2022 09:24 19,7 C 21,1 C 66 % 1016,3 hPa 0,0 l/m 12,9 km/h (3 Bft) S-SW 204 2 min 2,4 UV-I 448 W/m 13,2 C 17,4 C 22,5 km/h (4 Bft)
16.05.2022 09:26 19,8 C 21,1 C 65 % 1016,3 hPa 0,0 l/m 12,8 km/h (3 Bft) S-SW 213 2 min 2,4 UV-I 434 W/m 13,0 C 17,6 C 20,9 km/h (4 Bft)
16.05.2022 09:28 19,8 C 21,1 C 66 % 1016,4 hPa 0,0 l/m 10,7 km/h (2 Bft) SW 218 2 min 2,4 UV-I 445 W/m 13,3 C 18,2 C 14,5 km/h (3 Bft)
16.05.2022 09:30 19,9 C 21,1 C 65 % 1016,4 hPa 0,0 l/m 13,6 km/h (3 Bft) S-SW 200 2 min 2,5 UV-I 445 W/m 13,1 C 17,5 C 20,9 km/h (4 Bft)
16.05.2022 09:32 19,9 C 21,1 C 65 % 1016,4 hPa 0,0 l/m 12,4 km/h (3 Bft) S-SW 198 2 min 2,5 UV-I 443 W/m 13,1 C 17,8 C 19,3 km/h (3 Bft)
16.05.2022 09:34 20,1 C 21,1 C 64 % 1016,4 hPa 0,0 l/m 13,1 km/h (3 Bft) SW 226 2 min 2,5 UV-I 440 W/m 13,1 C 17,8 C 19,3 km/h (3 Bft)
16.05.2022 09:36 20,2 C 21,1 C 65 % 1016,4 hPa 0,0 l/m 13,1 km/h (3 Bft) SW 218 2 min 2,6 UV-I 437 W/m 13,4 C 18,0 C 17,7 km/h (3 Bft)
16.05.2022 09:38 20,3 C 21,1 C 64 % 1016,3 hPa 0,0 l/m 14,3 km/h (3 Bft) S-SW 213 2 min 2,6 UV-I 434 W/m 13,3 C 17,8 C 20,9 km/h (4 Bft)
16.05.2022 09:40 20,3 C 21,1 C 64 % 1016,4 hPa 0,0 l/m 14,5 km/h (3 Bft) SW 217 2 min 2,7 UV-I 432 W/m 13,3 C 17,7 C 20,9 km/h (4 Bft)
16.05.2022 09:42 20,4 C 21,7 C 64 % 1016,3 hPa 0,0 l/m 12,5 km/h (3 Bft) S-SW 197 2 min 2,7 UV-I 431 W/m 13,4 C 18,4 C 20,9 km/h (4 Bft)
16.05.2022 09:44 20,6 C 21,7 C 64 % 1016,3 hPa 0,0 l/m 12,4 km/h (3 Bft) S-SW 208 2 min 2,7 UV-I 426 W/m 13,5 C 18,6 C 17,7 km/h (3 Bft)
16.05.2022 09:46 20,7 C 21,7 C 62 % 1016,3 hPa 0,0 l/m 9,8 km/h (2 Bft) S-SW 200 2 min 2,7 UV-I 417 W/m 13,2 C 19,5 C 14,5 km/h (3 Bft)
16.05.2022 09:48 20,8 C 22,2 C 63 % 1016,3 hPa 0,0 l/m 10,4 km/h (2 Bft) SW 223 2 min 2,8 UV-I 417 W/m 13,5 C 19,4 C 16,1 km/h (3 Bft)
16.05.2022 09:50 20,8 C 22,2 C 62 % 1016,4 hPa 0,0 l/m 13,3 km/h (3 Bft) S-SW 210 2 min 2,9 UV-I 424 W/m 13,2 C 18,6 C 17,7 km/h (3 Bft)
16.05.2022 09:52 20,9 C 22,2 C 62 % 1016,3 hPa 0,0 l/m 12,2 km/h (2 Bft) SO 140 2 min 2,9 UV-I 424 W/m 13,3 C 19,0 C 19,3 km/h (3 Bft)
16.05.2022 09:54 21,1 C 22,2 C 62 % 1016,4 hPa 0,0 l/m 10,5 km/h (2 Bft) S 191 2 min 2,9 UV-I 425 W/m 13,5 C 19,7 C 19,3 km/h (3 Bft)
16.05.2022 09:56 21,1 C 22,2 C 60 % 1016,4 hPa 0,0 l/m 19,4 km/h (3 Bft) S 191 2 min 3,0 UV-I 428 W/m 13,0 C 17,7 C 27,4 km/h (4 Bft)
16.05.2022 09:58 20,9 C 22,2 C 60 % 1016,4 hPa 0,0 l/m 18,0 km/h (3 Bft) S 191 2 min 3,0 UV-I 431 W/m 12,8 C 17,7 C 27,4 km/h (4 Bft)
16.05.2022 10:00 20,9 C 22,2 C 61 % 1016,5 hPa 0,0 l/m 17,6 km/h (3 Bft) S 182 2 min 3,1 UV-I 440 W/m 13,1 C 17,8 C 22,5 km/h (4 Bft)
16.05.2022 10:02 21,0 C 21,7 C 61 % 1016,4 hPa 0,0 l/m 16,0 km/h (3 Bft) S 181 2 min 3,1 UV-I 446 W/m 13,2 C 18,2 C 25,7 km/h (4 Bft)
16.05.2022 10:04 21,1 C 22,2 C 60 % 1016,5 hPa 0,0 l/m 15,6 km/h (3 Bft) S-SW 209 2 min 3,1 UV-I 455 W/m 13,0 C 18,5 C 20,9 km/h (4 Bft)
16.05.2022 10:06 21,2 C 22,2 C 61 % 1016,5 hPa 0,0 l/m 15,0 km/h (3 Bft) S 182 2 min 3,2 UV-I 466 W/m 13,4 C 18,7 C 24,1 km/h (4 Bft)
16.05.2022 10:08 21,3 C 22,8 C 59 % 1016,4 hPa 0,0 l/m 12,6 km/h (3 Bft) SW 221 2 min 3,2 UV-I 475 W/m 13,0 C 19,4 C 20,9 km/h (4 Bft)
16.05.2022 10:10 21,3 C 22,2 C 59 % 1016,5 hPa 0,0 l/m 17,3 km/h (3 Bft) SW 215 2 min 3,3 UV-I 487 W/m 13,0 C 18,4 C 25,7 km/h (4 Bft)
16.05.2022 10:12 21,2 C 22,2 C 59 % 1016,6 hPa 0,0 l/m 16,2 km/h (3 Bft) S-SW 211 2 min 3,3 UV-I 502 W/m 12,9 C 18,5 C 24,1 km/h (4 Bft)
16.05.2022 10:14 21,3 C 22,2 C 60 % 1016,5 hPa 0,0 l/m 16,0 km/h (3 Bft) S-SW 213 2 min 3,3 UV-I 512 W/m 13,2 C 18,6 C 25,7 km/h (4 Bft)
16.05.2022 10:16 21,2 C 22,2 C 59 % 1016,6 hPa 0,0 l/m 17,3 km/h (3 Bft) SW 217 2 min 3,4 UV-I 530 W/m 12,9 C 18,2 C 24,1 km/h (4 Bft)
16.05.2022 10:18 21,2 C 22,8 C 60 % 1016,6 hPa 0,0 l/m 13,6 km/h (3 Bft) W-SW 244 2 min 3,4 UV-I 545 W/m 13,1 C 19,0 C 20,9 km/h (4 Bft)
16.05.2022 10:20 21,3 C 22,8 C 60 % 1016,6 hPa 0,0 l/m 17,2 km/h (3 Bft) S-SW 208 2 min 3,5 UV-I 561 W/m 13,2 C 18,4 C 22,5 km/h (4 Bft)
16.05.2022 10:22 21,4 C 23,3 C 60 % 1016,7 hPa 0,0 l/m 13,6 km/h (3 Bft) S-SW 202 2 min 3,5 UV-I 580 W/m 13,3 C 19,3 C 24,1 km/h (4 Bft)
16.05.2022 10:24 21,7 C 23,9 C 60 % 1016,6 hPa 0,0 l/m 16,3 km/h (3 Bft) S-SW 212 2 min 3,6 UV-I 599 W/m 13,6 C 19,1 C 22,5 km/h (4 Bft)
16.05.2022 10:26 21,6 C 23,9 C 60 % 1016,6 hPa 0,0 l/m 15,8 km/h (3 Bft) S-SW 202 2 min 3,6 UV-I 615 W/m 13,5 C 19,0 C 27,4 km/h (4 Bft)
16.05.2022 10:28 21,6 C 23,9 C 61 % 1016,7 hPa 0,0 l/m 11,3 km/h (2 Bft) S-SW 193 2 min 3,7 UV-I 637 W/m 13,7 C 20,1 C 19,3 km/h (3 Bft)
16.05.2022 10:30 21,7 C 23,9 C 60 % 1016,6 hPa 0,0 l/m 12,8 km/h (3 Bft) S-SW 213 2 min 3,8 UV-I 674 W/m 13,6 C 19,8 C 22,5 km/h (4 Bft)
16.05.2022 10:32 21,6 C 24,4 C 61 % 1016,6 hPa 0,0 l/m 14,5 km/h (3 Bft) S 182 2 min 3,8 UV-I 720 W/m 13,7 C 19,3 C 20,9 km/h (4 Bft)
16.05.2022 10:34 21,5 C 23,9 C 60 % 1016,7 hPa 0,0 l/m 14,3 km/h (3 Bft) W-SW 245 2 min 2,9 UV-I 630 W/m 13,4 C 19,2 C 22,5 km/h (4 Bft)
16.05.2022 10:36 21,3 C 22,8 C 61 % 1016,7 hPa 0,0 l/m 12,3 km/h (3 Bft) SW 215 0 min 2,3 UV-I 261 W/m 13,5 C 19,5 C 20,9 km/h (4 Bft)
16.05.2022 10:38 21,1 C 22,8 C 61 % 1016,7 hPa 0,0 l/m 16,4 km/h (3 Bft) S 190 0 min 2,5 UV-I 296 W/m 13,3 C 18,3 C 22,5 km/h (4 Bft)
16.05.2022 10:40 21,1 C 22,8 C 62 % 1016,7 hPa 0,0 l/m 15,2 km/h (3 Bft) S 190 2 min 3,8 UV-I 481 W/m 13,5 C 18,5 C 20,9 km/h (4 Bft)
16.05.2022 10:42 21,4 C 23,9 C 62 % 1016,8 hPa 0,0 l/m 8,6 km/h (2 Bft) S-SW 203 2 min 3,8 UV-I 721 W/m 13,8 C 20,6 C 16,1 km/h (3 Bft)
16.05.2022 10:44 21,7 C 25,0 C 61 % 1016,7 hPa 0,0 l/m 11,9 km/h (2 Bft) S-SW 204 2 min 4,1 UV-I 712 W/m 13,8 C 20,0 C 25,7 km/h (4 Bft)
16.05.2022 10:46 21,6 C 24,4 C 60 % 1016,8 hPa 0,0 l/m 16,6 km/h (3 Bft) S-SW 201 2 min 4,0 UV-I 715 W/m 13,5 C 18,9 C 20,9 km/h (4 Bft)
16.05.2022 10:48 21,6 C 24,4 C 61 % 1016,8 hPa 0,0 l/m 15,1 km/h (3 Bft) S-SW 204 2 min 4,1 UV-I 716 W/m 13,7 C 19,2 C 22,5 km/h (4 Bft)
16.05.2022 10:50 21,6 C 24,4 C 61 % 1016,8 hPa 0,0 l/m 13,3 km/h (3 Bft) S-SO 162 2 min 4,2 UV-I 712 W/m 13,7 C 19,6 C 20,9 km/h (4 Bft)
16.05.2022 10:52 21,7 C 24,4 C 61 % 1016,8 hPa 0,0 l/m 16,3 km/h (3 Bft) S 191 2 min 4,1 UV-I 707 W/m 13,8 C 19,1 C 22,5 km/h (4 Bft)
16.05.2022 10:54 21,7 C 25,0 C 61 % 1016,7 hPa 0,0 l/m 17,8 km/h (3 Bft) SW 223 2 min 4,1 UV-I 713 W/m 13,8 C 18,8 C 25,7 km/h (4 Bft)
16.05.2022 10:56 21,7 C 24,4 C 61 % 1016,7 hPa 0,0 l/m 15,3 km/h (3 Bft) S-SW 210 2 min 3,6 UV-I 692 W/m 13,8 C 19,2 C 19,3 km/h (3 Bft)
16.05.2022 10:58 21,4 C 23,9 C 61 % 1016,7 hPa 0,0 l/m 12,6 km/h (3 Bft) S 180 0 min 1,8 UV-I 314 W/m 13,6 C 19,5 C 17,7 km/h (3 Bft)
16.05.2022 11:00 21,2 C 22,8 C 62 % 1016,7 hPa 0,0 l/m 15,4 km/h (3 Bft) SW 217 0 min 2,6 UV-I 176 W/m 13,6 C 18,6 C 20,9 km/h (4 Bft)
16.05.2022 11:02 21,1 C 23,3 C 62 % 1016,8 hPa 0,0 l/m 14,3 km/h (3 Bft) SW 215 0 min 3,0 UV-I 181 W/m 13,5 C 18,7 C 19,3 km/h (3 Bft)
16.05.2022 11:04 20,9 C 22,2 C 61 % 1016,7 hPa 0,0 l/m 15,2 km/h (3 Bft) S 187 0 min 1,7 UV-I 156 W/m 13,1 C 18,3 C 17,7 km/h (3 Bft)
16.05.2022 11:06 20,6 C 21,1 C 62 % 1016,8 hPa 0,0 l/m 14,5 km/h (3 Bft) S 172 0 min 1,6 UV-I 141 W/m 13,1 C 18,1 C 19,3 km/h (3 Bft)
16.05.2022 11:08 20,4 C 20,6 C 63 % 1016,8 hPa 0,0 l/m 14,0 km/h (3 Bft) S-SW 207 0 min 1,5 UV-I 145 W/m 13,1 C 18,0 C 20,9 km/h (4 Bft)
16.05.2022 11:10 20,3 C 20,6 C 63 % 1016,8 hPa 0,0 l/m 17,2 km/h (3 Bft) SW 219 0 min 1,6 UV-I 149 W/m 13,0 C 17,1 C 24,1 km/h (4 Bft)
16.05.2022 11:12 20,3 C 20,6 C 64 % 1017,0 hPa 0,0 l/m 16,7 km/h (3 Bft) SW 222 0 min 2,3 UV-I 181 W/m 13,3 C 17,2 C 24,1 km/h (4 Bft)
16.05.2022 11:14 20,6 C 23,3 C 65 % 1017,0 hPa 0,0 l/m 12,4 km/h (3 Bft) S-SW 192 2 min 4,1 UV-I 500 W/m 13,8 C 18,6 C 17,7 km/h (3 Bft)
16.05.2022 11:16 21,0 C 24,4 C 64 % 1016,9 hPa 0,0 l/m 10,3 km/h (2 Bft) SW 227 2 min 4,3 UV-I 740 W/m 13,9 C 19,7 C 16,1 km/h (3 Bft)
16.05.2022 11:18 21,3 C 25,6 C 63 % 1017,0 hPa 0,0 l/m 11,0 km/h (2 Bft) S 183 2 min 4,7 UV-I 743 W/m 14,0 C 19,8 C 14,5 km/h (3 Bft)
16.05.2022 11:20 21,6 C 26,1 C 64 % 1016,8 hPa 0,0 l/m 10,4 km/h (2 Bft) W 263 2 min 4,7 UV-I 745 W/m 14,5 C 20,3 C 14,5 km/h (3 Bft)
16.05.2022 11:22 21,9 C 26,7 C 63 % 1016,9 hPa 0,0 l/m 7,4 km/h (2 Bft) W-SW 242 2 min 4,8 UV-I 749 W/m 14,5 C 21,5 C 16,1 km/h (3 Bft)
16.05.2022 11:24 22,1 C 27,2 C 62 % 1016,8 hPa 0,0 l/m 10,3 km/h (2 Bft) S 188 2 min 4,7 UV-I 740 W/m 14,5 C 20,9 C 19,3 km/h (3 Bft)
16.05.2022 11:26 22,1 C 27,2 C 62 % 1016,9 hPa 0,0 l/m 13,4 km/h (3 Bft) SW 224 2 min 4,9 UV-I 763 W/m 14,5 C 20,1 C 17,7 km/h (3 Bft)
16.05.2022 11:28 22,1 C 26,7 C 61 % 1016,9 hPa 0,0 l/m 20,9 km/h (4 Bft) SW 229 2 min 4,9 UV-I 750 W/m 14,2 C 18,8 C 29,0 km/h (5 Bft)
16.05.2022 11:30 22,2 C 26,7 C 61 % 1016,9 hPa 0,0 l/m 22,8 km/h (4 Bft) S-SW 209 2 min 4,9 UV-I 742 W/m 14,3 C 18,6 C 32,2 km/h (5 Bft)
16.05.2022 11:32 22,2 C 26,1 C 60 % 1016,9 hPa 0,0 l/m 20,4 km/h (4 Bft) S-SW 192 2 min 4,9 UV-I 750 W/m 14,1 C 19,0 C 33,8 km/h (5 Bft)
16.05.2022 11:34 22,1 C 26,1 C 61 % 1016,8 hPa 0,0 l/m 16,8 km/h (3 Bft) S-SO 156 2 min 5,0 UV-I 754 W/m 14,2 C 19,5 C 27,4 km/h (4 Bft)
16.05.2022 11:36 22,2 C 26,7 C 61 % 1016,8 hPa 0,0 l/m 18,9 km/h (3 Bft) S-SW 212 2 min 5,0 UV-I 758 W/m 14,3 C 19,2 C 29,0 km/h (5 Bft)
16.05.2022 11:38 22,2 C 26,1 C 60 % 1016,9 hPa 0,0 l/m 20,4 km/h (4 Bft) S-SW 211 2 min 5,1 UV-I 764 W/m 14,1 C 19,0 C 29,0 km/h (5 Bft)
16.05.2022 11:40 22,3 C 26,1 C 61 % 1016,9 hPa 0,0 l/m 21,5 km/h (4 Bft) S-SW 203 2 min 5,1 UV-I 774 W/m 14,4 C 19,0 C 32,2 km/h (5 Bft)
16.05.2022 11:42 22,3 C 26,1 C 60 % 1016,9 hPa 0,0 l/m 22,6 km/h (4 Bft) S 180 2 min 5,1 UV-I 767 W/m 14,2 C 18,8 C 32,2 km/h (5 Bft)
16.05.2022 11:44 22,4 C 26,7 C 61 % 1016,9 hPa 0,0 l/m 17,2 km/h (3 Bft) S-SW 210 2 min 5,2 UV-I 782 W/m 14,5 C 19,8 C 27,4 km/h (4 Bft)
16.05.2022 11:46 22,7 C 27,2 C 62 % 1016,8 hPa 0,0 l/m 17,0 km/h (3 Bft) S 177 2 min 5,1 UV-I 790 W/m 15,0 C 20,2 C 27,4 km/h (4 Bft)
16.05.2022 11:48 22,6 C 25,6 C 60 % 1016,9 hPa 0,0 l/m 15,1 km/h (3 Bft) SW 219 2 min 3,2 UV-I 509 W/m 14,4 C 20,4 C 24,1 km/h (4 Bft)
16.05.2022 11:50 22,4 C 24,4 C 60 % 1016,9 hPa 0,0 l/m 20,1 km/h (4 Bft) SW 232 0 min 3,8 UV-I 231 W/m 14,2 C 19,3 C 29,0 km/h (5 Bft)
16.05.2022 11:52 22,4 C 26,1 C 60 % 1016,9 hPa 0,0 l/m 17,5 km/h (3 Bft) SW 220 2 min 5,4 UV-I 713 W/m 14,2 C 19,7 C 25,7 km/h (4 Bft)
16.05.2022 11:54 22,7 C 27,2 C 61 % 1017,0 hPa 0,0 l/m 18,3 km/h (3 Bft) S-SW 202 2 min 5,4 UV-I 805 W/m 14,8 C 20,0 C 29,0 km/h (5 Bft)
16.05.2022 11:56 22,8 C 27,2 C 59 % 1016,9 hPa 0,0 l/m 21,0 km/h (4 Bft) S-SO 158 2 min 5,4 UV-I 801 W/m 14,4 C 19,7 C 29,0 km/h (5 Bft)
16.05.2022 11:58 22,7 C 27,2 C 60 % 1016,9 hPa 0,0 l/m 15,6 km/h (3 Bft) S 184 2 min 5,4 UV-I 806 W/m 14,5 C 20,4 C 30,6 km/h (5 Bft)
16.05.2022 12:00 22,7 C 27,2 C 59 % 1016,9 hPa 0,0 l/m 23,0 km/h (4 Bft) S 191 2 min 5,4 UV-I 805 W/m 14,3 C 19,3 C 30,6 km/h (5 Bft)
16.05.2022 12:02 22,6 C 26,7 C 61 % 1017,0 hPa 0,0 l/m 19,6 km/h (3 Bft) S-SW 200 2 min 5,1 UV-I 807 W/m 14,7 C 19,6 C 25,7 km/h (4 Bft)
16.05.2022 12:04 22,5 C 26,7 C 61 % 1017,0 hPa 0,0 l/m 18,2 km/h (3 Bft) W-SW 252 2 min 4,8 UV-I 819 W/m 14,6 C 19,7 C 27,4 km/h (4 Bft)
16.05.2022 12:06 22,6 C 27,2 C 60 % 1017,0 hPa 0,0 l/m 17,9 km/h (3 Bft) S-SW 192 2 min 5,3 UV-I 862 W/m 14,4 C 19,9 C 24,1 km/h (4 Bft)
16.05.2022 12:08 22,6 C 26,7 C 61 % 1017,1 hPa 0,0 l/m 18,4 km/h (3 Bft) S-SW 207 2 min 5,2 UV-I 864 W/m 14,7 C 19,8 C 29,0 km/h (5 Bft)
16.05.2022 12:10 22,6 C 26,7 C 60 % 1017,1 hPa 0,0 l/m 24,2 km/h (4 Bft) S-SW 199 2 min 5,7 UV-I 900 W/m 14,4 C 19,0 C 35,4 km/h (5 Bft)
16.05.2022 12:12 22,4 C 25,6 C 61 % 1017,1 hPa 0,0 l/m 21,9 km/h (4 Bft) S-SW 198 2 min 4,5 UV-I 857 W/m 14,5 C 19,0 C 32,2 km/h (5 Bft)
16.05.2022 12:14 22,1 C 23,9 C 61 % 1017,1 hPa 0,0 l/m 13,9 km/h (3 Bft) S-SW 194 0 min 2,8 UV-I 232 W/m 14,2 C 20,0 C 27,4 km/h (4 Bft)
16.05.2022 12:16 21,8 C 23,3 C 62 % 1017,1 hPa 0,0 l/m 20,3 km/h (4 Bft) S 187 0 min 3,7 UV-I 279 W/m 14,2 C 18,5 C 35,4 km/h (5 Bft)
16.05.2022 12:18 21,9 C 25,0 C 63 % 1017,1 hPa 0,0 l/m 15,3 km/h (3 Bft) S 180 2 min 5,8 UV-I 382 W/m 14,5 C 19,5 C 24,1 km/h (4 Bft)
16.05.2022 12:20 22,4 C 26,7 C 62 % 1017,1 hPa 0,0 l/m 19,7 km/h (3 Bft) SW 225 2 min 6,0 UV-I 912 W/m 14,8 C 19,4 C 27,4 km/h (4 Bft)
16.05.2022 12:22 22,7 C 27,2 C 62 % 1017,1 hPa 0,0 l/m 16,7 km/h (3 Bft) SW 221 2 min 5,9 UV-I 890 W/m 15,0 C 20,2 C 27,4 km/h (4 Bft)
16.05.2022 12:24 22,8 C 27,8 C 61 % 1017,1 hPa 0,0 l/m 15,9 km/h (3 Bft) S-SW 201 2 min 5,8 UV-I 881 W/m 14,9 C 20,5 C 29,0 km/h (5 Bft)
16.05.2022 12:26 22,8 C 26,7 C 59 % 1017,1 hPa 0,0 l/m 20,2 km/h (4 Bft) S 180 2 min 4,0 UV-I 715 W/m 14,4 C 19,8 C 29,0 km/h (5 Bft)
16.05.2022 12:28 22,3 C 24,4 C 60 % 1017,1 hPa 0,0 l/m 16,5 km/h (3 Bft) S 191 0 min 2,7 UV-I 228 W/m 14,2 C 19,8 C 22,5 km/h (4 Bft)
16.05.2022 12:30 21,8 C 23,3 C 62 % 1017,1 hPa 0,0 l/m 16,3 km/h (3 Bft) S 182 0 min 2,7 UV-I 232 W/m 14,2 C 19,2 C 25,7 km/h (4 Bft)
16.05.2022 12:32 21,5 C 22,8 C 62 % 1017,2 hPa 0,0 l/m 16,1 km/h (3 Bft) S-SW 204 0 min 2,7 UV-I 246 W/m 13,9 C 18,8 C 24,1 km/h (4 Bft)
16.05.2022 12:34 21,2 C 22,2 C 64 % 1017,1 hPa 0,0 l/m 17,7 km/h (3 Bft) S-SW 193 0 min 2,7 UV-I 256 W/m 14,1 C 18,2 C 32,2 km/h (5 Bft)
16.05.2022 12:36 20,9 C 20,6 C 65 % 1017,1 hPa 0,0 l/m 13,9 km/h (3 Bft) S-SW 200 0 min 2,9 UV-I 276 W/m 14,1 C 18,6 C 19,3 km/h (3 Bft)
16.05.2022 12:38 20,8 C 21,1 C 67 % 1017,0 hPa 0,0 l/m 12,8 km/h (3 Bft) S-SW 205 0 min 3,8 UV-I 325 W/m 14,4 C 18,7 C 20,9 km/h (4 Bft)
16.05.2022 12:40 20,9 C 22,2 C 67 % 1017,1 hPa 0,0 l/m 14,3 km/h (3 Bft) S-SW 196 2 min 4,3 UV-I 354 W/m 14,5 C 18,5 C 19,3 km/h (3 Bft)
16.05.2022 12:42 21,0 C 22,8 C 67 % 1017,1 hPa 0,0 l/m 18,6 km/h (3 Bft) SW 221 2 min 4,2 UV-I 396 W/m 14,6 C 17,7 C 32,2 km/h (5 Bft)
16.05.2022 12:44 21,1 C 22,8 C 67 % 1017,2 hPa 0,0 l/m 19,2 km/h (3 Bft) S-SW 192 2 min 4,1 UV-I 399 W/m 14,7 C 17,8 C 27,4 km/h (4 Bft)
16.05.2022 12:46 21,3 C 24,4 C 67 % 1017,1 hPa 0,0 l/m 16,3 km/h (3 Bft) S 172 2 min 6,0 UV-I 667 W/m 14,9 C 18,6 C 24,1 km/h (4 Bft)
16.05.2022 12:48 21,6 C 26,1 C 67 % 1017,1 hPa 0,0 l/m 13,8 km/h (3 Bft) S-SW 209 2 min 6,4 UV-I 971 W/m 15,2 C 19,4 C 19,3 km/h (3 Bft)
16.05.2022 12:50 22,1 C 27,2 C 65 % 1017,0 hPa 0,0 l/m 16,3 km/h (3 Bft) S-SW 199 2 min 5,7 UV-I 989 W/m 15,2 C 19,5 C 24,1 km/h (4 Bft)
16.05.2022 12:52 22,1 C 26,1 C 65 % 1017,1 hPa 0,0 l/m 13,9 km/h (3 Bft) SO 138 2 min 4,1 UV-I 970 W/m 15,2 C 20,0 C 24,1 km/h (4 Bft)
16.05.2022 12:54 22,1 C 25,0 C 65 % 1017,2 hPa 0,0 l/m 19,3 km/h (3 Bft) S-SO 161 2 min 3,5 UV-I 364 W/m 15,2 C 19,0 C 29,0 km/h (5 Bft)
16.05.2022 12:56 22,1 C 25,6 C 65 % 1017,1 hPa 0,0 l/m 17,4 km/h (3 Bft) S 186 2 min 4,5 UV-I 437 W/m 15,2 C 19,3 C 27,4 km/h (4 Bft)
16.05.2022 12:58 22,3 C 27,2 C 65 % 1017,1 hPa 0,0 l/m 16,4 km/h (3 Bft) SO 136 2 min 5,9 UV-I 732 W/m 15,4 C 19,8 C 25,7 km/h (4 Bft)
16.05.2022 13:00 22,4 C 25,6 C 65 % 1017,1 hPa 0,0 l/m 16,2 km/h (3 Bft) S-SW 192 2 min 4,2 UV-I 993 W/m 15,5 C 19,9 C 27,4 km/h (4 Bft)
16.05.2022 13:02 22,2 C 25,6 C 65 % 1017,2 hPa 0,0 l/m 18,5 km/h (3 Bft) S 186 2 min 5,3 UV-I 993 W/m 15,3 C 19,3 C 27,4 km/h (4 Bft)
16.05.2022 13:04 22,2 C 27,2 C 65 % 1017,2 hPa 0,0 l/m 22,5 km/h (4 Bft) S-SW 193 2 min 6,7 UV-I 1016 W/m 15,3 C 18,7 C 32,2 km/h (5 Bft)
16.05.2022 13:06 22,4 C 27,2 C 65 % 1017,3 hPa 0,0 l/m 22,0 km/h (4 Bft) S-SO 156 2 min 6,8 UV-I 1040 W/m 15,5 C 19,0 C 38,6 km/h (5 Bft)
16.05.2022 13:08 22,6 C 28,3 C 65 % 1017,2 hPa 0,0 l/m 16,0 km/h (3 Bft) S-SW 202 2 min 6,8 UV-I 1041 W/m 15,7 C 20,2 C 24,1 km/h (4 Bft)
16.05.2022 13:10 22,7 C 28,3 C 64 % 1017,2 hPa 0,0 l/m 20,5 km/h (4 Bft) S-SW 196 2 min 5,8 UV-I 1027 W/m 15,5 C 19,6 C 32,2 km/h (5 Bft)
16.05.2022 13:12 22,4 C 26,7 C 63 % 1017,2 hPa 0,0 l/m 21,4 km/h (4 Bft) S 184 2 min 5,0 UV-I 870 W/m 15,0 C 19,1 C 35,4 km/h (5 Bft)
16.05.2022 13:14 22,3 C 25,6 C 65 % 1017,3 hPa 0,0 l/m 18,0 km/h (3 Bft) S 183 2 min 4,3 UV-I 395 W/m 15,4 C 19,5 C 37,0 km/h (5 Bft)
16.05.2022 13:16 22,2 C 25,0 C 66 % 1017,3 hPa 0,0 l/m 16,4 km/h (3 Bft) S 184 2 min 4,4 UV-I 410 W/m 15,5 C 19,6 C 35,4 km/h (5 Bft)
16.05.2022 13:18 22,2 C 26,7 C 65 % 1017,1 hPa 0,0 l/m 16,5 km/h (3 Bft) S 179 2 min 6,2 UV-I 724 W/m 15,3 C 19,6 C 27,4 km/h (4 Bft)
16.05.2022 13:20 22,6 C 28,3 C 67 % 1017,1 hPa 0,0 l/m 17,2 km/h (3 Bft) S-SO 165 2 min 6,5 UV-I 938 W/m 16,2 C 20,0 C 29,0 km/h (5 Bft)
16.05.2022 13:22 22,7 C 28,3 C 65 % 1017,3 hPa 0,0 l/m 19,7 km/h (3 Bft) S-SW 207 2 min 6,5 UV-I 924 W/m 15,8 C 19,7 C 27,4 km/h (4 Bft)
16.05.2022 13:24 22,6 C 27,2 C 65 % 1017,2 hPa 0,0 l/m 19,7 km/h (3 Bft) S-SW 194 2 min 5,3 UV-I 853 W/m 15,7 C 19,6 C 29,0 km/h (5 Bft)
16.05.2022 13:26 22,2 C 26,7 C 65 % 1017,3 hPa 0,0 l/m 21,3 km/h (4 Bft) S 190 2 min 5,1 UV-I 467 W/m 15,3 C 18,9 C 32,2 km/h (5 Bft)
16.05.2022 13:28 21,8 C 25,6 C 65 % 1017,2 hPa 0,0 l/m 25,5 km/h (4 Bft) S-SW 205 2 min 4,1 UV-I 461 W/m 14,9 C 17,8 C 40,2 km/h (6 Bft)
16.05.2022 13:30 21,6 C 24,4 C 66 % 1017,3 hPa 0,0 l/m 25,2 km/h (4 Bft) S-SW 204 2 min 5,3 UV-I 487 W/m 15,0 C 17,5 C 35,4 km/h (5 Bft)
16.05.2022 13:32 21,5 C 25,0 C 67 % 1017,3 hPa 0,0 l/m 24,5 km/h (4 Bft) SW 215 2 min 4,6 UV-I 487 W/m 15,1 C 17,5 C 49,9 km/h (6 Bft)
16.05.2022 13:34 21,3 C 23,9 C 67 % 1017,3 hPa 0,0 l/m 19,3 km/h (3 Bft) S 188 2 min 3,3 UV-I 383 W/m 14,9 C 18,0 C 32,2 km/h (5 Bft)
16.05.2022 13:36 21,1 C 23,3 C 67 % 1017,4 hPa 0,0 l/m 17,7 km/h (3 Bft) S-SW 195 2 min 3,5 UV-I 392 W/m 14,7 C 18,0 C 32,2 km/h (5 Bft)
16.05.2022 13:38 21,1 C 23,3 C 68 % 1017,3 hPa 0,0 l/m 16,5 km/h (3 Bft) S-SW 195 2 min 3,9 UV-I 461 W/m 15,0 C 18,3 C 22,5 km/h (4 Bft)
16.05.2022 13:40 21,2 C 24,4 C 69 % 1017,3 hPa 0,0 l/m 12,4 km/h (3 Bft) S-SW 209 2 min 4,5 UV-I 500 W/m 15,3 C 19,3 C 24,1 km/h (4 Bft)
16.05.2022 13:42 21,3 C 24,4 C 68 % 1017,3 hPa 0,0 l/m 15,2 km/h (3 Bft) S 190 2 min 4,5 UV-I 604 W/m 15,1 C 18,8 C 24,1 km/h (4 Bft)
16.05.2022 13:44 21,3 C 23,9 C 67 % 1017,3 hPa 0,0 l/m 17,0 km/h (3 Bft) SW 216 2 min 2,7 UV-I 518 W/m 14,9 C 18,4 C 25,7 km/h (4 Bft)
16.05.2022 13:46 21,1 C 22,2 C 67 % 1017,3 hPa 0,0 l/m 18,5 km/h (3 Bft) S-SW 194 0 min 2,0 UV-I 255 W/m 14,7 C 17,9 C 32,2 km/h (5 Bft)
16.05.2022 13:48 20,8 C 22,2 C 68 % 1017,4 hPa 0,0 l/m 20,5 km/h (4 Bft) S-SW 213 0 min 1,6 UV-I 208 W/m 14,7 C 17,2 C 33,8 km/h (5 Bft)
16.05.2022 13:50 20,4 C 21,7 C 68 % 1017,5 hPa 0,0 l/m 22,7 km/h (4 Bft) S 175 0 min 2,3 UV-I 282 W/m 14,3 C 16,3 C 38,6 km/h (5 Bft)
16.05.2022 13:52 20,3 C 21,7 C 69 % 1017,4 hPa 0,0 l/m 18,7 km/h (3 Bft) SW 215 2 min 2,9 UV-I 351 W/m 14,4 C 16,8 C 29,0 km/h (5 Bft)
16.05.2022 13:54 20,3 C 22,2 C 69 % 1017,4 hPa 0,0 l/m 21,1 km/h (4 Bft) S-SW 204 2 min 3,5 UV-I 413 W/m 14,4 C 16,4 C 30,6 km/h (5 Bft)
16.05.2022 13:56 20,3 C 22,2 C 68 % 1017,4 hPa 0,0 l/m 26,5 km/h (4 Bft) S-SO 159 2 min 3,1 UV-I 432 W/m 14,2 C 15,6 C 35,4 km/h (5 Bft)
16.05.2022 13:58 20,5 C 23,3 C 69 % 1017,4 hPa 0,0 l/m 23,5 km/h (4 Bft) S 184 2 min 5,2 UV-I 419 W/m 14,6 C 16,3 C 40,2 km/h (6 Bft)
16.05.2022 14:00 21,0 C 25,0 C 68 % 1017,3 hPa 0,0 l/m 20,5 km/h (4 Bft) S-SW 209 2 min 5,5 UV-I 418 W/m 14,9 C 17,4 C 33,8 km/h (5 Bft)
16.05.2022 14:02 21,3 C 26,7 C 66 % 1017,3 hPa 0,0 l/m 25,4 km/h (4 Bft) SW 221 2 min 6,7 UV-I 682 W/m 14,7 C 17,1 C 41,8 km/h (6 Bft)
16.05.2022 14:04 21,5 C 26,1 C 65 % 1017,5 hPa 0,0 l/m 25,4 km/h (4 Bft) S 186 2 min 5,9 UV-I 1048 W/m 14,6 C 17,4 C 33,8 km/h (5 Bft)
16.05.2022 14:06 21,4 C 26,1 C 65 % 1017,6 hPa 0,0 l/m 27,1 km/h (4 Bft) S-SW 202 2 min 5,9 UV-I 1048 W/m 14,5 C 17,0 C 41,8 km/h (6 Bft)
16.05.2022 14:08 21,3 C 25,6 C 66 % 1017,5 hPa 0,0 l/m 22,9 km/h (4 Bft) S-SW 212 2 min 5,4 UV-I 1004 W/m 14,7 C 17,4 C 37,0 km/h (5 Bft)
16.05.2022 14:10 21,3 C 26,1 C 65 % 1017,6 hPa 0,0 l/m 28,7 km/h (4 Bft) W-SW 254 2 min 6,5 UV-I 995 W/m 14,4 C 16,7 C 41,8 km/h (6 Bft)
16.05.2022 14:12 21,3 C 26,7 C 66 % 1017,6 hPa 0,0 l/m 27,8 km/h (4 Bft) S 184 2 min 6,9 UV-I 999 W/m 14,7 C 16,8 C 45,1 km/h (6 Bft)
16.05.2022 14:14 21,3 C 26,1 C 67 % 1017,6 hPa 0,0 l/m 26,6 km/h (4 Bft) SW 223 2 min 6,7 UV-I 1001 W/m 14,9 C 16,9 C 43,5 km/h (6 Bft)
16.05.2022 14:16 21,6 C 27,2 C 66 % 1017,7 hPa 0,0 l/m 20,8 km/h (4 Bft) SW 225 2 min 6,7 UV-I 1005 W/m 15,0 C 18,1 C 35,4 km/h (5 Bft)
16.05.2022 14:18 21,6 C 26,7 C 65 % 1017,6 hPa 0,0 l/m 23,7 km/h (4 Bft) S-SW 204 2 min 6,0 UV-I 1049 W/m 14,7 C 17,7 C 40,2 km/h (6 Bft)
16.05.2022 14:20 21,3 C 25,0 C 65 % 1017,7 hPa 0,0 l/m 21,3 km/h (4 Bft) S-SW 194 2 min 3,8 UV-I 1060 W/m 14,4 C 17,7 C 35,4 km/h (5 Bft)
16.05.2022 14:22 21,3 C 25,0 C 66 % 1017,8 hPa 0,0 l/m 20,0 km/h (4 Bft) S 173 2 min 4,5 UV-I 1060 W/m 14,7 C 17,9 C 35,4 km/h (5 Bft)
16.05.2022 14:24 21,2 C 24,4 C 66 % 1017,5 hPa 0,0 l/m 20,9 km/h (4 Bft) SW 231 2 min 4,5 UV-I 1060 W/m 14,6 C 17,6 C 38,6 km/h (5 Bft)
16.05.2022 14:26 21,3 C 25,6 C 66 % 1017,6 hPa 0,0 l/m 25,1 km/h (4 Bft) SW 229 2 min 5,8 UV-I 1060 W/m 14,7 C 17,1 C 43,5 km/h (6 Bft)
16.05.2022 14:28 21,4 C 25,0 C 65 % 1017,6 hPa 0,0 l/m 19,3 km/h (3 Bft) S-SW 193 2 min 5,0 UV-I 1060 W/m 14,5 C 18,1 C 30,6 km/h (5 Bft)
16.05.2022 14:30 21,1 C 24,4 C 66 % 1017,7 hPa 0,0 l/m 20,2 km/h (4 Bft) S 187 2 min 3,9 UV-I 530 W/m 14,5 C 17,6 C 27,4 km/h (4 Bft)
16.05.2022 14:32 21,1 C 23,9 C 67 % 1017,7 hPa 0,0 l/m 19,2 km/h (3 Bft) S-SW 192 2 min 5,6 UV-I 353 W/m 14,7 C 17,8 C 25,7 km/h (4 Bft)
16.05.2022 14:34 20,9 C 24,4 C 66 % 1017,6 hPa 0,0 l/m 26,5 km/h (4 Bft) S 188 2 min 5,6 UV-I 473 W/m 14,3 C 16,4 C 37,0 km/h (5 Bft)
16.05.2022 14:36 20,8 C 25,0 C 66 % 1017,8 hPa 0,0 l/m 24,2 km/h (4 Bft) S-SW 206 2 min 6,3 UV-I 944 W/m 14,2 C 16,6 C 37,0 km/h (5 Bft)
16.05.2022 14:38 20,8 C 25,6 C 67 % 1017,7 hPa 0,0 l/m 19,7 km/h (3 Bft) W-SW 240 2 min 5,9 UV-I 856 W/m 14,4 C 17,3 C 29,0 km/h (5 Bft)
16.05.2022 14:40 21,1 C 26,1 C 66 % 1017,7 hPa 0,0 l/m 17,8 km/h (3 Bft) SW 225 2 min 5,3 UV-I 849 W/m 14,5 C 18,0 C 32,2 km/h (5 Bft)
16.05.2022 14:42 21,2 C 26,7 C 65 % 1017,7 hPa 0,0 l/m 28,1 km/h (4 Bft) SW 222 2 min 6,3 UV-I 904 W/m 14,4 C 16,6 C 38,6 km/h (5 Bft)
16.05.2022 14:44 21,1 C 26,1 C 64 % 1018,0 hPa 0,0 l/m 29,4 km/h (5 Bft) S-SW 213 2 min 6,1 UV-I 876 W/m 14,0 C 16,3 C 45,1 km/h (6 Bft)
16.05.2022 14:46 20,9 C 25,6 C 65 % 1017,9 hPa 0,0 l/m 23,8 km/h (4 Bft) S-SW 198 2 min 5,6 UV-I 841 W/m 14,1 C 16,8 C 35,4 km/h (5 Bft)
16.05.2022 14:48 20,7 C 23,9 C 66 % 1017,8 hPa 0,0 l/m 19,1 km/h (3 Bft) S-SW 207 2 min 3,6 UV-I 654 W/m 14,1 C 17,3 C 24,1 km/h (4 Bft)
16.05.2022 14:50 20,4 C 23,3 C 67 % 1018,0 hPa 0,0 l/m 16,6 km/h (3 Bft) SW 224 0 min 3,2 UV-I 334 W/m 14,1 C 17,4 C 29,0 km/h (5 Bft)
16.05.2022 14:52 20,3 C 23,3 C 66 % 1017,9 hPa 0,0 l/m 15,5 km/h (3 Bft) SW 234 0 min 4,3 UV-I 290 W/m 13,7 C 17,5 C 22,5 km/h (4 Bft)
16.05.2022 14:54 20,7 C 25,6 C 66 % 1018,0 hPa 0,0 l/m 17,2 km/h (3 Bft) W-SW 257 0 min 6,0 UV-I 290 W/m 14,1 C 17,6 C 22,5 km/h (4 Bft)
16.05.2022 14:56 20,8 C 25,0 C 64 % 1018,0 hPa 0,0 l/m 15,5 km/h (3 Bft) SW 219 0 min 4,1 UV-I 292 W/m 13,7 C 18,1 C 27,4 km/h (4 Bft)
16.05.2022 14:58 20,6 C 23,9 C 64 % 1018,1 hPa 0,0 l/m 17,9 km/h (3 Bft) W 267 0 min 3,6 UV-I 324 W/m 13,5 C 17,4 C 32,2 km/h (5 Bft)
16.05.2022 15:00 20,6 C 25,0 C 65 % 1018,0 hPa 0,0 l/m 18,3 km/h (3 Bft) W-SW 237 0 min 4,9 UV-I 332 W/m 13,8 C 17,3 C 30,6 km/h (5 Bft)
16.05.2022 15:02 20,4 C 23,9 C 65 % 1018,0 hPa 0,0 l/m 16,2 km/h (3 Bft) W-SW 248 2 min 4,5 UV-I 417 W/m 13,6 C 17,5 C 27,4 km/h (4 Bft)
16.05.2022 15:04 20,4 C 25,0 C 67 % 1018,1 hPa 0,0 l/m 16,7 km/h (3 Bft) SW 221 2 min 5,2 UV-I 628 W/m 14,1 C 17,4 C 30,6 km/h (5 Bft)
16.05.2022 15:06 20,6 C 26,1 C 67 % 1018,3 hPa 0,0 l/m 21,3 km/h (4 Bft) W-SW 254 2 min 6,3 UV-I 1025 W/m 14,3 C 16,8 C 27,4 km/h (4 Bft)
16.05.2022 15:08 20,7 C 27,2 C 68 % 1018,2 hPa 0,0 l/m 15,7 km/h (3 Bft) S-SO 155 2 min 6,2 UV-I 1060 W/m 14,6 C 17,9 C 25,7 km/h (4 Bft)
16.05.2022 15:10 20,7 C 25,6 C 68 % 1018,3 hPa 0,0 l/m 19,6 km/h (3 Bft) S-SW 206 2 min 4,1 UV-I 1090 W/m 14,6 C 17,2 C 38,6 km/h (5 Bft)
16.05.2022 15:12 20,2 C 23,9 C 67 % 1018,3 hPa 0,0 l/m 21,3 km/h (4 Bft) SW 232 2 min 3,0 UV-I 466 W/m 13,9 C 16,2 C 29,0 km/h (5 Bft)
16.05.2022 15:14 19,9 C 22,2 C 67 % 1018,4 hPa 0,0 l/m 17,0 km/h (3 Bft) SW 222 0 min 2,4 UV-I 301 W/m 13,6 C 16,7 C 29,0 km/h (5 Bft)
16.05.2022 15:16 19,7 C 21,7 C 69 % 1018,4 hPa 0,0 l/m 18,3 km/h (3 Bft) W-NW 283 0 min 2,4 UV-I 315 W/m 13,8 C 16,2 C 27,4 km/h (4 Bft)
16.05.2022 15:18 19,4 C 20,6 C 70 % 1018,5 hPa 0,0 l/m 19,9 km/h (4 Bft) W 260 0 min 1,7 UV-I 237 W/m 13,8 C 15,4 C 29,0 km/h (5 Bft)
16.05.2022 15:20 19,1 C 20,0 C 71 % 1018,5 hPa 0,0 l/m 18,7 km/h (3 Bft) SW 224 0 min 1,3 UV-I 181 W/m 13,7 C 15,3 C 40,2 km/h (6 Bft)
16.05.2022 15:22 18,8 C 19,4 C 72 % 1018,5 hPa 0,0 l/m 14,0 km/h (3 Bft) S-SW 196 0 min 1,1 UV-I 160 W/m 13,6 C 16,1 C 24,1 km/h (4 Bft)
16.05.2022 15:24 18,6 C 19,4 C 72 % 1018,5 hPa 0,0 l/m 18,9 km/h (3 Bft) S 190 0 min 1,3 UV-I 183 W/m 13,4 C 14,6 C 24,1 km/h (4 Bft)
16.05.2022 15:26 18,4 C 19,4 C 73 % 1018,5 hPa 0,0 l/m 16,5 km/h (3 Bft) W 273 0 min 1,4 UV-I 194 W/m 13,5 C 14,9 C 30,6 km/h (5 Bft)
16.05.2022 15:28 18,4 C 19,4 C 73 % 1018,6 hPa 0,0 l/m 13,8 km/h (3 Bft) SW 234 0 min 1,4 UV-I 185 W/m 13,5 C 15,6 C 24,1 km/h (4 Bft)
16.05.2022 15:30 18,5 C 19,4 C 73 % 1018,6 hPa 0,0 l/m 12,0 km/h (2 Bft) W-SW 247 0 min 1,4 UV-I 188 W/m 13,6 C 16,3 C 19,3 km/h (3 Bft)
16.05.2022 15:32 18,4 C 19,4 C 73 % 1018,7 hPa 0,0 l/m 14,8 km/h (3 Bft) SW 236 0 min 1,7 UV-I 231 W/m 13,5 C 15,4 C 24,1 km/h (4 Bft)
16.05.2022 15:34 18,5 C 19,4 C 74 % 1018,5 hPa 0,0 l/m 11,3 km/h (2 Bft) W 259 0 min 2,0 UV-I 285 W/m 13,8 C 16,5 C 24,1 km/h (4 Bft)
16.05.2022 15:36 18,7 C 20,6 C 73 % 1018,5 hPa 0,0 l/m 13,8 km/h (3 Bft) W-SW 239 0 min 3,1 UV-I 336 W/m 13,8 C 16,0 C 24,1 km/h (4 Bft)
16.05.2022 15:38 18,9 C 21,7 C 73 % 1018,6 hPa 0,0 l/m 13,0 km/h (3 Bft) SW 226 2 min 3,1 UV-I 446 W/m 13,9 C 16,5 C 20,9 km/h (4 Bft)
16.05.2022 15:40 19,0 C 21,7 C 72 % 1018,6 hPa 0,0 l/m 14,9 km/h (3 Bft) SW 224 2 min 2,8 UV-I 373 W/m 13,8 C 16,1 C 29,0 km/h (5 Bft)
16.05.2022 15:42 18,9 C 21,1 C 72 % 1018,6 hPa 0,0 l/m 14,8 km/h (3 Bft) W-SW 238 0 min 2,6 UV-I 335 W/m 13,7 C 16,0 C 27,4 km/h (4 Bft)
16.05.2022 15:44 18,9 C 21,1 C 72 % 1018,8 hPa 0,0 l/m 14,3 km/h (3 Bft) SW 236 2 min 2,9 UV-I 375 W/m 13,7 C 16,1 C 24,1 km/h (4 Bft)
16.05.2022 15:46 18,9 C 21,1 C 73 % 1018,7 hPa 0,0 l/m 14,1 km/h (3 Bft) SW 214 2 min 2,9 UV-I 353 W/m 13,9 C 16,2 C 27,4 km/h (4 Bft)
16.05.2022 15:48 18,8 C 21,1 C 72 % 1018,8 hPa 0,0 l/m 14,2 km/h (3 Bft) W-SW 244 2 min 2,9 UV-I 351 W/m 13,6 C 16,0 C 25,7 km/h (4 Bft)
16.05.2022 15:50 18,8 C 21,1 C 72 % 1018,7 hPa 0,0 l/m 19,9 km/h (4 Bft) W 271 2 min 3,0 UV-I 442 W/m 13,6 C 14,7 C 30,6 km/h (5 Bft)
16.05.2022 15:52 18,7 C 20,6 C 72 % 1018,7 hPa 0,0 l/m 21,2 km/h (4 Bft) W-SW 237 2 min 2,7 UV-I 356 W/m 13,5 C 14,3 C 32,2 km/h (5 Bft)
16.05.2022 15:54 18,7 C 20,6 C 72 % 1018,8 hPa 0,0 l/m 13,5 km/h (3 Bft) S-SW 207 0 min 2,6 UV-I 301 W/m 13,5 C 16,1 C 22,5 km/h (4 Bft)
16.05.2022 15:56 18,6 C 20,6 C 72 % 1018,7 hPa 0,0 l/m 13,7 km/h (3 Bft) SW 219 0 min 2,4 UV-I 288 W/m 13,4 C 15,9 C 25,7 km/h (4 Bft)
16.05.2022 15:58 18,6 C 20,6 C 72 % 1018,7 hPa 0,0 l/m 12,8 km/h (3 Bft) S 184 0 min 2,3 UV-I 275 W/m 13,4 C 16,2 C 19,3 km/h (3 Bft)
16.05.2022 16:00 18,6 C 20,6 C 72 % 1018,7 hPa 0,0 l/m 8,1 km/h (2 Bft) W 259 0 min 2,2 UV-I 263 W/m 13,4 C 17,8 C 12,9 km/h (3 Bft)
16.05.2022 16:02 18,6 C 20,0 C 71 % 1018,7 hPa 0,0 l/m 13,3 km/h (3 Bft) W-SW 242 0 min 2,1 UV-I 257 W/m 13,2 C 16,0 C 22,5 km/h (4 Bft)
16.05.2022 16:04 18,6 C 20,0 C 71 % 1018,8 hPa 0,0 l/m 8,0 km/h (2 Bft) S-SW 205 0 min 2,0 UV-I 249 W/m 13,2 C 17,9 C 14,5 km/h (3 Bft)
16.05.2022 16:06 18,6 C 20,0 C 71 % 1018,6 hPa 0,0 l/m 11,7 km/h (2 Bft) W-SW 249 0 min 1,9 UV-I 229 W/m 13,2 C 16,5 C 16,1 km/h (3 Bft)
16.05.2022 16:08 18,6 C 19,4 C 71 % 1018,7 hPa 0,0 l/m 9,4 km/h (2 Bft) S 186 0 min 1,5 UV-I 196 W/m 13,2 C 17,3 C 16,1 km/h (3 Bft)
16.05.2022 16:10 18,6 C 19,4 C 71 % 1018,8 hPa 0,0 l/m 10,4 km/h (2 Bft) S 189 0 min 1,3 UV-I 164 W/m 13,2 C 17,0 C 16,1 km/h (3 Bft)
16.05.2022 16:12 18,4 C 18,9 C 70 % 1018,7 hPa 0,0 l/m 11,9 km/h (2 Bft) SW 224 0 min 1,1 UV-I 131 W/m 12,8 C 16,2 C 17,7 km/h (3 Bft)
16.05.2022 16:14 18,4 C 18,9 C 70 % 1018,7 hPa 0,0 l/m 11,0 km/h (2 Bft) S-SW 213 0 min 0,8 UV-I 112 W/m 12,8 C 16,5 C 16,1 km/h (3 Bft)
16.05.2022 16:16 18,3 C 18,3 C 70 % 1018,7 hPa 0,0 l/m 11,4 km/h (2 Bft) SW 214 0 min 0,8 UV-I 103 W/m 12,7 C 16,3 C 16,1 km/h (3 Bft)
16.05.2022 16:18 18,3 C 18,3 C 70 % 1018,7 hPa 0,0 l/m 10,8 km/h (2 Bft) S-SW 200 0 min 0,7 UV-I 96 W/m 12,7 C 16,5 C 14,5 km/h (3 Bft)
16.05.2022 16:20 18,3 C 18,3 C 71 % 1018,7 hPa 0,0 l/m 5,6 km/h (1 Bft) SW 223 0 min 0,6 UV-I 90 W/m 12,9 C 18,3 C 9,7 km/h (2 Bft)
16.05.2022 16:22 18,3 C 18,3 C 71 % 1018,7 hPa 0,0 l/m 6,2 km/h (2 Bft) S-SW 200 0 min 0,6 UV-I 89 W/m 12,9 C 18,3 C 11,3 km/h (2 Bft)
16.05.2022 16:24 18,3 C 18,3 C 71 % 1018,7 hPa 0,0 l/m 7,5 km/h (2 Bft) S-SW 209 0 min 0,6 UV-I 92 W/m 12,9 C 17,8 C 12,9 km/h (3 Bft)
16.05.2022 16:26 18,3 C 18,3 C 71 % 1018,7 hPa 0,0 l/m 8,2 km/h (2 Bft) W-SW 244 0 min 0,7 UV-I 101 W/m 12,9 C 17,5 C 16,1 km/h (3 Bft)
16.05.2022 16:28 18,4 C 18,3 C 69 % 1018,8 hPa 0,0 l/m 7,1 km/h (2 Bft) SW 225 0 min 0,8 UV-I 111 W/m 12,6 C 18,1 C 11,3 km/h (2 Bft)
16.05.2022 16:30 18,4 C 18,3 C 69 % 1018,7 hPa 0,0 l/m 9,6 km/h (2 Bft) S-SW 192 0 min 0,8 UV-I 116 W/m 12,6 C 17,0 C 16,1 km/h (3 Bft)
16.05.2022 16:32 18,5 C 18,3 C 69 % 1018,8 hPa 0,0 l/m 9,3 km/h (2 Bft) SW 223 0 min 0,8 UV-I 111 W/m 12,7 C 17,2 C 16,1 km/h (3 Bft)
16.05.2022 16:34 18,5 C 18,3 C 66 % 1018,8 hPa 0,0 l/m 9,4 km/h (2 Bft) SW 224 0 min 0,7 UV-I 101 W/m 12,0 C 17,2 C 17,7 km/h (3 Bft)
16.05.2022 16:36 18,5 C 18,3 C 67 % 1018,7 hPa 0,0 l/m 7,8 km/h (2 Bft) S-SW 209 0 min 0,7 UV-I 91 W/m 12,3 C 17,9 C 16,1 km/h (3 Bft)
16.05.2022 16:38 18,5 C 18,3 C 66 % 1018,7 hPa 0,0 l/m 8,7 km/h (2 Bft) S-SW 209 0 min 0,6 UV-I 81 W/m 12,0 C 17,5 C 12,9 km/h (3 Bft)
16.05.2022 16:40 18,5 C 18,3 C 65 % 1018,7 hPa 0,0 l/m 14,6 km/h (3 Bft) S 178 0 min 0,5 UV-I 75 W/m 11,8 C 15,5 C 24,1 km/h (4 Bft)
16.05.2022 16:42 18,4 C 17,8 C 64 % 1018,8 hPa 0,0 l/m 16,7 km/h (3 Bft) S-SW 211 0 min 0,5 UV-I 74 W/m 11,5 C 14,9 C 25,7 km/h (4 Bft)
16.05.2022 16:44 18,4 C 17,8 C 65 % 1018,8 hPa 0,0 l/m 11,0 km/h (2 Bft) S-SW 194 0 min 0,5 UV-I 79 W/m 11,7 C 16,5 C 17,7 km/h (3 Bft)
16.05.2022 16:46 18,2 C 17,8 C 65 % 1018,8 hPa 0,0 l/m 13,7 km/h (3 Bft) SW 221 0 min 0,6 UV-I 86 W/m 11,5 C 15,4 C 19,3 km/h (3 Bft)
16.05.2022 16:48 18,1 C 17,2 C 66 % 1018,8 hPa 0,0 l/m 13,6 km/h (3 Bft) S-SW 211 0 min 0,6 UV-I 91 W/m 11,6 C 15,3 C 24,1 km/h (4 Bft)
16.05.2022 16:50 17,9 C 16,7 C 67 % 1019,0 hPa 0,0 l/m 13,6 km/h (3 Bft) W-SW 239 0 min 0,6 UV-I 98 W/m 11,7 C 15,1 C 19,3 km/h (3 Bft)
16.05.2022 16:52 17,7 C 16,1 C 68 % 1018,9 hPa 0,0 l/m 15,2 km/h (3 Bft) W-SW 246 0 min 0,7 UV-I 109 W/m 11,7 C 14,4 C 19,3 km/h (3 Bft)
16.05.2022 16:54 17,6 C 16,7 C 68 % 1018,8 hPa 0,0 l/m 9,4 km/h (2 Bft) SW 232 0 min 0,7 UV-I 123 W/m 11,6 C 16,2 C 16,1 km/h (3 Bft)
16.05.2022 16:56 17,5 C 16,7 C 69 % 1018,9 hPa 0,0 l/m 12,4 km/h (3 Bft) W 273 0 min 0,9 UV-I 141 W/m 11,7 C 15,0 C 25,7 km/h (4 Bft)
16.05.2022 16:58 17,5 C 17,2 C 69 % 1019,0 hPa 0,0 l/m 10,3 km/h (2 Bft) SW 233 0 min 1,0 UV-I 167 W/m 11,7 C 15,8 C 22,5 km/h (4 Bft)
16.05.2022 17:00 17,6 C 17,8 C 69 % 1018,9 hPa 0,0 l/m 10,0 km/h (2 Bft) SW 233 0 min 1,1 UV-I 192 W/m 11,8 C 16,0 C 24,1 km/h (4 Bft)
16.05.2022 17:02 17,7 C 18,3 C 69 % 1019,0 hPa 0,0 l/m 8,9 km/h (2 Bft) S 180 0 min 1,3 UV-I 209 W/m 11,9 C 16,5 C 16,1 km/h (3 Bft)
16.05.2022 17:04 17,8 C 18,3 C 69 % 1019,0 hPa 0,0 l/m 9,2 km/h (2 Bft) W-SW 240 0 min 1,3 UV-I 212 W/m 12,0 C 16,5 C 16,1 km/h (3 Bft)
16.05.2022 17:06 17,8 C 18,3 C 69 % 1019,0 hPa 0,0 l/m 10,2 km/h (2 Bft) W-SW 240 0 min 1,2 UV-I 203 W/m 12,0 C 16,1 C 17,7 km/h (3 Bft)
16.05.2022 17:08 17,9 C 18,3 C 68 % 1019,0 hPa 0,0 l/m 10,3 km/h (2 Bft) SW 234 0 min 1,1 UV-I 190 W/m 11,9 C 16,2 C 17,7 km/h (3 Bft)
16.05.2022 17:10 17,9 C 18,3 C 68 % 1019,1 hPa 0,0 l/m 13,1 km/h (3 Bft) SW 218 0 min 1,1 UV-I 179 W/m 11,9 C 15,3 C 19,3 km/h (3 Bft)
16.05.2022 17:12 18,0 C 18,3 C 69 % 1019,0 hPa 0,0 l/m 10,5 km/h (2 Bft) W-SW 258 0 min 1,0 UV-I 178 W/m 12,2 C 16,2 C 19,3 km/h (3 Bft)
16.05.2022 17:14 17,9 C 18,3 C 69 % 1019,1 hPa 0,0 l/m 15,8 km/h (3 Bft) W 262 0 min 1,1 UV-I 189 W/m 12,1 C 14,5 C 25,7 km/h (4 Bft)
16.05.2022 17:16 18,0 C 18,9 C 70 % 1019,1 hPa 0,0 l/m 11,5 km/h (2 Bft) S-SW 211 0 min 1,1 UV-I 208 W/m 12,4 C 15,9 C 20,9 km/h (4 Bft)
16.05.2022 17:18 18,0 C 18,9 C 70 % 1019,1 hPa 0,0 l/m 15,2 km/h (3 Bft) S-SW 198 0 min 1,3 UV-I 237 W/m 12,4 C 14,8 C 25,7 km/h (4 Bft)
16.05.2022 17:20 17,9 C 18,9 C 70 % 1019,2 hPa 0,0 l/m 16,1 km/h (3 Bft) S-SW 194 0 min 1,5 UV-I 284 W/m 12,3 C 14,4 C 22,5 km/h (4 Bft)
16.05.2022 17:22 18,1 C 19,4 C 70 % 1019,0 hPa 0,0 l/m 15,2 km/h (3 Bft) SW 218 2 min 1,9 UV-I 379 W/m 12,5 C 14,9 C 25,7 km/h (4 Bft)
16.05.2022 17:24 18,2 C 20,6 C 70 % 1019,1 hPa 0,0 l/m 15,8 km/h (3 Bft) SW 230 2 min 2,3 UV-I 504 W/m 12,6 C 14,9 C 22,5 km/h (4 Bft)
16.05.2022 17:26 18,5 C 22,2 C 70 % 1019,2 hPa 0,0 l/m 16,0 km/h (3 Bft) SW 221 2 min 2,9 UV-I 595 W/m 12,9 C 15,2 C 29,0 km/h (5 Bft)
16.05.2022 17:28 18,9 C 24,4 C 67 % 1019,1 hPa 0,0 l/m 13,6 km/h (3 Bft) SW 228 2 min 3,2 UV-I 747 W/m 12,6 C 16,3 C 22,5 km/h (4 Bft)
16.05.2022 17:30 19,1 C 23,9 C 66 % 1019,2 hPa 0,0 l/m 14,3 km/h (3 Bft) S-SW 205 2 min 2,4 UV-I 575 W/m 12,6 C 16,3 C 24,1 km/h (4 Bft)
16.05.2022 17:32 18,9 C 22,2 C 63 % 1019,2 hPa 0,0 l/m 15,8 km/h (3 Bft) S-SW 211 2 min 2,2 UV-I 378 W/m 11,7 C 15,7 C 25,7 km/h (4 Bft)
16.05.2022 17:34 18,8 C 22,2 C 63 % 1019,2 hPa 0,0 l/m 11,3 km/h (2 Bft) S-SW 199 2 min 2,4 UV-I 470 W/m 11,6 C 16,9 C 17,7 km/h (3 Bft)
16.05.2022 17:36 18,8 C 21,7 C 63 % 1019,2 hPa 0,0 l/m 14,3 km/h (3 Bft) SW 236 2 min 2,3 UV-I 481 W/m 11,6 C 16,0 C 24,1 km/h (4 Bft)
16.05.2022 17:38 18,8 C 21,7 C 64 % 1019,1 hPa 0,0 l/m 16,8 km/h (3 Bft) SW 226 2 min 2,0 UV-I 361 W/m 11,8 C 15,4 C 24,1 km/h (4 Bft)
16.05.2022 17:40 18,7 C 21,1 C 65 % 1019,2 hPa 0,0 l/m 14,2 km/h (3 Bft) SW 234 0 min 1,8 UV-I 291 W/m 12,0 C 15,9 C 24,1 km/h (4 Bft)
16.05.2022 17:42 18,6 C 20,6 C 65 % 1019,3 hPa 0,0 l/m 14,1 km/h (3 Bft) S-SW 213 0 min 1,6 UV-I 248 W/m 11,9 C 15,8 C 20,9 km/h (4 Bft)
16.05.2022 17:44 18,5 C 20,0 C 66 % 1019,2 hPa 0,0 l/m 8,5 km/h (2 Bft) S-SW 206 0 min 1,5 UV-I 225 W/m 12,0 C 17,6 C 17,7 km/h (3 Bft)
16.05.2022 17:46 18,4 C 20,0 C 66 % 1019,3 hPa 0,0 l/m 12,2 km/h (2 Bft) S 189 0 min 1,4 UV-I 221 W/m 11,9 C 16,1 C 25,7 km/h (4 Bft)
16.05.2022 17:48 18,3 C 20,0 C 67 % 1019,3 hPa 0,0 l/m 8,0 km/h (2 Bft) W-SW 253 0 min 1,4 UV-I 228 W/m 12,1 C 17,6 C 14,5 km/h (3 Bft)
16.05.2022 17:50 18,2 C 20,0 C 68 % 1019,3 hPa 0,0 l/m 11,7 km/h (2 Bft) W-SW 238 0 min 1,4 UV-I 260 W/m 12,2 C 16,1 C 20,9 km/h (4 Bft)
16.05.2022 17:52 18,3 C 20,6 C 68 % 1019,3 hPa 0,0 l/m 11,0 km/h (2 Bft) W 261 0 min 1,5 UV-I 299 W/m 12,3 C 16,4 C 19,3 km/h (3 Bft)
16.05.2022 17:54 18,3 C 20,6 C 68 % 1019,3 hPa 0,0 l/m 13,2 km/h (3 Bft) W 263 0 min 1,6 UV-I 307 W/m 12,3 C 15,7 C 22,5 km/h (4 Bft)
16.05.2022 17:56 18,3 C 21,1 C 68 % 1019,4 hPa 0,0 l/m 13,4 km/h (3 Bft) W-SW 257 0 min 1,7 UV-I 341 W/m 12,3 C 15,6 C 19,3 km/h (3 Bft)
16.05.2022 17:58 18,4 C 21,1 C 69 % 1019,3 hPa 0,0 l/m 10,5 km/h (2 Bft) SW 215 0 min 1,7 UV-I 327 W/m 12,6 C 16,7 C 22,5 km/h (4 Bft)
16.05.2022 18:00 18,4 C 20,6 C 69 % 1019,4 hPa 0,0 l/m 15,3 km/h (3 Bft) W 266 0 min 1,6 UV-I 302 W/m 12,6 C 15,2 C 20,9 km/h (4 Bft)
16.05.2022 18:02 18,4 C 21,1 C 69 % 1019,4 hPa 0,0 l/m 14,0 km/h (3 Bft) W-SW 246 0 min 1,5 UV-I 335 W/m 12,6 C 15,6 C 20,9 km/h (4 Bft)
16.05.2022 18:04 18,4 C 21,1 C 69 % 1019,4 hPa 0,0 l/m 7,9 km/h (2 Bft) W-SW 251 0 min 1,6 UV-I 331 W/m 12,6 C 17,7 C 16,1 km/h (3 Bft)
16.05.2022 18:06 18,4 C 20,6 C 68 % 1019,6 hPa 0,0 l/m 11,4 km/h (2 Bft) W-SW 254 0 min 1,5 UV-I 275 W/m 12,4 C 16,4 C 20,9 km/h (4 Bft)
16.05.2022 18:08 18,4 C 20,6 C 69 % 1019,5 hPa 0,0 l/m 10,7 km/h (2 Bft) S-SW 213 0 min 1,5 UV-I 290 W/m 12,6 C 16,6 C 17,7 km/h (3 Bft)
16.05.2022 18:10 18,4 C 20,6 C 69 % 1019,5 hPa 0,0 l/m 5,4 km/h (1 Bft) W 267 0 min 1,4 UV-I 237 W/m 12,6 C 18,4 C 9,7 km/h (2 Bft)
16.05.2022 18:12 18,5 C 20,0 C 70 % 1019,5 hPa 0,0 l/m 7,4 km/h (2 Bft) S-SW 199 0 min 1,3 UV-I 215 W/m 12,9 C 18,0 C 12,9 km/h (3 Bft)
16.05.2022 18:14 18,4 C 20,0 C 69 % 1019,4 hPa 0,0 l/m 9,4 km/h (2 Bft) W-SW 238 0 min 1,3 UV-I 249 W/m 12,6 C 17,1 C 16,1 km/h (3 Bft)
16.05.2022 18:16 18,4 C 20,0 C 68 % 1019,4 hPa 0,0 l/m 6,9 km/h (2 Bft) W-SW 242 0 min 1,4 UV-I 265 W/m 12,4 C 18,2 C 11,3 km/h (2 Bft)
16.05.2022 18:18 18,6 C 21,1 C 69 % 1019,5 hPa 0,0 l/m 6,8 km/h (2 Bft) S-SW 195 0 min 1,5 UV-I 314 W/m 12,8 C 18,4 C 14,5 km/h (3 Bft)
16.05.2022 18:20 18,6 C 21,7 C 69 % 1019,5 hPa 0,0 l/m 8,7 km/h (2 Bft) SW 228 0 min 1,5 UV-I 324 W/m 12,8 C 17,6 C 16,1 km/h (3 Bft)
16.05.2022 18:22 18,7 C 21,1 C 69 % 1019,5 hPa 0,0 l/m 7,7 km/h (2 Bft) W-SW 238 0 min 1,4 UV-I 262 W/m 12,9 C 18,1 C 11,3 km/h (2 Bft)
16.05.2022 18:24 18,7 C 21,1 C 68 % 1019,5 hPa 0,0 l/m 6,8 km/h (2 Bft) W-SW 248 0 min 1,3 UV-I 248 W/m 12,7 C 18,5 C 16,1 km/h (3 Bft)
16.05.2022 18:26 18,6 C 20,6 C 69 % 1019,6 hPa 0,0 l/m 10,6 km/h (2 Bft) W-SW 254 0 min 1,2 UV-I 208 W/m 12,8 C 16,9 C 20,9 km/h (4 Bft)
16.05.2022 18:28 18,5 C 20,6 C 69 % 1019,6 hPa 0,0 l/m 14,8 km/h (3 Bft) W 267 0 min 1,2 UV-I 236 W/m 12,7 C 15,5 C 22,5 km/h (4 Bft)
16.05.2022 18:30 18,5 C 20,0 C 69 % 1019,6 hPa 0,0 l/m 11,0 km/h (2 Bft) SW 229 0 min 1,2 UV-I 230 W/m 12,7 C 16,6 C 17,7 km/h (3 Bft)
16.05.2022 18:32 18,5 C 20,0 C 68 % 1019,5 hPa 0,0 l/m 12,6 km/h (3 Bft) W 259 0 min 1,2 UV-I 242 W/m 12,5 C 16,1 C 20,9 km/h (4 Bft)
16.05.2022 18:34 18,4 C 20,0 C 68 % 1019,5 hPa 0,0 l/m 19,6 km/h (3 Bft) W-SW 255 0 min 1,2 UV-I 253 W/m 12,4 C 14,2 C 27,4 km/h (4 Bft)
16.05.2022 18:36 18,5 C 20,0 C 68 % 1019,5 hPa 0,0 l/m 17,1 km/h (3 Bft) W-SW 249 0 min 1,3 UV-I 319 W/m 12,5 C 14,9 C 24,1 km/h (4 Bft)
16.05.2022 18:38 18,6 C 20,6 C 69 % 1019,5 hPa 0,0 l/m 10,2 km/h (2 Bft) W-SW 245 2 min 1,4 UV-I 375 W/m 12,8 C 17,0 C 16,1 km/h (3 Bft)
16.05.2022 18:40 18,7 C 20,6 C 68 % 1019,6 hPa 0,0 l/m 15,6 km/h (3 Bft) W 263 0 min 1,3 UV-I 334 W/m 12,7 C 15,5 C 25,7 km/h (4 Bft)
16.05.2022 18:42 18,7 C 20,6 C 67 % 1019,5 hPa 0,0 l/m 13,7 km/h (3 Bft) S 188 0 min 1,3 UV-I 300 W/m 12,4 C 16,0 C 22,5 km/h (4 Bft)
16.05.2022 18:44 18,8 C 20,0 C 68 % 1019,6 hPa 0,0 l/m 12,4 km/h (3 Bft) S-SW 212 0 min 1,3 UV-I 304 W/m 12,8 C 16,5 C 20,9 km/h (4 Bft)
16.05.2022 18:46 18,8 C 20,0 C 67 % 1019,4 hPa 0,0 l/m 12,6 km/h (3 Bft) SW 223 2 min 1,4 UV-I 367 W/m 12,5 C 16,5 C 19,3 km/h (3 Bft)
16.05.2022 18:48 18,8 C 20,6 C 67 % 1019,5 hPa 0,0 l/m 12,4 km/h (3 Bft) W-SW 238 2 min 1,4 UV-I 390 W/m 12,5 C 16,5 C 19,3 km/h (3 Bft)
16.05.2022 18:50 18,9 C 20,6 C 68 % 1019,5 hPa 0,0 l/m 10,9 km/h (2 Bft) W 261 2 min 1,3 UV-I 403 W/m 12,9 C 17,1 C 19,3 km/h (3 Bft)
16.05.2022 18:52 18,8 C 20,0 C 68 % 1019,5 hPa 0,0 l/m 10,9 km/h (2 Bft) W 260 0 min 1,0 UV-I 225 W/m 12,8 C 17,0 C 17,7 km/h (3 Bft)
16.05.2022 18:54 18,8 C 19,4 C 68 % 1019,5 hPa 0,0 l/m 9,9 km/h (2 Bft) S-SW 206 0 min 0,9 UV-I 149 W/m 12,8 C 17,4 C 19,3 km/h (3 Bft)
16.05.2022 18:56 18,7 C 19,4 C 68 % 1019,5 hPa 0,0 l/m 12,3 km/h (3 Bft) W 271 0 min 1,0 UV-I 193 W/m 12,7 C 16,4 C 17,7 km/h (3 Bft)
16.05.2022 18:58 18,6 C 20,0 C 68 % 1019,6 hPa 0,0 l/m 12,3 km/h (3 Bft) W-SW 256 0 min 1,0 UV-I 200 W/m 12,6 C 16,3 C 19,3 km/h (3 Bft)
16.05.2022 19:00 18,7 C 20,6 C 69 % 1019,5 hPa 0,0 l/m 7,4 km/h (2 Bft) SW 225 2 min 1,3 UV-I 374 W/m 12,9 C 18,2 C 16,1 km/h (3 Bft)
16.05.2022 19:02 18,9 C 20,6 C 68 % 1019,6 hPa 0,0 l/m 11,6 km/h (2 Bft) W-SW 248 2 min 1,3 UV-I 399 W/m 12,9 C 16,9 C 19,3 km/h (3 Bft)
16.05.2022 19:04 19,1 C 21,1 C 68 % 1019,5 hPa 0,0 l/m 6,9 km/h (2 Bft) W-SW 246 2 min 1,3 UV-I 395 W/m 13,1 C 18,9 C 20,9 km/h (4 Bft)
16.05.2022 19:06 19,2 C 21,7 C 67 % 1019,6 hPa 0,0 l/m 8,3 km/h (2 Bft) SW 214 2 min 1,3 UV-I 387 W/m 12,9 C 18,4 C 17,7 km/h (3 Bft)
16.05.2022 19:08 19,2 C 21,7 C 66 % 1019,6 hPa 0,0 l/m 10,8 km/h (2 Bft) S-SW 202 2 min 1,2 UV-I 365 W/m 12,7 C 17,5 C 19,3 km/h (3 Bft)
16.05.2022 19:10 19,2 C 21,7 C 66 % 1019,6 hPa 0,0 l/m 11,9 km/h (2 Bft) W 277 2 min 1,2 UV-I 374 W/m 12,7 C 17,1 C 19,3 km/h (3 Bft)
16.05.2022 19:12 19,3 C 21,7 C 66 % 1019,6 hPa 0,0 l/m 11,7 km/h (2 Bft) SW 235 2 min 1,1 UV-I 351 W/m 12,8 C 17,3 C 20,9 km/h (4 Bft)
16.05.2022 19:14 19,2 C 21,1 C 64 % 1019,7 hPa 0,0 l/m 15,3 km/h (3 Bft) W-SW 254 0 min 1,0 UV-I 281 W/m 12,2 C 16,2 C 32,2 km/h (5 Bft)
16.05.2022 19:16 19,1 C 20,6 C 63 % 1019,7 hPa 0,0 l/m 15,3 km/h (3 Bft) W 273 0 min 0,9 UV-I 228 W/m 11,9 C 16,1 C 22,5 km/h (4 Bft)
16.05.2022 19:18 18,9 C 20,0 C 63 % 1019,7 hPa 0,0 l/m 15,7 km/h (3 Bft) W-SW 239 0 min 1,0 UV-I 286 W/m 11,7 C 15,7 C 24,1 km/h (4 Bft)
16.05.2022 19:20 18,9 C 20,6 C 64 % 1019,8 hPa 0,0 l/m 9,8 km/h (2 Bft) W 266 0 min 1,0 UV-I 294 W/m 11,9 C 17,5 C 16,1 km/h (3 Bft)
16.05.2022 19:22 19,0 C 20,6 C 64 % 1019,9 hPa 0,0 l/m 8,5 km/h (2 Bft) W-SW 257 0 min 0,9 UV-I 284 W/m 12,0 C 18,1 C 16,1 km/h (3 Bft)
16.05.2022 19:24 19,1 C 21,1 C 64 % 1019,8 hPa 0,0 l/m 9,9 km/h (2 Bft) W-SW 255 0 min 0,9 UV-I 275 W/m 12,1 C 17,7 C 17,7 km/h (3 Bft)
16.05.2022 19:26 19,0 C 21,1 C 63 % 1019,8 hPa 0,0 l/m 14,3 km/h (3 Bft) SW 214 0 min 0,9 UV-I 260 W/m 11,8 C 16,2 C 19,3 km/h (3 Bft)
16.05.2022 19:28 18,9 C 20,6 C 63 % 1019,9 hPa 0,0 l/m 18,8 km/h (3 Bft) W 267 0 min 0,8 UV-I 240 W/m 11,7 C 15,0 C 27,4 km/h (4 Bft)
16.05.2022 19:30 18,8 C 20,0 C 64 % 1019,9 hPa 0,0 l/m 11,9 km/h (2 Bft) W 261 0 min 0,8 UV-I 229 W/m 11,8 C 16,7 C 20,9 km/h (4 Bft)
16.05.2022 19:32 18,8 C 20,0 C 64 % 1019,9 hPa 0,0 l/m 13,2 km/h (3 Bft) W-SW 244 0 min 0,7 UV-I 222 W/m 11,8 C 16,3 C 22,5 km/h (4 Bft)
16.05.2022 19:34 18,8 C 19,4 C 63 % 1019,8 hPa 0,0 l/m 14,0 km/h (3 Bft) W 260 0 min 0,7 UV-I 211 W/m 11,6 C 16,1 C 24,1 km/h (4 Bft)
16.05.2022 19:36 18,7 C 19,4 C 64 % 1019,8 hPa 0,0 l/m 11,3 km/h (2 Bft) W-SW 257 0 min 0,7 UV-I 204 W/m 11,7 C 16,8 C 19,3 km/h (3 Bft)
16.05.2022 19:38 18,7 C 19,4 C 65 % 1019,8 hPa 0,0 l/m 9,6 km/h (2 Bft) W-SW 246 0 min 0,7 UV-I 196 W/m 12,0 C 17,4 C 17,7 km/h (3 Bft)
16.05.2022 19:40 18,6 C 19,4 C 65 % 1019,9 hPa 0,0 l/m 9,1 km/h (2 Bft) W-SW 241 0 min 0,6 UV-I 182 W/m 11,9 C 17,4 C 14,5 km/h (3 Bft)
16.05.2022 19:42 18,5 C 19,4 C 65 % 1019,9 hPa 0,0 l/m 15,2 km/h (3 Bft) SW 232 0 min 0,6 UV-I 178 W/m 11,8 C 15,4 C 24,1 km/h (4 Bft)
16.05.2022 19:44 18,4 C 19,4 C 64 % 1019,8 hPa 0,0 l/m 12,7 km/h (3 Bft) W-SW 257 0 min 0,6 UV-I 168 W/m 11,5 C 16,0 C 20,9 km/h (4 Bft)
16.05.2022 19:46 18,4 C 18,9 C 65 % 1019,9 hPa 0,0 l/m 12,1 km/h (2 Bft) W 262 0 min 0,6 UV-I 162 W/m 11,7 C 16,2 C 20,9 km/h (4 Bft)
16.05.2022 19:48 18,3 C 18,9 C 65 % 1019,9 hPa 0,0 l/m 12,0 km/h (2 Bft) SW 221 0 min 0,5 UV-I 157 W/m 11,6 C 16,1 C 17,7 km/h (3 Bft)
16.05.2022 19:50 18,3 C 18,3 C 66 % 1020,0 hPa 0,0 l/m 11,9 km/h (2 Bft) W-SW 243 0 min 0,5 UV-I 153 W/m 11,8 C 16,1 C 20,9 km/h (4 Bft)
16.05.2022 19:52 18,2 C 18,3 C 66 % 1020,0 hPa 0,0 l/m 10,6 km/h (2 Bft) S 189 0 min 0,5 UV-I 147 W/m 11,7 C 16,4 C 17,7 km/h (3 Bft)
16.05.2022 19:54 18,2 C 17,8 C 66 % 1020,0 hPa 0,0 l/m 8,6 km/h (2 Bft) W 275 0 min 0,5 UV-I 139 W/m 11,7 C 17,2 C 17,7 km/h (3 Bft)
16.05.2022 19:56 18,2 C 17,2 C 66 % 1020,1 hPa 0,0 l/m 10,8 km/h (2 Bft) SW 231 0 min 0,5 UV-I 131 W/m 11,7 C 16,4 C 17,7 km/h (3 Bft)
16.05.2022 19:58 18,1 C 17,2 C 66 % 1020,0 hPa 0,0 l/m 8,2 km/h (2 Bft) W-SW 246 0 min 0,0 UV-I 122 W/m 11,6 C 17,3 C 16,1 km/h (3 Bft)
16.05.2022 20:00 18,1 C 17,2 C 65 % 1020,1 hPa 0,0 l/m 14,0 km/h (3 Bft) W-SW 254 0 min 0,0 UV-I 115 W/m 11,4 C 15,2 C 19,3 km/h (3 Bft)
16.05.2022 20:02 18,0 C 16,7 C 65 % 1020,2 hPa 0,0 l/m 13,7 km/h (3 Bft) W-NW 291 0 min 0,0 UV-I 111 W/m 11,3 C 15,2 C 22,5 km/h (4 Bft)
16.05.2022 20:04 17,9 C 16,7 C 65 % 1020,1 hPa 0,0 l/m 12,8 km/h (3 Bft) W 269 0 min 0,0 UV-I 106 W/m 11,2 C 15,4 C 19,3 km/h (3 Bft)
16.05.2022 20:06 17,9 C 16,7 C 65 % 1020,1 hPa 0,0 l/m 9,5 km/h (2 Bft) W 270 0 min 0,0 UV-I 97 W/m 11,2 C 16,5 C 14,5 km/h (3 Bft)
16.05.2022 20:08 17,8 C 16,7 C 66 % 1020,0 hPa 0,0 l/m 12,7 km/h (3 Bft) W-SW 253 0 min 0,0 UV-I 62 W/m 11,4 C 15,3 C 19,3 km/h (3 Bft)
16.05.2022 20:10 17,8 C 16,7 C 66 % 1020,1 hPa 0,0 l/m 10,9 km/h (2 Bft) W-SW 242 0 min 0,0 UV-I 35 W/m 11,4 C 15,9 C 17,7 km/h (3 Bft)
16.05.2022 20:12 17,7 C 16,7 C 66 % 1020,1 hPa 0,0 l/m 10,0 km/h (2 Bft) W-SW 239 0 min 0,0 UV-I 27 W/m 11,3 C 16,1 C 16,1 km/h (3 Bft)
16.05.2022 20:14 17,7 C 16,1 C 66 % 1020,3 hPa 0,0 l/m 11,2 km/h (2 Bft) W-SW 247 0 min 0,0 UV-I 26 W/m 11,3 C 15,7 C 17,7 km/h (3 Bft)
16.05.2022 20:16 17,6 C 16,1 C 66 % 1020,2 hPa 0,0 l/m 9,9 km/h (2 Bft) W-SW 242 0 min 0,0 UV-I 25 W/m 11,2 C 16,0 C 14,5 km/h (3 Bft)
16.05.2022 20:18 17,6 C 16,1 C 66 % 1020,3 hPa 0,0 l/m 11,4 km/h (2 Bft) W 275 0 min 0,0 UV-I 24 W/m 11,2 C 15,5 C 17,7 km/h (3 Bft)
16.05.2022 20:20 17,5 C 16,1 C 66 % 1020,3 hPa 0,0 l/m 11,4 km/h (2 Bft) W-SW 249 0 min 0,0 UV-I 23 W/m 11,1 C 15,4 C 22,5 km/h (4 Bft)
16.05.2022 20:22 17,4 C 16,1 C 66 % 1020,2 hPa 0,0 l/m 10,8 km/h (2 Bft) W 274 0 min 0,0 UV-I 23 W/m 11,0 C 15,5 C 17,7 km/h (3 Bft)
16.05.2022 20:24 17,4 C 16,1 C 65 % 1020,3 hPa 0,0 l/m 11,9 km/h (2 Bft) SW 216 0 min 0,0 UV-I 22 W/m 10,8 C 15,1 C 20,9 km/h (4 Bft)
16.05.2022 20:26 17,4 C 16,1 C 65 % 1020,4 hPa 0,0 l/m 12,1 km/h (2 Bft) W-SW 248 0 min 0,0 UV-I 21 W/m 10,8 C 15,0 C 17,7 km/h (3 Bft)
16.05.2022 20:28 17,4 C 16,1 C 65 % 1020,3 hPa 0,0 l/m 8,0 km/h (2 Bft) W-SW 246 0 min 0,0 UV-I 21 W/m 10,8 C 16,6 C 12,9 km/h (3 Bft)
16.05.2022 20:30 17,3 C 16,1 C 66 % 1020,4 hPa 0,0 l/m 6,5 km/h (2 Bft) SW 232 0 min 0,0 UV-I 19 W/m 10,9 C 17,3 C 11,3 km/h (2 Bft)
16.05.2022 20:32 17,2 C 16,1 C 66 % 1020,3 hPa 0,0 l/m 6,4 km/h (2 Bft) W-SW 246 0 min 0,0 UV-I 19 W/m 10,8 C 17,2 C 11,3 km/h (2 Bft)
16.05.2022 20:34 17,1 C 15,6 C 67 % 1020,3 hPa 0,0 l/m 5,6 km/h (1 Bft) W 259 0 min 0,0 UV-I 19 W/m 10,9 C 17,1 C 9,7 km/h (2 Bft)
16.05.2022 20:36 16,9 C 15,6 C 67 % 1020,4 hPa 0,0 l/m 9,1 km/h (2 Bft) W-NW 283 0 min 0,0 UV-I 18 W/m 10,7 C 15,6 C 12,9 km/h (3 Bft)
16.05.2022 20:38 16,9 C 15,6 C 66 % 1020,5 hPa 0,0 l/m 6,4 km/h (2 Bft) SW 219 0 min 0,0 UV-I 18 W/m 10,5 C 16,9 C 12,9 km/h (3 Bft)
16.05.2022 20:40 16,9 C 15,0 C 67 % 1020,4 hPa 0,0 l/m 8,4 km/h (2 Bft) SW 236 0 min 0,0 UV-I 18 W/m 10,7 C 15,9 C 14,5 km/h (3 Bft)
16.05.2022 20:42 16,8 C 15,0 C 67 % 1020,6 hPa 0,0 l/m 7,8 km/h (2 Bft) W 268 0 min 0,0 UV-I 16 W/m 10,6 C 16,1 C 12,9 km/h (3 Bft)
16.05.2022 20:44 16,8 C 15,0 C 67 % 1020,6 hPa 0,0 l/m 10,5 km/h (2 Bft) W-SW 242 0 min 0,0 UV-I 16 W/m 10,6 C 14,9 C 14,5 km/h (3 Bft)
16.05.2022 20:46 16,7 C 15,0 C 67 % 1020,6 hPa 0,0 l/m 5,5 km/h (1 Bft) W 265 0 min 0,0 UV-I 15 W/m 10,5 C 16,7 C 9,7 km/h (2 Bft)
16.05.2022 20:48 16,6 C 15,0 C 68 % 1020,7 hPa 0,0 l/m 7,7 km/h (2 Bft) W 265 0 min 0,0 UV-I 14 W/m 10,7 C 15,9 C 11,3 km/h (2 Bft)
16.05.2022 20:50 16,6 C 15,0 C 68 % 1020,7 hPa 0,0 l/m 8,4 km/h (2 Bft) W-SW 254 0 min 0,0 UV-I 14 W/m 10,7 C 15,6 C 11,3 km/h (2 Bft)
16.05.2022 20:52 16,6 C 15,0 C 68 % 1020,6 hPa 0,0 l/m 6,0 km/h (2 Bft) W 259 0 min 0,0 UV-I 12 W/m 10,7 C 16,6 C 9,7 km/h (2 Bft)
16.05.2022 20:54 16,4 C 14,4 C 68 % 1020,6 hPa 0,0 l/m 4,6 km/h (1 Bft) W-SW 244 0 min 0,0 UV-I 12 W/m 10,5 C 16,4 C 6,4 km/h (2 Bft)
16.05.2022 20:56 16,4 C 13,9 C 68 % 1020,7 hPa 0,0 l/m 5,7 km/h (1 Bft) W-SW 252 0 min 0,0 UV-I 12 W/m 10,5 C 16,4 C 6,4 km/h (2 Bft)
16.05.2022 20:58 16,3 C 13,9 C 68 % 1020,7 hPa 0,0 l/m 9,3 km/h (2 Bft) W 259 0 min 0,0 UV-I 11 W/m 10,4 C 14,9 C 14,5 km/h (3 Bft)
16.05.2022 21:00 16,3 C 13,9 C 68 % 1020,7 hPa 0,0 l/m 5,9 km/h (2 Bft) W 261 0 min 0,0 UV-I 11 W/m 10,4 C 16,3 C 9,7 km/h (2 Bft)
16.05.2022 21:02 16,2 C 13,9 C 68 % 1020,8 hPa 0,0 l/m 5,2 km/h (1 Bft) W 259 0 min 0,0 UV-I 9 W/m 10,3 C 16,2 C 8,0 km/h (2 Bft)
16.05.2022 21:04 16,1 C 13,9 C 68 % 1020,8 hPa 0,0 l/m 5,6 km/h (1 Bft) W-SW 253 0 min 0,0 UV-I 9 W/m 10,2 C 16,1 C 9,7 km/h (2 Bft)
16.05.2022 21:06 16,1 C 13,9 C 68 % 1020,8 hPa 0,0 l/m 6,4 km/h (2 Bft) W 265 0 min 0,0 UV-I 8 W/m 10,2 C 16,1 C 9,7 km/h (2 Bft)
16.05.2022 21:08 16,0 C 13,9 C 68 % 1020,8 hPa 0,0 l/m 6,9 km/h (2 Bft) W-SW 254 0 min 0,0 UV-I 7 W/m 10,1 C 15,7 C 12,9 km/h (3 Bft)
16.05.2022 21:10 16,0 C 13,3 C 68 % 1020,9 hPa 0,0 l/m 6,6 km/h (2 Bft) W 267 0 min 0,0 UV-I 6 W/m 10,1 C 15,9 C 11,3 km/h (2 Bft)
16.05.2022 21:12 15,9 C 13,3 C 69 % 1020,9 hPa 0,0 l/m 5,6 km/h (1 Bft) W-SW 252 0 min 0,0 UV-I 5 W/m 10,2 C 15,9 C 8,0 km/h (2 Bft)
16.05.2022 21:14 15,9 C 13,3 C 69 % 1021,0 hPa 0,0 l/m 6,8 km/h (2 Bft) W 259 0 min 0,0 UV-I 5 W/m 10,2 C 15,7 C 12,9 km/h (3 Bft)
16.05.2022 21:16 15,8 C 12,8 C 69 % 1021,0 hPa 0,0 l/m 5,5 km/h (1 Bft) W-SW 252 0 min 0,0 UV-I 3 W/m 10,1 C 15,8 C 6,4 km/h (2 Bft)
16.05.2022 21:18 15,8 C 12,8 C 69 % 1021,0 hPa 0,0 l/m 4,4 km/h (1 Bft) W-SW 253 0 min 0,0 UV-I 0 W/m 10,1 C 15,8 C 6,4 km/h (2 Bft)
16.05.2022 21:20 15,7 C 12,2 C 69 % 1021,0 hPa 0,0 l/m 3,5 km/h (1 Bft) W-SW 253 0 min 0,0 UV-I 0 W/m 10,0 C 15,7 C 6,4 km/h (2 Bft)
16.05.2022 21:22 15,4 C 11,7 C 70 % 1021,2 hPa 0,0 l/m 2,2 km/h (1 Bft) W-SW 253 0 min 0,0 UV-I 0 W/m 10,0 C 15,4 C 4,8 km/h (1 Bft)
16.05.2022 21:24 15,2 C 11,7 C 70 % 1021,2 hPa 0,0 l/m 2,0 km/h (1 Bft) W-SW 253 0 min 0,0 UV-I 0 W/m 9,8 C 15,2 C 4,8 km/h (1 Bft)
16.05.2022 21:26 14,9 C 11,1 C 72 % 1021,2 hPa 0,0 l/m 2,5 km/h (1 Bft) W-SW 253 0 min 0,0 UV-I 0 W/m 9,9 C 14,9 C 3,2 km/h (1 Bft)
16.05.2022 21:28 14,8 C 11,1 C 72 % 1021,2 hPa 0,0 l/m 2,4 km/h (1 Bft) W-SW 253 0 min 0,0 UV-I 0 W/m 9,8 C 14,8 C 4,8 km/h (1 Bft)
16.05.2022 21:30 14,6 C 11,1 C 73 % 1021,3 hPa 0,0 l/m 2,1 km/h (1 Bft) W-SW 253 0 min 0,0 UV-I 0 W/m 9,8 C 14,6 C 3,2 km/h (1 Bft)
16.05.2022 21:32 14,3 C 11,1 C 73 % 1021,2 hPa 0,0 l/m 1,6 km/h (1 Bft) W-SW 253 0 min 0,0 UV-I 0 W/m 9,5 C 14,3 C 3,2 km/h (1 Bft)
16.05.2022 21:34 14,2 C 10,6 C 74 % 1021,2 hPa 0,0 l/m 1,8 km/h (1 Bft) W-SW 253 0 min 0,0 UV-I 0 W/m 9,6 C 14,2 C 3,2 km/h (1 Bft)
16.05.2022 21:36 14,0 C 10,6 C 75 % 1021,2 hPa 0,0 l/m 2,0 km/h (1 Bft) W-SW 253 0 min 0,0 UV-I 0 W/m 9,6 C 14,0 C 3,2 km/h (1 Bft)
16.05.2022 21:38 13,9 C 10,6 C 75 % 1021,3 hPa 0,0 l/m 1,8 km/h (1 Bft) W-SW 253 0 min 0,0 UV-I 0 W/m 9,5 C 13,9 C 3,2 km/h (1 Bft)
16.05.2022 21:40 13,7 C 10,0 C 76 % 1021,2 hPa 0,0 l/m 3,0 km/h (1 Bft) W-SW 253 0 min 0,0 UV-I 0 W/m 9,5 C 13,7 C 4,8 km/h (1 Bft)
16.05.2022 21:42 13,7 C 10,0 C 76 % 1021,3 hPa 0,0 l/m 3,1 km/h (1 Bft) W-SW 253 0 min 0,0 UV-I 0 W/m 9,5 C 13,7 C 4,8 km/h (1 Bft)
16.05.2022 21:44 13,7 C 10,0 C 76 % 1021,4 hPa 0,0 l/m 2,3 km/h (1 Bft) W-SW 253 0 min 0,0 UV-I 0 W/m 9,5 C 13,7 C 3,2 km/h (1 Bft)
16.05.2022 21:46 13,7 C 10,0 C 76 % 1021,3 hPa 0,0 l/m 2,5 km/h (1 Bft) W-SW 253 0 min 0,0 UV-I 0 W/m 9,5 C 13,7 C 3,2 km/h (1 Bft)
16.05.2022 21:48 13,7 C 10,0 C 76 % 1021,4 hPa 0,0 l/m 3,2 km/h (1 Bft) W-SW 253 0 min 0,0 UV-I 0 W/m 9,5 C 13,7 C 4,8 km/h (1 Bft)
16.05.2022 21:50 13,7 C 10,6 C 76 % 1021,4 hPa 0,0 l/m 2,7 km/h (1 Bft) W-SW 253 0 min 0,0 UV-I 0 W/m 9,5 C 13,7 C 3,2 km/h (1 Bft)
16.05.2022 21:52 13,7 C 10,6 C 76 % 1021,4 hPa 0,0 l/m 2,3 km/h (1 Bft) W-SW 253 0 min 0,0 UV-I 0 W/m 9,5 C 13,7 C 3,2 km/h (1 Bft)
16.05.2022 21:54 13,7 C 10,6 C 76 % 1021,4 hPa 0,0 l/m 2,2 km/h (1 Bft) W-SW 253 0 min 0,0 UV-I 0 W/m 9,5 C 13,7 C 3,2 km/h (1 Bft)
16.05.2022 21:56 13,6 C 10,6 C 76 % 1021,5 hPa 0,0 l/m 2,5 km/h (1 Bft) W-SW 253 0 min 0,0 UV-I 0 W/m 9,4 C 13,6 C 3,2 km/h (1 Bft)
16.05.2022 21:58 13,6 C 10,0 C 76 % 1021,5 hPa 0,0 l/m 2,3 km/h (1 Bft) W-SW 253 0 min 0,0 UV-I 0 W/m 9,4 C 13,6 C 3,2 km/h (1 Bft)
16.05.2022 22:00 13,6 C 10,0 C 76 % 1021,4 hPa 0,0 l/m 2,1 km/h (1 Bft) W-SW 253 0 min 0,0 UV-I 0 W/m 9,4 C 13,6 C 3,2 km/h (1 Bft)
16.05.2022 22:02 13,4 C 10,0 C 76 % 1021,6 hPa 0,0 l/m 1,8 km/h (1 Bft) W-SW 253 0 min 0,0 UV-I 0 W/m 9,3 C 13,4 C 3,2 km/h (1 Bft)
16.05.2022 22:04 13,3 C 10,0 C 77 % 1021,6 hPa 0,0 l/m 1,0 km/h (0 Bft) W-SW 253 0 min 0,0 UV-I 0 W/m 9,4 C 13,3 C 1,6 km/h (1 Bft)
16.05.2022 22:06 13,1 C 9,4 C 77 % 1021,6 hPa 0,0 l/m 0,0 km/h (0 Bft) W-SW 253 0 min 0,0 UV-I 0 W/m 9,2 C 13,1 C 1,6 km/h (1 Bft)
16.05.2022 22:08 12,7 C 9,4 C 78 % 1021,5 hPa 0,0 l/m 0,0 km/h (0 Bft) W-SW 253 0 min 0,0 UV-I 0 W/m 9,0 C 12,7 C 0,0 km/h (0 Bft)
16.05.2022 22:10 12,6 C 9,4 C 79 % 1021,6 hPa 0,0 l/m 0,0 km/h (0 Bft) W-SW 253 0 min 0,0 UV-I 0 W/m 9,1 C 12,6 C 0,0 km/h (0 Bft)
16.05.2022 22:12 12,3 C 8,9 C 79 % 1021,6 hPa 0,0 l/m 0,1 km/h (0 Bft) W-SW 253 0 min 0,0 UV-I 0 W/m 8,8 C 12,3 C 1,6 km/h (1 Bft)
16.05.2022 22:14 12,2 C 8,9 C 80 % 1021,7 hPa 0,0 l/m 0,7 km/h (0 Bft) W-SW 253 0 min 0,0 UV-I 0 W/m 8,9 C 12,2 C 1,6 km/h (1 Bft)
16.05.2022 22:16 12,1 C 8,9 C 80 % 1021,6 hPa 0,0 l/m 1,6 km/h (1 Bft) W-SW 253 0 min 0,0 UV-I 0 W/m 8,8 C 12,1 C 3,2 km/h (1 Bft)
16.05.2022 22:18 12,0 C 8,9 C 81 % 1021,7 hPa 0,0 l/m 2,8 km/h (1 Bft) W-SW 253 0 min 0,0 UV-I 0 W/m 8,8 C 12,0 C 3,2 km/h (1 Bft)
16.05.2022 22:20 12,1 C 8,9 C 81 % 1021,6 hPa 0,0 l/m 2,1 km/h (1 Bft) W-SW 253 0 min 0,0 UV-I 0 W/m 8,9 C 12,1 C 3,2 km/h (1 Bft)
16.05.2022 22:22 12,0 C 8,3 C 80 % 1021,6 hPa 0,0 l/m 1,4 km/h (1 Bft) W-SW 253 0 min 0,0 UV-I 0 W/m 8,7 C 12,0 C 3,2 km/h (1 Bft)
16.05.2022 22:24 11,8 C 8,3 C 81 % 1021,7 hPa 0,0 l/m 0,4 km/h (0 Bft) W-SW 253 0 min 0,0 UV-I 0 W/m 8,6 C 11,8 C 1,6 km/h (1 Bft)
16.05.2022 22:26 11,8 C 8,9 C 81 % 1021,6 hPa 0,0 l/m 0,7 km/h (0 Bft) W-SW 253 0 min 0,0 UV-I 0 W/m 8,6 C 11,8 C 1,6 km/h (1 Bft)
16.05.2022 22:28 11,8 C 8,9 C 81 % 1021,6 hPa 0,0 l/m 1,1 km/h (1 Bft) W-SW 253 0 min 0,0 UV-I 0 W/m 8,6 C 11,8 C 1,6 km/h (1 Bft)
16.05.2022 22:30 11,9 C 8,9 C 82 % 1021,6 hPa 0,0 l/m 0,1 km/h (0 Bft) W-SW 253 0 min 0,0 UV-I 0 W/m 8,9 C 11,9 C 1,6 km/h (1 Bft)
16.05.2022 22:32 12,0 C 8,9 C 81 % 1021,6 hPa 0,0 l/m 0,0 km/h (0 Bft) W-SW 253 0 min 0,0 UV-I 0 W/m 8,8 C 12,0 C 0,0 km/h (0 Bft)
16.05.2022 22:34 12,1 C 8,9 C 81 % 1021,6 hPa 0,0 l/m 0,0 km/h (0 Bft) W-SW 253 0 min 0,0 UV-I 0 W/m 8,9 C 12,1 C 0,0 km/h (0 Bft)
16.05.2022 22:36 12,2 C 8,9 C 81 % 1021,7 hPa 0,0 l/m 0,0 km/h (0 Bft) W-SW 253 0 min 0,0 UV-I 0 W/m 9,0 C 12,2 C 0,0 km/h (0 Bft)
16.05.2022 22:38 12,1 C 8,9 C 81 % 1021,7 hPa 0,0 l/m 0,0 km/h (0 Bft) W-SW 253 0 min 0,0 UV-I 0 W/m 8,9 C 12,1 C 0,0 km/h (0 Bft)
16.05.2022 22:40 11,9 C 8,9 C 81 % 1021,7 hPa 0,0 l/m 0,0 km/h (0 Bft) W-SW 253 0 min 0,0 UV-I 0 W/m 8,7 C 11,9 C 0,0 km/h (0 Bft)
16.05.2022 22:42 11,9 C 8,9 C 82 % 1021,7 hPa 0,0 l/m 0,0 km/h (0 Bft) W-SW 253 0 min 0,0 UV-I 0 W/m 8,9 C 11,9 C 0,0 km/h (0 Bft)
16.05.2022 22:44 11,9 C 8,9 C 82 % 1021,7 hPa 0,0 l/m 0,0 km/h (0 Bft) W-SW 253 0 min 0,0 UV-I 0 W/m 8,9 C 11,9 C 0,0 km/h (0 Bft)
16.05.2022 22:46 11,8 C 8,3 C 81 % 1021,7 hPa 0,0 l/m 0,0 km/h (0 Bft) W-SW 253 0 min 0,0 UV-I 0 W/m 8,6 C 11,8 C 0,0 km/h (0 Bft)
16.05.2022 22:48 11,7 C 8,3 C 82 % 1021,7 hPa 0,0 l/m 0,0 km/h (0 Bft) W-SW 253 0 min 0,0 UV-I 0 W/m 8,7 C 11,7 C 0,0 km/h (0 Bft)
16.05.2022 22:50 11,7 C 8,3 C 82 % 1021,7 hPa 0,0 l/m 0,0 km/h (0 Bft) W-SW 253 0 min 0,0 UV-I 0 W/m 8,7 C 11,7 C 0,0 km/h (0 Bft)
16.05.2022 22:52 11,7 C 7,8 C 82 % 1021,7 hPa 0,0 l/m 0,0 km/h (0 Bft) W-SW 253 0 min 0,0 UV-I 0 W/m 8,7 C 11,7 C 0,0 km/h (0 Bft)
16.05.2022 22:54 11,7 C 7,8 C 82 % 1021,8 hPa 0,0 l/m 0,0 km/h (0 Bft) W-SW 253 0 min 0,0 UV-I 0 W/m 8,7 C 11,7 C 0,0 km/h (0 Bft)
16.05.2022 22:56 11,7 C 7,8 C 82 % 1021,8 hPa 0,0 l/m 0,0 km/h (0 Bft) W-SW 253 0 min 0,0 UV-I 0 W/m 8,7 C 11,7 C 0,0 km/h (0 Bft)
16.05.2022 22:58 11,7 C 8,3 C 82 % 1021,9 hPa 0,0 l/m 0,0 km/h (0 Bft) W-SW 253 0 min 0,0 UV-I 0 W/m 8,7 C 11,7 C 0,0 km/h (0 Bft)
16.05.2022 23:00 11,6 C 8,3 C 82 % 1021,8 hPa 0,0 l/m 0,0 km/h (0 Bft) W-SW 253 0 min 0,0 UV-I 0 W/m 8,6 C 11,6 C 0,0 km/h (0 Bft)
16.05.2022 23:02 11,4 C 7,8 C 82 % 1022,0 hPa 0,0 l/m 0,0 km/h (0 Bft) W-SW 253 0 min 0,0 UV-I 0 W/m 8,4 C 11,4 C 0,0 km/h (0 Bft)
16.05.2022 23:04 11,2 C 7,8 C 82 % 1021,9 hPa 0,0 l/m 0,0 km/h (0 Bft) W-SW 253 0 min 0,0 UV-I 0 W/m 8,2 C 11,2 C 0,0 km/h (0 Bft)
16.05.2022 23:06 11,1 C 7,8 C 83 % 1021,9 hPa 0,0 l/m 0,0 km/h (0 Bft) W-SW 253 0 min 0,0 UV-I 0 W/m 8,3 C 11,1 C 0,0 km/h (0 Bft)
16.05.2022 23:08 10,9 C 7,8 C 83 % 1022,0 hPa 0,0 l/m 0,0 km/h (0 Bft) W-SW 253 0 min 0,0 UV-I 0 W/m 8,1 C 10,9 C 0,0 km/h (0 Bft)
16.05.2022 23:10 10,8 C 7,8 C 84 % 1021,9 hPa 0,0 l/m 0,0 km/h (0 Bft) W-SW 253 0 min 0,0 UV-I 0 W/m 8,2 C 10,8 C 0,0 km/h (0 Bft)
16.05.2022 23:12 10,7 C 7,8 C 84 % 1022,0 hPa 0,0 l/m 0,0 km/h (0 Bft) W-SW 253 0 min 0,0 UV-I 0 W/m 8,1 C 10,7 C 0,0 km/h (0 Bft)
16.05.2022 23:14 10,7 C 7,8 C 84 % 1021,9 hPa 0,0 l/m 0,0 km/h (0 Bft) W-SW 253 0 min 0,0 UV-I 0 W/m 8,1 C 10,7 C 0,0 km/h (0 Bft)
16.05.2022 23:16 10,6 C 7,8 C 84 % 1022,1 hPa 0,0 l/m 0,0 km/h (0 Bft) W-SW 253 0 min 0,0 UV-I 0 W/m 8,0 C 10,6 C 0,0 km/h (0 Bft)
16.05.2022 23:18 10,5 C 7,8 C 84 % 1022,0 hPa 0,0 l/m 0,0 km/h (0 Bft) W-SW 253 0 min 0,0 UV-I 0 W/m 7,9 C 10,5 C 0,0 km/h (0 Bft)
16.05.2022 23:20 10,4 C 7,8 C 84 % 1022,0 hPa 0,0 l/m 0,0 km/h (0 Bft) W-SW 253 0 min 0,0 UV-I 0 W/m 7,8 C 10,4 C 0,0 km/h (0 Bft)
16.05.2022 23:22 10,3 C 7,2 C 85 % 1022,0 hPa 0,0 l/m 0,0 km/h (0 Bft) W-SW 253 0 min 0,0 UV-I 0 W/m 7,9 C 10,3 C 0,0 km/h (0 Bft)
16.05.2022 23:24 10,3 C 7,8 C 85 % 1022,1 hPa 0,0 l/m 0,0 km/h (0 Bft) W-SW 253 0 min 0,0 UV-I 0 W/m 7,9 C 10,3 C 0,0 km/h (0 Bft)
16.05.2022 23:26 10,3 C 7,8 C 85 % 1022,1 hPa 0,0 l/m 0,0 km/h (0 Bft) W-SW 253 0 min 0,0 UV-I 0 W/m 7,9 C 10,3 C 0,0 km/h (0 Bft)
16.05.2022 23:28 10,4 C 7,8 C 85 % 1022,1 hPa 0,0 l/m 0,0 km/h (0 Bft) W-SW 253 0 min 0,0 UV-I 0 W/m 8,0 C 10,4 C 0,0 km/h (0 Bft)
16.05.2022 23:30 10,4 C 7,8 C 85 % 1022,1 hPa 0,0 l/m 0,0 km/h (0 Bft) W-SW 253 0 min 0,0 UV-I 0 W/m 8,0 C 10,4 C 0,0 km/h (0 Bft)
16.05.2022 23:32 10,4 C 7,8 C 86 % 1022,2 hPa 0,0 l/m 0,0 km/h (0 Bft) W-SW 253 0 min 0,0 UV-I 0 W/m 8,2 C 10,4 C 0,0 km/h (0 Bft)
16.05.2022 23:34 10,4 C 7,8 C 86 % 1022,1 hPa 0,0 l/m 0,0 km/h (0 Bft) W-SW 253 0 min 0,0 UV-I 0 W/m 8,2 C 10,4 C 0,0 km/h (0 Bft)
16.05.2022 23:36 10,3 C 7,8 C 85 % 1022,2 hPa 0,0 l/m 0,0 km/h (0 Bft) W-SW 253 0 min 0,0 UV-I 0 W/m 7,9 C 10,3 C 0,0 km/h (0 Bft)
16.05.2022 23:38 10,1 C 7,2 C 85 % 1022,2 hPa 0,0 l/m 0,0 km/h (0 Bft) W-SW 253 0 min 0,0 UV-I 0 W/m 7,7 C 10,1 C 0,0 km/h (0 Bft)
16.05.2022 23:40 9,9 C 6,7 C 86 % 1022,2 hPa 0,0 l/m 0,0 km/h (0 Bft) W-SW 253 0 min 0,0 UV-I 0 W/m 7,7 C 9,9 C 0,0 km/h (0 Bft)
16.05.2022 23:42 9,9 C 7,2 C 86 % 1022,2 hPa 0,0 l/m 0,0 km/h (0 Bft) W-SW 253 0 min 0,0 UV-I 0 W/m 7,7 C 9,9 C 1,6 km/h (1 Bft)
16.05.2022 23:44 9,9 C 7,2 C 87 % 1022,1 hPa 0,0 l/m 0,0 km/h (0 Bft) W-SW 253 0 min 0,0 UV-I 0 W/m 7,8 C 9,9 C 0,0 km/h (0 Bft)
16.05.2022 23:46 9,9 C 7,2 C 87 % 1022,2 hPa 0,0 l/m 0,0 km/h (0 Bft) W-SW 253 0 min 0,0 UV-I 0 W/m 7,8 C 9,9 C 0,0 km/h (0 Bft)
16.05.2022 23:48 9,9 C 7,2 C 87 % 1022,2 hPa 0,0 l/m 0,0 km/h (0 Bft) W-SW 253 0 min 0,0 UV-I 0 W/m 7,8 C 9,9 C 0,0 km/h (0 Bft)
16.05.2022 23:50 9,8 C 7,2 C 87 % 1022,1 hPa 0,0 l/m 0,0 km/h (0 Bft) W-SW 253 0 min 0,0 UV-I 0 W/m 7,7 C 9,8 C 0,0 km/h (0 Bft)
16.05.2022 23:52 9,7 C 6,7 C 87 % 1022,2 hPa 0,0 l/m 0,0 km/h (0 Bft) W-SW 253 0 min 0,0 UV-I 0 W/m 7,6 C 9,7 C 0,0 km/h (0 Bft)
16.05.2022 23:54 9,7 C 6,7 C 87 % 1022,4 hPa 0,0 l/m 0,0 km/h (0 Bft) W-SW 253 0 min 0,0 UV-I 0 W/m 7,6 C 9,7 C 0,0 km/h (0 Bft)
16.05.2022 23:56 9,6 C 6,7 C 87 % 1022,3 hPa 0,0 l/m 0,0 km/h (0 Bft) W-SW 253 0 min 0,0 UV-I 0 W/m 7,5 C 9,6 C 0,0 km/h (0 Bft)
16.05.2022 23:58 9,6 C 6,7 C 87 % 1022,4 hPa 0,0 l/m 0,0 km/h (0 Bft) W-SW 253 0 min 0,0 UV-I 0 W/m 7,5 C 9,6 C 0,0 km/h (0 Bft)
16.05.2022 23:59 9,6 C 6,7 C 87 % 1022,4 hPa 0,0 l/m 0,0 km/h (0 Bft) N 0 0 min 0,0 UV-I 0 W/m 7,5 C 9,6 C 0,0 km/h (0 Bft)
_ Min-Zeit 03:22 03:14 10:08 05:58 - 00:08 - - - - - 03:18 03:22 00:08
Minimum _ 9,1 C 6,7 C 59 % 1014,9 hPa - 0,0 km/h (0 Bft) - - - - - 6,5 C 9,1 C 0,0 km/h (0 Bft)
_ Max-Zeit 12:26 13:08 23:44 23:54 00:00 14:44 - - 08:40 14:12 15:10 13:20 11:22 13:32
Maximum _ 23,0 C 28,3 C 87 % 1022,4 hPa 0,0 l/m 29,4 km/h
S-SW (5 Bft)
- - 2 min 6,9 UV-I 1090 W/m 16,2 C 21,5 C 49,9 km/h
S (6 Bft)
Durchschnitt _ 15,7 C 15,8 C 73 % 1017,8 hPa #0,0 l/m 7,7 km/h (2 Bft) S-SW - #6:28 h 2,7 UV-I 355 W/m 10,7 C 14,5 C 12,4 km/h (3 Bft)